[[{"header":{"parameterUnit":"m.s-1","parameterCategory":1,"la1":31.0,"la2":29.5877,"lo1":-88.7671,"lo2":-86.6584,"dy":0.0162,"dx":0.0185,"nx":115,"ny":88,"refTime":"2023-06-25T18:00:00:Z","depth":0,"parameterNumber":2,"parameterNumberName":"U-component_of_WINDS"},"data":[0.0,0.0,0.0,0.0,0.0,0.0,0.0,0.0,0.0,0.0,0.0,0.0,0.0,0.0,0.0,0.0,0.0,0.0,0.0,0.0,0.0,0.0,0.0,0.0,0.0,0.0,0.0,0.0,0.0,0.0,0.0,0.0,0.0,0.0,0.0,0.0,0.0,0.0,0.0,0.0,0.0,0.0,0.0,0.0,0.0,0.0,0.0,0.0,0.0,0.0,0.0,0.0,0.0,0.0,0.0,0.0,0.0,0.0,0.0,0.0,0.0,0.0,0.0,0.0,0.0,0.0,0.0,0.0,0.0,0.0,0.0,0.0,0.0,0.0,0.0,0.0,0.0,0.0,0.0,0.0,0.0,0.0,0.0,0.0,0.0,0.0,0.0,0.0,0.0,0.0,0.0,0.0,0.0,0.0,0.0,0.0,0.0,0.0,0.0,0.0,0.0,0.0,0.0,0.0,0.0,0.0,0.0,0.0,0.0,0.0,0.0,0.0,0.0,0.0,0.0,0.0,0.0,0.0,0.0,0.0,0.0,0.0,0.0,0.0,0.0,0.0,0.0,0.0,0.0,0.0,0.0,0.0,0.0,0.0,0.0,0.0,0.0,0.0,0.0,0.0,0.0,0.0,0.0,0.0,0.0,0.0,0.0,0.0,0.0,0.0,0.0,0.0,0.0,0.0,0.0,0.0,0.0,0.0,0.0,0.0,0.0,0.0,0.0,0.0,0.0,0.0,0.0,0.0,0.0,0.0,0.0,0.0,0.0,0.0,0.0,0.0,0.0,0.0,0.0,0.0,0.0,0.0,0.0,0.0,0.0,0.0,0.0,0.0,0.0,0.0,0.0,0.0,0.0,0.0,0.0,0.0,0.0,0.0,0.0,0.0,0.0,0.0,0.0,0.0,0.0,0.0,0.0,0.0,0.0,0.0,0.0,0.0,0.0,0.0,0.0,0.0,0.0,0.0,0.0,0.0,0.0,0.0,0.0,0.0,0.0,0.0,0.0,0.0,0.0,0.0,0.0,0.0,0.0,0.0,0.0,0.0,0.0,0.0,0.0,0.0,0.0,0.0,0.0,0.0,0.0,0.0,0.0,0.0,0.0,0.0,0.0,0.0,0.0,0.0,0.0,0.0,0.0,0.0,0.0,0.0,0.0,0.0,0.0,0.0,0.0,0.0,0.0,0.0,0.0,0.0,0.0,0.0,0.0,0.0,0.0,0.0,0.0,0.0,0.0,0.0,0.0,0.0,0.0,0.0,0.0,0.0,0.0,0.0,0.0,0.0,0.0,0.0,0.0,0.0,0.0,0.0,0.0,0.0,0.0,0.0,0.0,0.0,0.0,0.0,0.0,0.0,0.0,0.0,0.0,0.0,0.0,0.0,0.0,0.0,0.0,0.0,0.0,0.0,0.0,0.0,0.0,0.0,0.0,0.0,0.0,0.0,0.0,0.0,0.0,0.0,0.0,0.0,0.0,0.0,0.0,0.0,0.0,0.0,0.0,0.0,0.0,0.0,0.0,0.0,0.0,0.0,0.0,0.0,0.0,0.0,0.0,0.0,0.0,0.0,0.0,0.0,0.0,0.0,0.0,0.0,0.0,0.0,0.0,0.0,0.0,0.0,0.0,0.0,0.0,0.0,0.0,0.0,0.0,0.0,0.0,0.0,0.0,0.0,0.0,0.0,0.0,0.0,0.0,0.0,0.0,0.0,0.0,0.0,0.0,0.0,0.0,0.0,0.0,0.0,0.0,0.0,0.0,0.0,0.0,0.0,0.0,0.0,0.0,0.0,0.0,0.0,0.0,0.0,0.0,0.0,0.0,0.0,0.0,0.0,0.0,0.0,0.0,0.0,0.0,0.0,0.0,0.0,0.0,0.0,0.0,0.0,0.0,0.0,0.0,0.0,0.0,0.0,0.0,0.0,0.0,0.0,0.0,0.0,0.0,0.0,0.0,0.0,0.0,0.0,0.0,0.0,0.0,0.0,0.0,0.0,0.0,0.0,0.0,0.0,0.0,0.0,0.0,0.0,0.0,0.0,0.0,0.0,0.0,0.0,0.0,0.0,0.0,0.0,0.0,0.0,0.0,0.0,0.0,0.0,0.0,0.0,0.0,0.0,0.0,0.0,0.0,0.0,0.0,0.0,0.0,0.0,0.0,0.0,0.0,0.0,0.0,0.0,0.0,0.0,0.0,0.0,0.0,0.0,0.0,0.0,0.0,0.0,0.0,0.0,0.0,0.0,0.0,0.0,0.0,0.0,0.0,0.0,0.0,0.0,0.0,0.0,0.0,0.0,0.0,0.0,0.0,0.0,0.0,0.0,0.0,0.0,0.0,0.0,0.0,0.0,0.0,0.0,0.0,0.0,0.0,0.0,0.0,0.0,0.0,0.0,0.0,0.0,0.0,0.0,0.0,0.0,0.0,0.0,0.0,0.0,0.0,0.0,0.0,0.0,0.0,0.0,0.0,0.0,0.0,0.0,0.0,0.0,0.0,0.0,0.0,0.0,0.0,0.0,0.0,0.0,0.0,0.0,0.0,0.0,0.0,0.0,0.0,0.0,0.0,0.0,0.0,0.0,0.0,0.0,0.0,0.0,0.0,0.0,0.0,0.0,0.0,0.0,0.0,0.0,0.0,0.0,0.0,0.0,0.0,0.0,0.0,0.0,0.0,0.0,0.0,0.0,0.0,0.0,0.0,0.0,0.0,0.0,0.0,0.0,0.0,0.0,0.0,0.0,0.0,0.0,0.0,0.0,0.0,0.0,0.0,0.0,0.0,0.0,0.0,0.0,0.0,0.0,0.0,0.0,0.0,0.0,0.0,0.0,0.0,0.0,0.0,0.0,0.0,0.0,0.0,0.0,0.0,0.0,0.0,0.0,0.0,0.0,0.0,0.0,0.0,0.0,0.0,0.0,0.0,0.0,0.0,0.0,0.0,0.0,0.0,0.0,0.0,0.0,0.0,0.0,0.0,0.0,0.0,0.0,0.0,0.0,0.0,0.0,0.0,0.0,0.0,0.0,0.0,0.0,0.0,0.0,0.0,0.0,0.0,0.0,0.0,0.0,0.0,0.0,0.0,0.0,0.0,0.0,0.0,0.0,0.0,0.0,0.0,0.0,0.0,0.0,0.0,0.0,0.0,0.0,0.0,0.0,0.0,0.0,0.0,0.0,0.0,0.0,0.0,0.0,0.0,0.0,0.0,0.0,0.0,0.0,0.0,0.0,0.0,0.0,0.0,0.0,0.0,0.0,0.0,0.0,0.0,0.0,0.0,0.0,0.0,0.0,0.0,0.0,0.0,0.0,0.0,0.0,0.0,0.0,0.0,0.0,0.0,0.0,0.0,0.0,0.0,0.0,0.0,0.0,0.0,0.0,0.0,0.0,0.0,0.0,0.0,0.0,0.0,0.0,0.0,0.0,0.0,0.0,0.0,0.0,0.0,0.0,0.0,0.0,0.0,0.0,0.0,0.0,0.0,0.0,0.0,0.0,0.0,0.0,0.0,0.0,0.0,0.0,0.0,0.0,0.0,0.0,0.0,0.0,0.0,0.0,0.0,0.0,0.0,0.0,0.0,0.0,0.0,0.0,0.0,0.0,0.0,0.0,0.0,0.0,0.0,0.0,0.0,0.0,0.0,0.0,0.0,0.0,0.0,0.0,0.0,0.0,0.0,0.0,0.0,0.0,0.0,0.0,0.0,0.0,0.0,0.0,0.0,0.0,0.0,0.0,0.0,0.0,0.0,0.0,0.0,0.0,0.0,0.0,0.0,0.0,0.0,0.0,0.0,0.0,0.0,0.0,0.0,0.0,0.0,0.0,0.0,0.0,0.0,0.0,0.0,0.0,0.0,0.0,0.0,0.0,0.0,0.0,0.0,0.0,0.0,0.0,0.0,0.0,0.0,0.0,0.0,0.0,0.0,0.0,0.0,0.0,0.0,0.0,0.0,0.0,0.0,0.0,0.0,0.0,0.0,0.0,0.0,0.0,0.0,0.0,0.0,0.0,0.0,0.0,0.0,0.0,0.0,0.0,0.0,0.0,0.0,0.0,0.0,0.0,0.0,0.0,0.0,0.0,0.0,0.0,0.0,0.0,0.0,0.0,0.0,0.0,0.0,0.0,0.0,0.0,0.0,0.0,0.0,0.0,0.0,0.0,0.0,0.0,0.0,0.0,0.0,0.0,0.0,0.0,0.0,0.0,0.0,0.0,0.0,0.0,0.0,0.0,0.0,0.0,0.0,0.0,0.0,0.0,0.0,0.0,0.0,0.0,0.0,0.0,-1.9139,0.0,0.0,0.0,0.0,0.0,0.0,0.0,0.0,0.0,0.0,0.0,0.0,0.0,0.0,0.0,0.0,0.0,0.0,0.0,0.0,0.0,0.0,0.0,0.0,0.0,0.0,0.0,0.0,0.0,0.0,0.0,0.0,0.0,0.0,0.0,0.0,0.0,0.0,0.0,0.0,0.0,0.0,0.0,0.0,0.0,0.0,0.0,0.0,0.0,0.0,0.0,0.0,0.0,0.0,0.0,0.0,0.0,0.0,0.0,0.0,0.0,0.0,0.0,0.0,0.0,0.0,0.0,0.0,0.0,0.0,0.0,0.0,0.0,0.0,0.0,0.0,0.0,0.0,0.0,0.0,0.0,0.0,0.0,0.0,0.0,0.0,0.0,0.0,0.0,0.0,0.0,0.0,0.0,0.0,0.0,0.0,0.0,0.0,0.0,0.0,0.0,0.0,0.0,0.0,0.0,0.0,0.0,0.0,0.0,0.0,-1.9904,-1.9726,-1.9435,-1.9213,-1.895,0.0,0.0,0.0,0.0,0.0,0.0,0.0,0.0,0.0,0.0,0.0,0.0,0.0,0.0,0.0,0.0,0.0,0.0,0.0,0.0,0.0,0.0,0.0,0.0,0.0,0.0,0.0,0.0,0.0,0.0,0.0,0.0,0.0,0.0,0.0,0.0,0.0,0.0,0.0,0.0,0.0,0.0,0.0,0.0,0.0,0.0,0.0,0.0,0.0,0.0,0.0,0.0,0.0,0.0,0.0,0.0,0.0,0.0,0.0,0.0,0.0,0.0,0.0,0.0,0.0,0.0,0.0,0.0,0.0,0.0,0.0,0.0,0.0,0.0,0.0,0.0,0.0,0.0,0.0,0.0,0.0,0.0,0.0,0.0,0.0,0.0,0.0,0.0,0.0,0.0,0.0,0.0,0.0,0.0,0.0,0.0,0.0,0.0,0.0,0.0,0.0,0.0,0.0,0.0,0.0,0.0,0.0,0.0,0.0,0.0,0.0,0.0,-1.9288,-1.9003,-1.8711,0.0,0.0,0.0,0.0,0.0,0.0,0.0,0.0,0.0,0.0,0.0,0.0,0.0,0.0,0.0,0.0,0.0,0.0,0.0,0.0,0.0,0.0,0.0,0.0,0.0,0.0,0.0,0.0,0.0,0.0,0.0,0.0,0.0,0.0,0.0,0.0,0.0,0.0,0.0,0.0,0.0,0.0,0.0,0.0,0.0,0.0,0.0,0.0,0.0,0.0,0.0,0.0,0.0,0.0,0.0,0.0,0.0,0.0,0.0,0.0,0.0,0.0,0.0,0.0,0.0,0.0,0.0,0.0,0.0,0.0,0.0,0.0,0.0,0.0,0.0,0.0,0.0,0.0,0.0,0.0,0.0,0.0,0.0,0.0,0.0,0.0,0.0,0.0,0.0,0.0,0.0,0.0,0.0,0.0,0.0,0.0,0.0,0.0,0.0,0.0,0.0,0.0,0.0,0.0,0.0,0.0,0.0,0.0,0.0,0.0,-1.9581,-1.9325,-1.9176,0.0,-1.8512,0.0,0.0,0.0,0.0,0.0,0.0,0.0,0.0,0.0,0.0,0.0,0.0,0.0,0.0,0.0,0.0,0.0,0.0,0.0,0.0,0.0,0.0,0.0,0.0,0.0,0.0,0.0,0.0,0.0,0.0,0.0,0.0,0.0,0.0,0.0,0.0,0.0,0.0,0.0,0.0,0.0,0.0,0.0,0.0,0.0,0.0,0.0,0.0,0.0,0.0,0.0,0.0,0.0,0.0,0.0,0.0,0.0,0.0,0.0,0.0,0.0,0.0,0.0,0.0,0.0,0.0,0.0,0.0,0.0,0.0,0.0,0.0,0.0,0.0,0.0,0.0,0.0,0.0,0.0,0.0,0.0,0.0,0.0,0.0,0.0,0.0,0.0,0.0,0.0,0.0,0.0,0.0,0.0,0.0,0.0,0.0,0.0,0.0,0.0,0.0,0.0,0.0,0.0,0.0,0.0,0.0,0.0,0.0,0.0,0.0,-1.9362,-1.9176,-1.8822,-1.8531,0.0,0.0,0.0,0.0,0.0,0.0,0.0,0.0,0.0,0.0,0.0,0.0,0.0,0.0,0.0,0.0,0.0,0.0,0.0,0.0,0.0,0.0,0.0,0.0,0.0,0.0,0.0,0.0,0.0,0.0,0.0,0.0,0.0,0.0,0.0,0.0,0.0,0.0,0.0,0.0,0.0,0.0,0.0,0.0,0.0,0.0,0.0,0.0,0.0,0.0,0.0,0.0,0.0,0.0,0.0,0.0,0.0,0.0,0.0,0.0,0.0,0.0,0.0,0.0,0.0,0.0,0.0,0.0,0.0,0.0,0.0,0.0,0.0,0.0,0.0,0.0,0.0,0.0,0.0,0.0,0.0,0.0,0.0,0.0,0.0,0.0,0.0,0.0,0.0,0.0,0.0,0.0,0.0,0.0,0.0,0.0,0.0,0.0,0.0,0.0,0.0,0.0,0.0,0.0,0.0,0.0,0.0,0.0,0.0,0.0,-1.9362,-1.9153,-1.8912,-1.8475,-1.823,-1.8207,0.0,0.0,0.0,0.0,0.0,0.0,0.0,0.0,0.0,0.0,0.0,0.0,0.0,0.0,0.0,0.0,0.0,0.0,0.0,0.0,0.0,0.0,0.0,0.0,0.0,0.0,0.0,0.0,0.0,0.0,0.0,0.0,0.0,0.0,0.0,0.0,0.0,0.0,0.0,0.0,0.0,0.0,0.0,0.0,0.0,0.0,0.0,0.0,0.0,0.0,0.0,0.0,0.0,0.0,0.0,0.0,0.0,0.0,0.0,0.0,0.0,0.0,0.0,0.0,0.0,0.0,0.0,0.0,0.0,0.0,0.0,0.0,0.0,0.0,0.0,0.0,0.0,0.0,0.0,0.0,0.0,0.0,0.0,0.0,0.0,0.0,0.0,0.0,0.0,0.0,0.0,0.0,0.0,0.0,0.0,0.0,0.0,0.0,0.0,0.0,0.0,0.0,0.0,0.0,0.0,0.0,0.0,0.0,-1.9428,-1.9242,-1.8941,-1.8584,-1.8214,-1.8098,0.0,0.0,0.0,0.0,0.0,0.0,0.0,0.0,0.0,0.0,0.0,0.0,0.0,0.0,0.0,0.0,0.0,0.0,0.0,0.0,0.0,0.0,0.0,0.0,0.0,0.0,0.0,0.0,0.0,0.0,0.0,0.0,0.0,0.0,0.0,0.0,0.0,0.0,0.0,0.0,0.0,0.0,0.0,0.0,0.0,0.0,0.0,0.0,0.0,0.0,0.0,0.0,0.0,0.0,0.0,0.0,0.0,0.0,0.0,0.0,0.0,0.0,0.0,0.0,0.0,0.0,0.0,0.0,0.0,0.0,0.0,0.0,0.0,0.0,0.0,0.0,0.0,0.0,0.0,0.0,0.0,0.0,0.0,0.0,0.0,0.0,0.0,0.0,0.0,0.0,0.0,0.0,0.0,0.0,0.0,0.0,0.0,0.0,0.0,0.0,0.0,0.0,0.0,0.0,0.0,0.0,0.0,0.0,0.0,-1.9773,-1.9838,-1.9807,-1.96,-1.9208,-1.8628,0.0,0.0,0.0,0.0,0.0,0.0,0.0,0.0,0.0,0.0,0.0,0.0,0.0,0.0,0.0,0.0,0.0,0.0,0.0,0.0,0.0,0.0,0.0,0.0,0.0,0.0,0.0,0.0,0.0,0.0,0.0,0.0,0.0,0.0,0.0,0.0,0.0,0.0,0.0,0.0,0.0,0.0,0.0,0.0,0.0,0.0,0.0,0.0,0.0,0.0,0.0,0.0,0.0,0.0,0.0,0.0,0.0,0.0,0.0,0.0,0.0,0.0,0.0,0.0,0.0,0.0,0.0,0.0,0.0,0.0,0.0,0.0,0.0,0.0,0.0,0.0,0.0,0.0,0.0,0.0,0.0,0.0,0.0,0.0,0.0,0.0,0.0,0.0,0.0,0.0,0.0,0.0,0.0,0.0,0.0,0.0,0.0,0.0,0.0,0.0,0.0,0.0,0.0,0.0,0.0,0.0,0.0,0.0,0.0,-2.0163,0.0,-2.0229,-2.0041,-1.9734,-1.911,0.0,0.0,0.0,0.0,0.0,0.0,0.0,0.0,0.0,0.0,0.0,0.0,0.0,0.0,0.0,0.0,0.0,0.0,0.0,0.0,0.0,0.0,0.0,0.0,0.0,0.0,0.0,0.0,0.0,0.0,0.0,0.0,0.0,0.0,0.0,0.0,0.0,0.0,0.0,0.0,0.0,0.0,0.0,0.0,0.0,0.0,0.0,0.0,0.0,0.0,0.0,0.0,0.0,0.0,0.0,0.0,0.0,0.0,0.0,0.0,0.0,0.0,0.0,0.0,0.0,0.0,0.0,0.0,0.0,0.0,0.0,0.0,0.0,0.0,0.0,0.0,0.0,0.0,0.0,0.0,0.0,0.0,0.0,0.0,0.0,0.0,0.0,0.0,0.0,0.0,0.0,0.0,0.0,0.0,0.0,0.0,0.0,0.0,0.0,0.0,0.0,0.0,0.0,0.0,0.0,0.0,0.0,0.0,-2.0684,-2.0529,-2.0386,-2.0226,-1.9864,-1.9669,-1.9453,0.0,0.0,0.0,0.0,0.0,0.0,0.0,0.0,0.0,0.0,0.0,0.0,0.0,0.0,0.0,0.0,0.0,0.0,0.0,0.0,0.0,0.0,0.0,0.0,0.0,0.0,0.0,0.0,0.0,0.0,0.0,0.0,0.0,0.0,0.0,0.0,0.0,0.0,0.0,0.0,0.0,0.0,0.0,0.0,0.0,0.0,0.0,0.0,0.0,0.0,0.0,0.0,0.0,0.0,0.0,0.0,0.0,0.0,0.0,0.0,0.0,0.0,0.0,0.0,0.0,0.0,0.0,0.0,0.0,0.0,0.0,0.0,0.0,0.0,0.0,0.0,0.0,0.0,0.0,0.0,0.0,0.0,0.0,0.0,0.0,0.0,0.0,0.0,0.0,0.0,0.0,0.0,0.0,0.0,0.0,0.0,0.0,0.0,0.0,0.0,0.0,0.0,0.0,0.0,0.0,0.0,0.0,0.0,0.0,-2.0957,-2.1185,-2.1194,-2.0914,-2.0582,-2.0408,0.0,0.0,0.0,0.0,0.0,0.0,0.0,0.0,0.0,0.0,0.0,0.0,0.0,0.0,0.0,0.0,0.0,0.0,0.0,0.0,0.0,0.0,0.0,0.0,0.0,0.0,0.0,0.0,0.0,0.0,0.0,0.0,0.0,0.0,0.0,0.0,0.0,0.0,0.0,0.0,0.0,0.0,0.0,0.0,0.0,0.0,0.0,0.0,0.0,0.0,0.0,0.0,0.0,0.0,0.0,0.0,0.0,0.0,0.0,0.0,0.0,0.0,0.0,0.0,0.0,0.0,0.0,0.0,0.0,0.0,0.0,0.0,0.0,0.0,0.0,0.0,0.0,0.0,0.0,0.0,0.0,0.0,0.0,0.0,0.0,0.0,0.0,0.0,0.0,0.0,0.0,0.0,0.0,0.0,0.0,0.0,0.0,0.0,0.0,0.0,0.0,0.0,0.0,0.0,0.0,0.0,0.0,0.0,0.0,-2.1745,-2.1876,-2.1847,-2.1587,-2.1027,-2.0664,-2.054,0.0,0.0,0.0,0.0,0.0,0.0,0.0,0.0,0.0,0.0,0.0,0.0,0.0,0.0,0.0,0.0,0.0,0.0,0.0,0.0,0.0,0.0,0.0,0.0,0.0,0.0,0.0,0.0,0.0,0.0,0.0,0.0,0.0,0.0,0.0,0.0,0.0,0.0,0.0,0.0,0.0,0.0,0.0,0.0,0.0,0.0,0.0,0.0,0.0,0.0,0.0,0.0,0.0,0.0,0.0,0.0,0.0,0.0,0.0,0.0,0.0,0.0,0.0,0.0,0.0,0.0,0.0,0.0,0.0,0.0,0.0,0.0,0.0,0.0,0.0,0.0,0.0,0.0,0.0,0.0,0.0,0.0,0.0,0.0,0.0,0.0,0.0,0.0,0.0,0.0,0.0,0.0,0.0,0.0,0.0,0.0,0.0,0.0,0.0,0.0,0.0,0.0,0.0,0.0,0.0,0.0,0.0,0.0,-2.2764,-2.2492,-2.2183,-2.19,-2.1116,-2.0425,0.0,0.0,0.0,0.0,0.0,0.0,0.0,0.0,0.0,0.0,0.0,0.0,0.0,0.0,0.0,0.0,0.0,0.0,0.0,0.0,0.0,0.0,0.0,0.0,0.0,0.0,0.0,0.0,0.0,0.0,0.0,0.0,0.0,0.0,0.0,0.0,0.0,0.0,0.0,0.0,0.0,0.0,0.0,0.0,0.0,0.0,0.0,0.0,0.0,0.0,0.0,0.0,0.0,0.0,0.0,0.0,0.0,0.0,0.0,0.0,0.0,0.0,0.0,0.0,0.0,0.0,0.0,0.0,0.0,0.0,0.0,0.0,0.0,0.0,0.0,0.0,0.0,0.0,0.0,0.0,0.0,0.0,0.0,0.0,0.0,0.0,0.0,0.0,0.0,0.0,0.0,0.0,0.0,0.0,0.0,0.0,0.0,0.0,0.0,0.0,0.0,0.0,0.0,0.0,0.0,0.0,0.0,0.0,0.0,-2.2428,-2.2786,-2.272,-2.2219,-2.1862,-2.1113,0.0,0.0,0.0,0.0,0.0,0.0,0.0,0.0,0.0,0.0,0.0,0.0,0.0,0.0,0.0,0.0,0.0,0.0,0.0,0.0,0.0,0.0,0.0,0.0,0.0,0.0,0.0,0.0,0.0,0.0,0.0,0.0,0.0,0.0,0.0,0.0,0.0,0.0,0.0,0.0,0.0,0.0,0.0,0.0,0.0,0.0,0.0,0.0,0.0,0.0,0.0,0.0,0.0,0.0,0.0,0.0,0.0,0.0,0.0,0.0,0.0,0.0,0.0,0.0,0.0,0.0,0.0,0.0,0.0,0.0,0.0,0.0,0.0,0.0,0.0,0.0,0.0,0.0,0.0,0.0,0.0,0.0,0.0,0.0,0.0,0.0,0.0,0.0,0.0,0.0,0.0,0.0,0.0,0.0,0.0,0.0,0.0,0.0,0.0,0.0,0.0,0.0,0.0,0.0,0.0,0.0,0.0,0.0,-2.2802,-2.2868,-2.3192,-2.3205,-2.2768,-2.2155,-2.1378,0.0,0.0,0.0,0.0,0.0,0.0,0.0,0.0,0.0,0.0,0.0,0.0,0.0,0.0,0.0,0.0,0.0,0.0,0.0,0.0,0.0,0.0,0.0,0.0,0.0,0.0,0.0,0.0,0.0,0.0,0.0,0.0,0.0,0.0,0.0,0.0,0.0,0.0,0.0,0.0,0.0,0.0,0.0,0.0,0.0,0.0,0.0,0.0,0.0,0.0,0.0,0.0,0.0,0.0,0.0,0.0,0.0,0.0,0.0,0.0,0.0,0.0,0.0,0.0,0.0,0.0,0.0,0.0,0.0,0.0,0.0,0.0,0.0,0.0,0.0,0.0,0.0,0.0,0.0,0.0,0.0,0.0,0.0,0.0,0.0,0.0,0.0,0.0,0.0,0.0,0.0,0.0,0.0,0.0,0.0,0.0,0.0,0.0,0.0,0.0,0.0,0.0,0.0,0.0,0.0,0.0,0.0,0.0,-2.3052,-2.3543,-2.3569,-2.3509,-2.3365,-2.2241,-2.1531,0.0,0.0,0.0,0.0,0.0,0.0,0.0,0.0,0.0,0.0,0.0,0.0,0.0,0.0,0.0,0.0,0.0,0.0,0.0,0.0,0.0,0.0,0.0,0.0,0.0,0.0,0.0,0.0,0.0,0.0,0.0,0.0,0.0,0.0,0.0,0.0,0.0,0.0,0.0,0.0,0.0,0.0,0.0,0.0,0.0,0.0,0.0,0.0,0.0,0.0,0.0,0.0,0.0,0.0,0.0,0.0,0.0,0.0,0.0,0.0,0.0,0.0,0.0,0.0,0.0,0.0,0.0,0.0,0.0,0.0,0.0,0.0,0.0,0.0,0.0,0.0,0.0,0.0,0.0,0.0,0.0,0.0,0.0,0.0,0.0,0.0,0.0,0.0,0.0,0.0,0.0,0.0,0.0,0.0,0.0,0.0,0.0,0.0,0.0,0.0,0.0,0.0,0.0,0.0,0.0,0.0,0.0,0.0,-2.2949,-2.3185,-2.333,-2.333,-2.3198,-2.2912,-2.2409,0.0,0.0,0.0,0.0,0.0,0.0,0.0,0.0,0.0,0.0,0.0,0.0,0.0,0.0,0.0,0.0,0.0,0.0,0.0,0.0,0.0,0.0,0.0,0.0,0.0,0.0,0.0,0.0,0.0,0.0,0.0,0.0,0.0,0.0,0.0,0.0,0.0,0.0,0.0,0.0,0.0,0.0,0.0,0.0,0.0,0.0,0.0,0.0,-0.6861,0.0,0.0,0.0,0.0,0.0,0.0,0.0,0.0,0.0,0.0,0.0,0.0,0.0,0.0,0.0,0.0,0.0,0.0,0.0,0.0,0.0,0.0,0.0,0.0,0.0,0.0,0.0,0.0,0.0,0.0,0.0,0.0,0.0,0.0,0.0,0.0,0.0,0.0,0.0,0.0,0.0,0.0,0.0,0.0,0.0,0.0,0.0,0.0,0.0,0.0,0.0,0.0,0.0,0.0,0.0,0.0,0.0,0.0,0.0,-2.2955,-2.3125,-2.3198,-2.3198,-2.3017,-2.2957,-2.2588,0.0,0.0,0.0,0.0,0.0,0.0,0.0,0.0,0.0,0.0,0.0,0.0,0.0,0.0,0.0,0.0,0.0,0.0,0.0,0.0,0.0,0.0,0.0,0.0,0.0,0.0,0.0,0.0,0.0,0.0,0.0,0.0,0.0,0.0,0.0,0.0,0.0,0.0,0.0,0.0,0.0,0.0,0.0,0.0,0.0,0.0,0.0,0.0,0.0,0.0,0.0,0.0,0.0,0.0,0.0,0.0,0.0,0.0,0.0,0.0,0.0,0.0,0.0,0.0,0.0,0.0,0.0,0.0,0.0,0.0,0.0,0.0,0.0,0.0,0.0,0.0,0.0,0.0,0.0,0.0,0.0,0.0,0.0,0.0,0.0,0.0,0.0,0.0,0.0,0.0,0.0,0.0,0.0,0.0,0.0,0.0,0.0,0.0,0.0,0.0,0.0,0.0,0.0,0.0,0.0,0.0,0.0,-2.284,-2.3125,-2.3125,-2.3125,-2.303,-2.2909,-2.28,-2.2469,-2.1967,0.0,0.0,0.0,0.0,0.0,0.0,0.0,0.0,0.0,0.0,0.0,0.0,0.0,0.0,0.0,0.0,0.0,0.0,0.0,0.0,0.0,0.0,0.0,0.0,0.0,0.0,0.0,0.0,0.0,0.0,0.0,0.0,0.0,0.0,0.0,0.0,0.0,0.0,-0.7082,-0.7062,0.0,0.0,0.0,0.0,0.0,0.0,0.0,0.0,-0.7516,0.0,0.0,0.0,0.0,0.0,0.0,0.0,0.0,0.0,0.0,0.0,0.0,0.0,0.0,0.0,0.0,0.0,0.0,0.0,0.0,0.0,0.0,0.0,0.0,0.0,0.0,0.0,0.0,0.0,0.0,0.0,0.0,0.0,0.0,0.0,0.0,0.0,0.0,0.0,0.0,0.0,0.0,0.0,0.0,0.0,0.0,0.0,0.0,0.0,0.0,0.0,0.0,0.0,0.0,0.0,0.0,-2.2987,-2.3027,-2.3125,-2.3125,-2.3125,-2.303,-2.2909,-2.2812,-2.2519,-2.2115,0.0,0.0,0.0,0.0,0.0,0.0,0.0,0.0,0.0,0.0,0.0,0.0,0.0,0.0,0.0,0.0,0.0,0.0,0.0,0.0,0.0,0.0,0.0,0.0,0.0,0.0,0.0,0.0,0.0,0.0,0.0,0.0,0.0,0.0,0.0,0.0,0.0,0.0,0.0,-0.696,-0.6932,0.0,0.0,0.0,0.0,0.0,0.0,0.0,0.0,-0.7539,0.0,0.0,0.0,0.0,0.0,0.0,0.0,0.0,0.0,0.0,0.0,0.0,0.0,0.0,0.0,0.0,0.0,0.0,0.0,0.0,0.0,0.0,0.0,0.0,0.0,0.0,0.0,0.0,0.0,0.0,0.0,0.0,0.0,0.0,0.0,0.0,0.0,0.0,0.0,0.0,0.0,0.0,0.0,0.0,0.0,0.0,0.0,0.0,0.0,0.0,0.0,0.0,0.0,0.0,0.0,-2.3552,-2.359,-2.3728,-2.3929,-2.4004,-2.3891,-2.364,-2.3577,-2.3201,0.0,0.0,0.0,0.0,0.0,0.0,0.0,0.0,0.0,0.0,0.0,0.0,0.0,0.0,0.0,0.0,0.0,0.0,0.0,0.0,0.0,0.0,0.0,0.0,0.0,0.0,0.0,0.0,0.0,0.0,0.0,0.0,0.0,0.0,0.0,0.0,0.0,0.0,0.0,0.0,-0.699,-0.7092,-0.7238,0.0,0.0,0.0,0.0,0.0,0.0,-0.7777,-0.7777,0.0,0.0,0.0,0.0,0.0,0.0,0.0,0.0,0.0,0.0,0.0,0.0,0.0,0.0,0.0,0.0,0.0,0.0,0.0,0.0,0.0,0.0,0.0,0.0,0.0,0.0,0.0,0.0,0.0,0.0,0.0,0.0,0.0,0.0,0.0,0.0,0.0,0.0,0.0,0.0,0.0,0.0,0.0,0.0,0.0,0.0,0.0,0.0,0.0,0.0,0.0,0.0,0.0,0.0,0.0,-2.3991,-2.4117,-2.4381,-2.4795,-2.4833,-2.4626,-2.4288,-2.4288,-2.3782,0.0,0.0,0.0,0.0,0.0,0.0,0.0,0.0,0.0,0.0,0.0,0.0,0.0,0.0,0.0,0.0,0.0,0.0,0.0,0.0,0.0,0.0,0.0,0.0,0.0,0.0,0.0,0.0,0.0,0.0,0.0,0.0,0.0,0.0,0.0,0.0,0.0,0.0,0.0,0.0,0.0,-0.7241,-0.7397,-0.7346,0.0,0.0,0.0,0.0,-0.7758,-0.7861,0.0,0.0,0.0,0.0,0.0,0.0,0.0,0.0,0.0,0.0,0.0,0.0,0.0,0.0,0.0,0.0,0.0,0.0,0.0,0.0,0.0,0.0,0.0,0.0,0.0,0.0,0.0,0.0,0.0,0.0,0.0,0.0,0.0,0.0,0.0,0.0,0.0,0.0,0.0,0.0,0.0,0.0,0.0,0.0,0.0,0.0,0.0,0.0,0.0,0.0,0.0,0.0,0.0,0.0,0.0,0.0,-2.4029,-2.4481,-2.4745,-2.482,-2.4833,-2.4626,-2.4288,-2.4288,-2.3717,0.0,0.0,0.0,0.0,0.0,0.0,0.0,0.0,0.0,0.0,0.0,0.0,0.0,0.0,0.0,0.0,0.0,0.0,0.0,0.0,0.0,0.0,0.0,0.0,0.0,0.0,0.0,0.0,0.0,0.0,0.0,0.0,0.0,0.0,0.0,0.0,0.0,0.0,0.0,0.0,0.0,-0.74,-0.755,-0.758,-0.7571,0.0,0.0,-0.8011,-0.8014,-0.8028,0.0,0.0,0.0,0.0,0.0,0.0,0.0,0.0,0.0,0.0,0.0,0.0,0.0,0.0,0.0,0.0,0.0,0.0,0.0,0.0,0.0,0.0,0.0,0.0,0.0,0.0,0.0,0.0,0.0,0.0,0.0,0.0,0.0,0.0,0.0,0.0,0.0,0.0,0.0,0.0,0.0,0.0,0.0,0.0,0.0,0.0,0.0,0.0,0.0,0.0,0.0,0.0,0.0,0.0,0.0,-2.4621,-2.4883,-2.5134,-2.5423,-2.5737,-2.5749,-2.5615,-2.521,-2.521,-2.4614,0.0,0.0,0.0,0.0,0.0,0.0,0.0,0.0,0.0,0.0,0.0,0.0,0.0,0.0,0.0,0.0,0.0,0.0,0.0,0.0,0.0,0.0,0.0,0.0,0.0,0.0,0.0,0.0,0.0,0.0,0.0,0.0,0.0,0.0,0.0,0.0,0.0,0.0,0.0,0.0,0.0,0.0,-0.7689,-0.7674,0.0,0.0,0.0,-0.8038,-0.8038,0.0,0.0,0.0,0.0,0.0,0.0,0.0,0.0,0.0,0.0,0.0,0.0,0.0,0.0,0.0,0.0,0.0,0.0,0.0,0.0,0.0,0.0,0.0,0.0,0.0,0.0,0.0,0.0,0.0,0.0,0.0,0.0,0.0,0.0,0.0,0.0,0.0,0.0,0.0,0.0,0.0,0.0,0.0,0.0,0.0,0.0,0.0,0.0,0.0,0.0,0.0,0.0,0.0,0.0,0.0,0.0,0.0,-2.5573,-2.5737,-2.6025,-2.6427,-2.6521,-2.6327,-2.591,-2.5923,0.0,0.0,0.0,0.0,0.0,0.0,0.0,0.0,0.0,0.0,0.0,0.0,0.0,0.0,0.0,0.0,0.0,0.0,0.0,0.0,0.0,0.0,0.0,0.0,0.0,0.0,0.0,-0.9063,0.0,0.0,0.0,0.0,0.0,0.0,0.0,0.0,0.0,0.0,0.0,0.0,0.0,0.0,-0.7577,-0.7834,-0.7768,-0.7808,0.0,0.0,-0.7939,-0.7842,-0.7746,-0.7543,0.0,0.0,0.0,0.0,0.0,0.0,0.0,0.0,0.0,0.0,0.0,0.0,0.0,0.0,0.0,0.0,0.0,0.0,0.0,0.0,0.0,0.0,0.0,0.0,0.0,0.0,0.0,0.0,0.0,0.0,0.0,0.0,0.0,0.0,0.0,0.0,0.0,0.0,0.0,0.0,0.0,0.0,0.0,0.0,0.0,0.0,0.0,0.0,0.0,0.0,0.0,0.0,0.0,0.0,0.0,-2.5598,-2.6126,-2.6414,-2.6521,-2.6521,-2.6314,-2.591,-2.5923,-2.5375,0.0,0.0,0.0,0.0,0.0,0.0,0.0,0.0,0.0,0.0,0.0,0.0,0.0,0.0,0.0,0.0,0.0,0.0,0.0,0.0,0.0,0.0,0.0,0.0,0.0,0.0,0.0,0.0,0.0,0.0,0.0,0.0,0.0,0.0,0.0,0.0,0.0,0.0,0.0,0.0,0.0,-0.7838,-0.8001,-0.8024,-0.8028,0.0,0.0,-0.7942,-0.7543,-0.7543,-0.7543,-0.7238,0.0,0.0,0.0,0.0,0.0,0.0,0.0,0.0,0.0,0.0,0.0,0.0,0.0,0.0,0.0,0.0,0.0,0.0,0.0,0.0,0.0,0.0,0.0,0.0,0.0,0.0,0.0,0.0,0.0,0.0,0.0,0.0,0.0,0.0,0.0,0.0,0.0,0.0,0.0,0.0,0.0,0.0,0.0,0.0,0.0,0.0,0.0,0.0,0.0,0.0,0.0,0.0,0.0,-2.5375,-2.6113,-2.6408,-2.6521,-2.6521,-2.6396,-2.6188,-2.591,-2.5758,-2.5451,0.0,0.0,0.0,0.0,0.0,0.0,0.0,0.0,0.0,0.0,0.0,0.0,0.0,0.0,0.0,0.0,0.0,0.0,0.0,0.0,0.0,0.0,0.0,0.0,0.0,0.0,0.0,0.0,-0.8045,-0.7781,-0.7316,0.0,0.0,0.0,0.0,0.0,0.0,0.0,0.0,0.0,0.0,-0.7865,-0.8018,-0.8038,0.0,0.0,-0.7839,-0.7643,-0.7543,-0.7141,-0.6739,-0.6542,-0.6006,0.0,0.0,0.0,0.0,0.0,0.0,0.0,0.0,0.0,0.0,0.0,0.0,0.0,0.0,0.0,0.0,0.0,0.0,0.0,0.0,0.0,0.0,0.0,0.0,0.0,0.0,0.0,0.0,0.0,0.0,0.0,0.0,0.0,0.0,0.0,0.0,0.0,0.0,0.0,0.0,0.0,0.0,0.0,0.0,0.0,0.0,0.0,0.0,0.0,0.0,0.0,0.0,-2.5523,-2.6508,-2.6521,-2.6465,-2.6396,-2.627,-2.6062,-2.5828,-2.5676,-2.5477,0.0,0.0,0.0,0.0,0.0,0.0,0.0,0.0,0.0,0.0,0.0,0.0,0.0,0.0,0.0,0.0,0.0,0.0,0.0,0.0,0.0,0.0,0.0,0.0,0.0,0.0,0.0,0.0,-0.7869,-0.7496,-0.7139,0.0,0.0,0.0,0.0,0.0,0.0,0.0,0.0,0.0,0.0,-0.7916,-0.8024,-0.8038,-0.8038,-0.8038,-0.7743,-0.7547,-0.7241,-0.667,-0.6191,-0.579,0.0,0.0,0.0,0.0,0.0,0.0,0.0,0.0,0.0,0.0,0.0,0.0,0.0,0.0,0.0,0.0,0.0,0.0,0.0,0.0,0.0,0.0,0.0,0.0,0.0,0.0,0.0,0.0,0.0,0.0,-2.5255,0.0,0.0,0.0,0.0,0.0,0.0,0.0,0.0,0.0,0.0,0.0,0.0,0.0,0.0,0.0,0.0,0.0,0.0,0.0,0.0,0.0,0.0,-2.5862,-2.6508,-2.6521,-2.6396,-2.6201,-2.6213,-2.598,-2.5618,-2.5606,-2.5394,-2.5123,0.0,0.0,0.0,0.0,0.0,0.0,0.0,0.0,0.0,0.0,0.0,0.0,0.0,0.0,0.0,0.0,0.0,0.0,0.0,0.0,0.0,0.0,0.0,0.0,0.0,0.0,-0.7921,-0.7408,-0.7139,0.0,0.0,0.0,0.0,0.0,0.0,0.0,0.0,0.0,0.0,-0.7936,-0.8035,-0.8038,-0.8038,-0.8041,-0.8041,-0.7746,-0.7347,-0.6545,-0.6235,-0.5901,0.0,0.0,0.0,0.0,0.0,0.0,0.0,0.0,0.0,0.0,0.0,0.0,0.0,0.0,0.0,0.0,0.0,0.0,0.0,0.0,0.0,0.0,0.0,0.0,0.0,0.0,0.0,-2.7748,-2.7069,0.0,0.0,0.0,0.0,0.0,0.0,0.0,0.0,0.0,0.0,0.0,-2.5858,-2.5165,0.0,0.0,0.0,0.0,0.0,0.0,0.0,0.0,0.0,0.0,0.0,0.0,-2.5875,-2.6427,-2.6521,-2.6396,-2.6201,-2.6062,-2.584,-2.5382,-2.5312,-2.5159,-2.4895,0.0,0.0,0.0,0.0,0.0,0.0,0.0,0.0,0.0,0.0,0.0,0.0,0.0,0.0,0.0,0.0,0.0,0.0,0.0,0.0,0.0,0.0,0.0,0.0,0.0,-0.8484,0.0,0.0,0.0,0.0,0.0,0.0,0.0,0.0,0.0,0.0,0.0,-0.7814,-0.7814,-0.7943,-0.8038,-0.8038,-0.8038,-0.7975,0.0,0.0,0.0,0.0,0.0,0.0,0.0,0.0,0.0,0.0,0.0,0.0,0.0,0.0,-0.2719,-0.3139,-0.314,-0.2932,-0.2616,0.0,0.0,0.0,0.0,0.0,0.0,0.0,0.0,0.0,0.0,0.0,0.0,0.0,0.0,-2.8312,0.0,-2.7113,0.0,0.0,0.0,0.0,0.0,0.0,0.0,0.0,-2.5569,-2.5937,-2.6437,-2.5734,-2.5385,0.0,-2.5586,-2.5674,0.0,0.0,0.0,0.0,0.0,0.0,0.0,0.0,-2.6276,-2.6992,-2.6784,-2.6631,-2.6618,-2.6463,-2.6165,-2.572,-2.5252,-2.4915,-2.463,-2.3653,-2.2306,0.0,0.0,0.0,0.0,0.0,0.0,0.0,0.0,0.0,0.0,0.0,0.0,0.0,0.0,0.0,0.0,0.0,0.0,0.0,0.0,0.0,0.0,0.0,-0.8341,0.0,0.0,0.0,0.0,0.0,0.0,0.0,0.0,0.0,-0.7675,-0.7801,-0.7889,-0.7892,-0.7977,-0.8038,-0.8038,0.0,0.0,0.0,0.0,0.0,0.0,0.0,-0.4402,-0.3975,-0.335,-0.2822,-0.217,-0.217,-0.217,-0.2278,0.0,0.0,-0.2457,-0.2559,-0.2452,-0.2239,-0.2142,-0.2043,-0.1936,-0.1514,-0.1086,0.0,0.0,0.0,0.0,0.0,0.0,0.0,0.0,-2.9969,-2.9458,0.0,-2.8253,0.0,0.0,0.0,0.0,0.0,-2.8059,0.0,0.0,-2.7039,-2.703,-2.6609,-2.6584,-2.6571,-2.6553,-2.703,-2.7281,-2.7231,-2.6214,0.0,0.0,0.0,0.0,0.0,0.0,-2.7042,-2.8021,-2.7366,-2.7149,-2.7471,-2.7261,-2.6974,-2.651,-2.5501,-2.4687,-2.42,-2.3296,-2.2069,-2.0718,-2.0991,0.0,0.0,0.0,0.0,0.0,0.0,0.0,0.0,0.0,0.0,0.0,0.0,0.0,0.0,0.0,0.0,0.0,0.0,0.0,0.0,-0.8714,0.0,0.0,0.0,0.0,0.0,0.0,0.0,0.0,0.0,0.0,-0.7818,-0.7946,-0.8038,-0.8035,0.0,0.0,0.0,0.0,-0.8173,-0.7975,-0.7565,-0.6373,-0.4037,-0.3992,-0.3934,-0.317,0.0,0.0,-0.1794,-0.1794,-0.1793,-0.1794,-0.1791,-0.1887,-0.2042,-0.1927,-0.1713,-0.1713,-0.1734,-0.1641,-0.1646,-0.1662,-0.1343,-3.4621,0.0,0.0,0.0,0.0,-3.2613,-3.2291,-3.1729,-3.1297,-3.0679,-3.0025,-2.9289,0.0,0.0,0.0,0.0,0.0,0.0,-2.7923,-2.7638,-2.7846,-2.7783,-2.7645,-2.7632,-2.7632,-2.7645,-2.7795,-2.7871,-2.7858,-2.7544,-2.7394,-2.7394,0.0,0.0,0.0,0.0,-2.7795,-2.8084,-2.7752,-2.752,-2.752,-2.7148,-2.6697,-2.6012,-2.5413,-2.4637,-2.3827,-2.3424,-2.2897,-2.201,-2.164,0.0,0.0,0.0,0.0,0.0,0.0,0.0,0.0,0.0,0.0,0.0,0.0,0.0,0.0,0.0,0.0,0.0,0.0,0.0,-0.9005,-0.8573,-0.8085,0.0,0.0,0.0,0.0,0.0,0.0,0.0,0.0,0.0,-0.796,-0.8011,-0.8038,0.0,0.0,-0.7893,-0.789,-0.7814,-0.7731,-0.7621,0.0,0.0,0.0,-0.3544,-0.3226,-0.2672,-0.2236,-0.1683,-0.0673,-0.0897,-0.1121,-0.1121,-0.1121,-0.1229,-0.1219,-0.1548,-0.1658,-0.1328,-0.1443,-0.1782,-0.1672,-0.1118,-0.0,-3.5235,-3.4277,-3.4307,-3.3988,-3.3609,-3.3561,-3.302,-3.2198,-3.1758,-3.1249,-3.0551,-2.9821,-2.9412,-2.9221,-2.906,0.0,0.0,0.0,-2.8774,-2.8796,-2.8547,-2.8571,-2.8753,-2.8344,-2.8109,-2.8109,-2.8335,-2.8436,-2.8436,-2.8662,-2.8775,-2.875,0.0,0.0,-2.8312,-2.821,-2.8335,-2.875,-2.8263,-2.8026,-2.8147,-2.756,-2.7018,-2.629,-2.5622,-2.5079,-2.4803,-2.3854,-2.3184,-2.2778,-2.2119,-2.1475,0.0,0.0,0.0,0.0,0.0,0.0,0.0,0.0,0.0,0.0,0.0,-1.3251,0.0,0.0,0.0,0.0,-1.1027,-1.0022,-0.8766,-0.8497,0.0,0.0,0.0,0.0,0.0,0.0,0.0,-0.7882,-0.7899,-0.7933,-0.8028,-0.8092,-0.813,-0.813,-0.7899,-0.7766,-0.7924,0.0,-0.7437,-0.7194,-0.6478,-0.531,-0.3687,-0.3246,-0.2914,-0.2243,-0.1795,-0.1121,-0.0224,-0.0336,-0.0561,-0.0561,-0.0785,-0.0897,-0.0897,-0.1346,-0.1683,-0.1346,-0.1121,-0.1121,-0.1121,-0.0,-0.0,-3.5754,-3.5654,-3.5609,-3.5046,-3.4278,-3.41,-3.344,-3.2292,-3.1782,-3.135,-3.0989,-3.01,-2.9822,-3.0152,-2.9946,0.0,-2.9779,-2.9779,-2.9757,-2.9782,-2.9252,-2.9263,-2.9766,-2.8743,-2.8247,-2.826,-2.875,-2.9001,-2.9026,-2.9528,-2.9779,-2.9754,-2.8762,-2.8387,-2.8725,-2.8399,-2.875,-2.9767,-2.887,-2.8549,-2.8961,-2.8271,-2.7626,-2.7174,-2.6102,-2.5791,-2.6349,-2.4399,-2.3155,-2.3084,-2.2561,-2.1914,-2.1303,0.0,0.0,0.0,0.0,0.0,0.0,0.0,0.0,0.0,0.0,0.0,0.0,0.0,0.0,0.0,-1.0679,0.0,-0.8909,-0.8627,0.0,0.0,0.0,-0.7831,-0.7831,-0.7828,-0.7885,-0.8021,0.0,0.0,-0.8058,0.0,-0.8279,-0.8299,-0.7991,-0.7827,-0.796,-0.7559,-0.7211,-0.6896,-0.6208,-0.5037,-0.3467,-0.3024,-0.2689,-0.2019,-0.1346,-0.0785,-0.0,-0.0,-0.0,-0.0,-0.0448,-0.0785,-0.0785,-0.1234,-0.1683,-0.157,-0.0785,-0.0,-0.0,-0.0,-0.0,-3.7091,-3.6926,-3.6447,-3.5666,-3.4779,-3.4684,-3.4228,-3.3493,-3.3055,-3.2569,-3.1969,-3.1368,-3.0799,-3.0292,-3.0152,-2.9946,-2.9779,-2.9779,-2.9819,-2.982,-2.9603,-2.9655,-2.9783,-2.9529,-2.939,-2.9402,-2.9515,-2.9591,-2.9591,-2.9729,-2.9779,-2.9779,-2.9515,-2.9453,-2.9553,-2.944,-2.9515,-2.9779,-2.9176,-2.8694,-2.8191,-2.7788,-2.736,-2.6798,-2.6119,-2.5703,-2.5559,-2.4502,-2.3689,-2.3137,-2.2699,-2.2194,-2.1665,-2.1109,0.0,0.0,0.0,0.0,0.0,0.0,0.0,0.0,0.0,-1.4402,-1.4461,0.0,-1.3719,0.0,-1.1087,-0.9968,-0.9225,-0.8829,0.0,0.0,-0.7984,-0.7984,-0.7984,-0.7984,-0.8001,-0.8035,-0.8038,-0.8085,-0.8201,-0.8248,-0.8353,-0.8567,-0.8172,-0.7758,-0.7582,-0.7147,-0.6785,-0.6458,-0.5695,-0.4704,-0.3585,-0.269,-0.2019,-0.1795,-0.1683,-0.1234,-0.0,-0.0,-0.0,-0.0,-0.0112,-0.0224,-0.0,-0.0336,-0.0,-0.0448,-0.0224,-0.0,-0.0,-0.0,-0.0,-3.7488,-3.7389,-3.703,-3.6469,-3.5775,-3.5185,-3.4549,-3.3911,-3.3507,-3.2988,-3.2372,-3.1643,-3.0986,-3.0444,-3.0228,-3.0011,-2.9792,-2.9779,-2.9779,-2.9779,-2.9779,-2.9779,-2.9779,-2.9779,-2.9779,-2.9779,-2.9779,-2.9779,-2.9779,-2.9779,-2.9779,-2.9779,-2.9779,-2.9779,-2.9779,-2.9779,-2.9779,-2.9792,-2.93,-2.8749,-2.7973,-2.7615,-2.7115,-2.6456,-2.5884,-2.5507,-2.5168,-2.4323,-2.3647,-2.3134,-2.2891,-2.262,-2.2274,-2.1617,-2.0874,0.0,0.0,0.0,0.0,0.0,0.0,0.0,0.0,0.0,0.0,0.0,-1.4054,-1.2734,-1.122,-1.0117,-0.943,-0.8931,-0.8531,-0.8237,-0.8038,-0.8038,-0.8038,-0.8038,-0.8065,-0.8133,-0.8143,-0.8197,-0.8343,-0.8421,-0.8523,-0.8477,-0.8112,-0.7822,-0.761,-0.7008,-0.6495,-0.6274,-0.5375,-0.4369,-0.3365,-0.2468,-0.1683,-0.1458,-0.1346,-0.1121,-0.0,-0.0,-0.0,-0.0,-0.0,-0.0,-0.0,-0.0,-0.0,-0.0,-0.0,-0.0,-0.0,-0.0,-0.0,-3.7674,-3.7659,-3.7569,-3.7278,-3.6925,-3.5633,-3.4714,-3.4139,-3.3733,-3.3153,-3.2545,-3.1721,-3.1044,-3.0573,-3.0445,-3.0226,-2.9993,-2.9993,-2.998,-2.998,-2.9993,-3.0005,-3.0096,-3.0018,-2.9967,-2.9905,-2.9905,-2.9867,-2.9792,-2.9779,-2.9779,-2.9779,-2.9779,-2.9779,-2.9779,-2.9779,-2.9792,-2.9714,-2.93,-2.8749,-2.7881,-2.7603,-2.7092,-2.6185,-2.5527,-2.5179,-2.506,-2.4084,-2.3387,-2.3153,-2.3115,-2.2969,-2.2794,-2.2187,-2.1528,0.0,-1.9852,0.0,0.0,0.0,0.0,0.0,0.0,0.0,0.0,-1.4833,-1.4181,-1.2549,-1.1296,-1.0314,-0.9727,-0.9027,-0.8531,-0.8432,-0.8237,-0.8045,-0.8065,-0.8065,-0.813,-0.8279,-0.8296,-0.8353,-0.8496,-0.8632,-0.8602,-0.8429,-0.8188,-0.8029,-0.7928,-0.7046,-0.6274,-0.6272,-0.5266,-0.4033,-0.3029,-0.2244,-0.1683,-0.1121,-0.0897,-0.0561,-0.0,-0.0,-0.0,-0.0,-0.0,-0.0,-0.0,-0.0,-0.0,-0.0,-0.0,-0.0,-0.0,-0.0,-0.0,-3.9035,-3.899,-3.824,-3.789,-3.7632,-3.6499,-3.5653,-3.5067,-3.4862,-3.4154,-3.3122,-3.2968,-3.2437,-3.1752,-3.1765,-3.1512,-3.1085,-3.1085,-3.0954,-3.0692,-3.0954,-3.1241,-3.1516,-3.1241,-3.0859,-3.0482,-3.0457,-3.0231,-2.9792,-2.9779,-2.9779,-2.9779,-2.9779,-2.9779,-2.9779,0.0,0.0,0.0,-2.9131,-2.8736,-2.7881,-2.7441,-2.694,-2.6185,-2.5359,0.0,-2.4643,-2.3891,-2.3406,-2.3125,-2.3135,0.0,0.0,0.0,0.0,0.0,0.0,0.0,0.0,0.0,0.0,0.0,-1.6102,-1.5678,-1.536,-1.441,-1.3476,-1.2759,-1.1683,-1.0703,-1.0019,-0.9624,-0.913,-0.8432,-0.8333,-0.8282,-0.8208,-0.8225,-0.8282,-0.8421,-0.8445,-0.8499,-0.8642,-0.8696,-0.8757,-0.8759,-0.8582,-0.8263,-0.8045,-0.7049,-0.6272,-0.6161,-0.5043,-0.3813,-0.2806,-0.2244,-0.1795,-0.157,-0.0785,-0.0224,-0.0,-0.0,-0.0,-0.0,-0.0,-0.0,-0.0,-0.0,-0.0,-0.0,-0.0,-0.0,-0.0,-0.0,-0.0,-3.9337,0.0,-3.8748,-3.847,0.0,-3.7536,-3.6907,-3.6362,-3.5349,-3.4362,-3.3301,-3.3301,-3.2843,-3.2085,-3.2085,-3.183,-3.1386,-3.1386,-3.1386,-3.148,-3.1386,-3.1625,-3.1952,-3.1625,-3.1248,-3.0997,-3.0997,-3.0846,-3.0583,-3.0583,-3.0583,-3.0583,-3.057,-3.0311,-2.9782,-2.9791,-2.9551,-2.9143,-2.9143,-2.8749,-2.7962,-2.7452,-2.6857,-2.6041,0.0,0.0,0.0,0.0,0.0,0.0,0.0,0.0,0.0,0.0,0.0,-2.1262,-2.0625,-1.9737,-1.8767,-1.8092,-1.7636,-1.7091,-1.6296,-1.5527,-1.4937,-1.3998,-1.3335,-1.2953,-1.198,-1.1194,-1.0605,-1.0023,-0.9426,-0.9034,-0.8707,-0.8487,-0.8463,-0.8436,-0.8431,-0.8564,-0.8598,-0.8652,-0.8804,-0.8821,-0.8849,-0.8923,-0.8709,-0.8374,-0.8045,-0.7271,-0.6604,-0.5933,-0.4819,-0.3813,-0.3027,-0.2356,-0.1907,-0.1683,-0.1009,-0.0448,-0.0,-0.0,-0.0,-0.0,-0.0,-0.0,-0.0,-0.0,-0.0,-0.0,-0.0,-0.0,-0.0,-0.0,-0.0,-3.9265,-3.9104,-3.9031,-3.8811,-3.8441,-3.8217,-3.7839,-3.7309,0.0,0.0,0.0,-3.3607,-3.3159,-3.2367,-3.238,-3.211,-3.1687,-3.1675,-3.1845,-3.2136,-3.1845,-3.1845,-3.2124,-3.1833,-3.1637,-3.1537,-3.1537,-3.1486,-3.1386,-3.1386,-3.1386,-3.1386,-3.1386,-3.0954,-3.0131,-3.0047,-2.9868,-2.9438,-2.9217,-2.8736,-2.7893,-2.7452,-2.6787,-2.5979,-2.5285,-2.4605,-2.3937,-2.3667,-2.3416,-2.3242,-2.3144,-2.3144,-2.3057,-2.2706,-2.2274,-2.183,-2.1105,-2.0292,-1.9379,-1.8819,-1.8172,-1.734,-1.64,-1.5425,-1.4333,-1.3896,-1.3437,-1.3152,-1.2268,-1.1688,-1.1194,-1.0452,-0.9772,-0.9677,-0.9229,-0.8929,-0.8763,-0.8654,-0.8687,-0.872,-0.875,-0.8794,-0.8913,-0.893,-0.8937,-0.8937,-0.8712,-0.8377,-0.8045,-0.749,-0.6599,-0.5596,-0.4706,-0.3923,-0.325,-0.2691,-0.2243,-0.1795,-0.1346,-0.0785,-0.0,-0.0,-0.0,-0.0,-0.0,-0.0,-0.0,-0.0,-0.0,-0.0,-0.0,-0.0,-0.0,-0.0,-0.0,-3.9104,-3.909,-3.8738,-3.8427,-3.8202,-3.7839,-3.724,-3.6522,-3.5514,-3.4982,-3.4832,-3.4669,-3.4175,-3.3495,-3.3482,-3.3255,-3.2842,-3.2842,-3.2842,0.0,-3.2855,-3.2855,-3.2965,-3.2855,-3.2579,-3.2127,-3.2102,-3.1851,-3.1436,-3.1399,-3.1386,-3.1399,-3.1386,-3.1361,-3.1204,-3.1179,-3.0979,-3.0532,-2.961,-2.8736,-2.7893,-2.7441,-2.6857,-2.6196,-2.5369,-2.4786,-2.4368,-2.3841,-2.3513,-2.3523,-2.3232,-2.3144,-2.3057,-2.2823,-2.2479,-2.2008,-2.1195,-2.0473,-1.9837,-1.9188,-1.8373,-1.7377,-1.6595,-1.5609,-1.4435,-1.4178,-1.3913,-1.3147,-1.2764,-1.2273,-1.1306,-1.0966,-1.0554,-0.9965,-0.9709,-0.9553,-0.9147,-0.9083,-0.9057,-0.8876,-0.8906,-0.8903,-0.893,-0.8937,-0.8937,-0.8937,-0.8823,-0.8605,-0.8045,-0.7268,-0.649,-0.5596,-0.5039,-0.4482,-0.3699,-0.3027,-0.2468,-0.1907,-0.1683,-0.1234,-0.0,-0.0,-0.0,-0.0,-0.0,-0.0,-0.0,-0.0,-0.0,-0.0,-0.0,-0.0,-0.0,-0.0,-0.0,-3.9031,-3.887,-3.8516,-3.8217,-3.8005,-3.7739,-3.7013,-3.5951,-3.5372,-3.5062,-3.5072,-3.4743,-3.4243,-3.3725,-3.3556,-3.3398,-3.3081,-3.3081,-3.3081,-3.3081,-3.3081,-3.3081,-3.3081,-3.3081,-3.293,-3.2692,-3.2679,-3.2554,-3.2328,-3.2303,-3.2303,-3.2303,-3.2303,-3.2152,-3.1863,-3.2129,-3.1825,-3.079,-3.0286,-2.9609,-2.8704,-2.7997,-2.7349,-2.669,-2.5604,-2.4861,-2.454,-2.3937,-2.3677,-2.361,-2.3232,-2.3144,-2.3057,-2.2832,-2.2489,-2.2097,-2.1284,-2.0645,-2.011,-1.9188,-1.8272,-1.7362,-1.6777,-1.6103,-1.5134,-1.4573,-1.4106,-1.3539,-1.3158,-1.2618,-1.2038,-1.1558,-1.1051,-1.0536,-1.0297,-1.0012,-0.9666,-0.9439,-0.93,-0.9144,-0.9047,-0.8937,-0.8937,-0.8937,-0.8937,-0.8937,-0.8823,-0.8598,-0.8266,-0.7712,-0.6937,-0.6044,-0.5487,-0.4817,-0.4036,-0.3477,-0.2917,-0.2131,-0.1907,-0.1458,-0.0673,-0.0224,-0.0,-0.0,-0.0,-0.0,-0.0,-0.0,-0.0,-0.0,-0.0,-0.0,-0.0,-0.0,-0.0,-3.9092,-3.8869,-3.835,-3.7991,-3.7639,-3.7452,-3.6702,-3.571,-3.521,-3.4979,-3.4908,-3.4481,-3.4147,-3.3713,-3.3471,-3.3326,-3.3167,-3.3081,-3.3081,-3.3081,-3.3081,-3.3081,-3.3081,-3.3081,-3.3081,-3.3081,-3.3081,-3.3081,-3.3081,-3.3081,-3.3081,-3.3081,-3.3081,-3.2842,-3.2416,-3.2857,-3.2487,-3.1267,-3.1146,-3.0579,-2.9385,-2.8649,-2.7957,-2.7178,-2.6227,-2.538,-2.4878,-2.4252,-2.3864,-2.361,-2.3319,-2.3144,-2.3057,-2.2823,-2.2479,-2.2195,-2.1454,-2.0736,-2.011,-1.9096,-1.8172,-1.7535,-1.6965,-1.6427,-1.6027,-1.5159,-1.4485,-1.4104,-1.3539,-1.3139,-1.2846,-1.2243,-1.1718,-1.1259,-1.0797,-1.0477,-1.0174,-0.9847,-0.9485,-0.9379,-0.9161,-0.9047,-0.8937,-0.8937,-0.8937,-0.8826,-0.8709,-0.8595,-0.8484,-0.8045,-0.7382,-0.6604,-0.5931,-0.526,-0.437,-0.3811,-0.325,-0.2468,-0.2019,-0.1683,-0.1121,-0.0561,-0.0,-0.0,-0.0,-0.0,-0.0,-0.0,-0.0,-0.0,-0.0,-0.0,-0.0,-0.0,-0.0,-3.9484,-3.9092,-3.8265,-3.761,-3.7084,-3.6678,-3.6236,-3.5642,-3.4788,-3.4459,-3.4481,-3.4243,-3.3979,-3.3713,-3.3484,-3.3326,-3.3081,-3.3081,-3.3081,-3.3081,-3.3081,-3.3081,-3.3081,-3.3081,-3.3081,-3.3081,-3.3081,-3.3081,-3.3081,-3.3081,-3.3081,-3.3081,-3.3081,-3.3056,-3.2993,-3.3104,-3.2809,-3.2253,-3.2253,-3.1319,-2.9541,-2.9118,-2.8666,-2.7939,-2.7195,-2.6528,-2.5783,-2.4886,-2.4253,-2.3804,-2.3339,-2.3057,-2.3067,-2.2715,-2.2441,-2.2353,-2.1535,-2.0645,-1.977,-1.892,-1.8388,-1.8047,-1.7203,-1.6647,-1.6531,-1.6044,-1.5433,-1.4771,-1.4376,-1.399,-1.3518,-1.3091,-1.257,-1.2,-1.141,-1.0992,-1.0655,-1.0355,-1.0036,-0.9489,-0.9379,-0.9268,-0.9047,-0.8937,-0.8937,-0.8937,-0.8826,-0.8712,-0.8595,-0.8266,-0.7823,-0.7157,-0.6379,-0.5708,-0.515,-0.4257,-0.3586,-0.3026,-0.2355,-0.1907,-0.1458,-0.0,-0.0,-0.0,-0.0,-0.0,-0.0,-0.0,-0.0,-0.0,-0.0,-0.0,-0.0,-0.0,-0.0,-3.9989,-3.9619,-3.8609,-3.7408,-3.6325,-3.6358,-3.5927,-3.5072,-3.431,-3.4087,-3.4147,-3.3823,-3.3641,-3.3471,-3.3313,-3.3154,-3.3081,-3.3081,-3.3081,-3.3081,-3.3081,-3.3081,-3.3081,-3.3081,-3.3081,-3.3081,-3.3081,-3.3081,-3.3081,-3.3081,-3.3081,-3.3081,-3.3081,-3.3081,-3.3081,-3.3081,-3.2896,-3.2562,-3.2475,-3.1807,-3.0775,-2.9945,-2.9183,-2.8432,-2.7468,-2.6797,-2.626,-2.5447,-2.4826,-2.4556,-2.3699,-2.3194,-2.3535,-2.3051,-2.2659,-2.2381,-2.1544,-2.0732,-2.0138,-1.9503,-1.8918,-1.8134,-1.7688,-1.7176,-1.6776,-1.6315,-1.5995,-1.5834,-1.5236,-1.4546,-1.3964,-1.3661,-1.3128,-1.2402,-1.2068,-1.1673,-1.1021,-1.0692,-1.0363,-0.9926,-0.9599,-0.9379,-0.9158,-0.9047,-0.8937,-0.8937,-0.8937,-0.8826,-0.8712,-0.8488,-0.8156,-0.7709,-0.7043,-0.6265,-0.5594,-0.4815,-0.4145,-0.3475,-0.2805,-0.2244,-0.1795,-0.1121,-0.0,-0.0112,-0.0,-0.0,-0.0,-0.0,-0.0,-0.0,-0.0,-0.0,-0.0,-0.0,-0.0,-4.0473,-3.9989,-3.8776,-3.7437,-3.6212,-3.6062,-3.5597,-3.487,-3.403,-3.374,-3.3907,-3.3569,-3.3398,-3.3326,-3.3154,-3.3081,-3.3081,-3.3081,-3.3081,-3.3081,-3.3081,-3.3081,-3.3081,-3.3081,-3.3081,-3.3081,-3.3081,-3.3081,-3.3081,-3.3081,-3.3081,-3.3081,-3.3081,-3.3081,-3.3081,-3.3081,-3.2982,-3.2723,-3.2463,-3.2125,-3.1601,-3.0685,-2.9889,-2.9128,-2.8085,-2.7295,-2.6806,-2.5991,-2.5483,-2.5178,-2.4074,-2.3645,-2.3884,-2.3664,-2.3167,-2.2541,-2.178,-2.1072,-2.0592,-2.0145,-1.9478,-1.8709,-1.8277,-1.7711,-1.7048,-1.6807,-1.6668,-1.6698,-1.6156,-1.5415,-1.4721,-1.4234,-1.3672,-1.296,-1.2659,-1.2114,-1.1568,-1.1131,-1.0692,-1.0366,-0.9926,-0.9596,-0.9379,-0.9158,-0.8937,-0.8937,-0.8937,-0.8937,-0.8826,-0.8709,-0.8377,-0.8045,-0.7601,-0.6935,-0.5819,-0.5262,-0.4704,-0.3923,-0.3139,-0.2579,-0.2019,-0.1346,-0.0785,-0.0,-0.0,-0.0,-0.0,-0.0,-0.0,-0.0,-0.0,-0.0,-0.0,-0.0,-0.0,-4.0833,-4.0228,-3.8547,-3.7672,-3.7294,-3.5862,-3.5227,-3.5221,-3.4108,-3.3636,-3.3522,-3.3386,-3.3326,-3.3167,-3.3081,-3.3081,-3.3081,-3.3081,-3.3081,-3.3081,-3.3081,-3.3081,-3.3081,-3.3081,-3.3081,-3.3081,-3.3081,-3.3081,-3.3081,-3.3081,-3.3081,-3.3081,-3.3081,-3.3081,-3.3081,-3.3081,-3.2982,-3.2723,-3.2475,-3.2213,-3.1761,-3.1205,-3.0554,-2.9897,-2.9246,-2.8407,-2.7409,-2.6815,-2.6177,-2.5219,-2.469,-2.4365,-2.4385,-2.4331,-2.383,-2.3037,-2.2465,-2.1821,-2.1092,-2.0611,-2.0095,-1.9701,-1.8904,-1.8131,-1.7666,-1.7524,-1.7365,-1.7226,-1.6983,-1.6673,-1.5831,-1.5079,-1.4449,-1.4051,-1.3088,-1.255,-1.2327,-1.1564,-1.1017,-1.0692,-1.0366,-0.9926,-0.9489,-0.9158,-0.8937,-0.8937,-0.8937,-0.8937,-0.8826,-0.8709,-0.8374,-0.8152,-0.7712,-0.7274,-0.6383,-0.571,-0.5039,-0.4258,-0.3587,-0.2802,-0.2242,-0.1683,-0.1009,-0.0448,-0.0,-0.0,-0.0,-0.0,-0.0,-0.0,-0.0,-0.0,-0.0,-0.0,-0.0,-4.0879,-3.9774,-3.8679,-3.7781,-3.6989,-3.6439,-3.5926,-3.5522,-3.4005,-3.353,-3.3756,-3.3404,-3.3154,-3.3081,-3.3081,-3.3081,-3.3081,-3.3081,-3.3081,-3.3081,-3.3081,-3.3081,-3.3081,-3.3081,-3.3081,-3.3081,-3.3081,-3.3081,-3.3081,-3.3081,-3.3081,-3.3081,-3.3081,-3.3081,-3.3081,-3.3081,-3.3081,-3.2896,-3.2562,-3.23,-3.2125,-3.1419,-3.0793,-3.0318,-2.9485,-2.8669,-2.7753,-2.7285,-2.6753,-2.6023,-2.5575,-2.5143,-2.4834,-2.4311,-2.3794,-2.3402,-2.265,-2.2092,-2.1836,-2.1195,-2.0743,-2.0498,-1.9664,-1.8826,-1.8219,-1.795,-1.7698,-1.7457,-1.7279,-1.6961,-1.6418,-1.5779,-1.5137,-1.4277,-1.3846,-1.3197,-1.255,-1.211,-1.1673,-1.1021,-1.0476,-0.9816,-0.9489,-0.9047,-0.8937,-0.8937,-0.8937,-0.8937,-0.8937,-0.8823,-0.8602,-0.8374,-0.8045,-0.7604,-0.6937,-0.6156,-0.5373,-0.4704,-0.3923,-0.3251,-0.258,-0.2019,-0.1346,-0.0785,-0.0448,-0.0,-0.0,-0.0,-0.0,-0.0,-0.0,-0.0,-0.0,-0.0,-0.0,-4.0605,-3.9416,-3.8782,-3.8027,-3.7241,-3.7144,-3.6671,-3.575,-3.4654,-3.425,-3.4237,-3.3859,-3.352,-3.3357,-3.3345,-3.3232,-3.3093,-3.3081,-3.3081,-3.3081,-3.3081,-3.3081,-3.3081,-3.3081,-3.3081,-3.3081,-3.3081,-3.3081,-3.3081,-3.3081,-3.3081,-3.3081,-3.3081,-3.3081,-3.3081,-3.3081,-3.3081,-3.2995,-3.2723,-3.2487,-3.2313,-3.1596,-3.105,-3.0578,-2.9772,-2.8943,-2.8196,-2.7831,-2.7272,-2.6592,-2.6294,-2.5962,-2.5283,-2.4526,-2.4079,-2.3985,-2.3126,-2.2558,-2.2403,-2.1769,-2.12,-2.0956,-2.0212,-1.9457,-1.8527,-1.822,-1.801,-1.7694,-1.7483,-1.7166,-1.6842,-1.6418,-1.5779,-1.4815,-1.439,-1.3954,-1.3088,-1.2654,-1.2001,-1.1236,-1.0472,-0.9926,-0.9596,-0.9265,-0.9047,-0.8937,-0.8937,-0.8937,-0.8937,-0.8937,-0.8823,-0.8484,-0.8156,-0.7823,-0.7271,-0.6492,-0.5599,-0.4929,-0.4258,-0.3589,-0.2805,-0.2243,-0.1683,-0.1234,-0.0,-0.0,-0.0,-0.0,-0.0,-0.0,-0.0,-0.0,-0.0,-0.0,-0.0,-4.0156,-3.9339,-3.9011,-3.8379,-3.786,-3.7715,-3.704,-3.6067,-3.6122,-3.5545,-3.4816,-3.465,-3.4299,-3.3985,-3.3909,-3.3633,-3.3294,-3.3206,-3.3131,-3.3081,-3.3081,-3.3081,-3.3081,-3.3081,-3.3081,-3.3081,-3.3081,-3.3081,-3.3081,-3.3081,-3.3081,-3.3081,-3.3081,-3.3081,-3.3081,-3.3081,-3.3081,-3.3081,-3.281,-3.255,-3.24,-3.1937,-3.1306,-3.0668,-3.0148,-2.9416,-2.8488,-2.8333,-2.7673,-2.6805,-2.6886,-2.6724,-2.5703,-2.513,-2.4875,-2.4632,-2.389,-2.3311,-2.2902,-2.219,-2.1489,-2.098,-2.0426,-1.9569,-1.875,-1.8429,-1.8108,-1.7687,-1.7582,-1.7477,-1.7173,-1.6849,-1.6318,-1.5577,-1.4826,-1.4277,-1.3954,-1.3088,-1.211,-1.1236,-1.0692,-1.0253,-0.9812,-0.9485,-0.9268,-0.9047,-0.8937,-0.8937,-0.8937,-0.8937,-0.8823,-0.8598,-0.8266,-0.7937,-0.7382,-0.6829,-0.5935,-0.5154,-0.4482,-0.3811,-0.3027,-0.2355,-0.2019,-0.1458,-0.0561,-0.0,-0.0,-0.0,-0.0,-0.0,-0.0,-0.0,-0.0,-0.0,-0.0,-3.9719,-3.9216,-3.8652,-3.82,-3.7848,-3.7507,-3.7021,-3.643,-3.6386,-3.5923,-3.5253,-3.4889,-3.4625,-3.45,-3.4462,-3.4361,-3.4186,-3.3834,-3.3458,-3.3156,-3.3093,-3.3081,-3.3081,-3.3081,-3.3081,-3.3081,-3.3081,-3.3081,-3.3081,-3.3081,-3.3081,-3.3081,-3.3081,-3.3081,-3.3081,-3.3081,-3.3081,-3.3068,-3.281,-3.2636,-3.2388,-3.1937,-3.1407,-3.0883,-3.0408,-2.968,-2.8943,-2.8395,-2.7736,-2.7071,-2.6542,-2.6061,-2.5723,-2.5342,-2.5137,-2.4833,-2.4233,-2.3737,-2.3247,-2.2426,-2.186,-2.1399,-2.0648,-1.9813,-1.9121,-1.866,-1.822,-1.7687,-1.7589,-1.7483,-1.7285,-1.7073,-1.6643,-1.5891,-1.5369,-1.4826,-1.4175,-1.3088,-1.2223,-1.1568,-1.0911,-1.0472,-1.0147,-0.971,-0.9379,-0.9268,-0.9047,-0.8937,-0.8937,-0.8937,-0.8937,-0.8712,-0.8494,-0.8159,-0.7715,-0.7049,-0.6272,-0.5489,-0.4706,-0.3923,-0.3139,-0.258,-0.2243,-0.157,-0.0673,-0.0,-0.0,-0.0,-0.0,-0.0,-0.0,-0.0,-0.0,-0.0,-0.0,-3.9617,-3.9258,-3.8487,-3.7939,-3.7585,-3.7214,-3.6841,-3.6602,-3.6451,-3.6168,-3.578,-3.5491,-3.5203,-3.5064,-3.5027,-3.4914,-3.4713,-3.4349,-3.4022,-3.3621,-3.3194,-3.3093,-3.3081,-3.3081,-3.3081,-3.3081,-3.3081,-3.3081,-3.3081,-3.3081,-3.3081,-3.3081,-3.3081,-3.3081,-3.3081,-3.3081,-3.3081,-3.3081,-3.2909,-3.2723,-3.2388,-3.2113,-3.1673,-3.1074,-3.0589,-3.0023,-2.9301,-2.8592,-2.803,-2.7251,-2.6396,-2.5838,-2.5732,-2.543,-2.5137,-2.4843,-2.443,-2.3845,-2.3356,-2.2535,-2.1953,-2.1501,-2.064,-1.9902,-1.9323,-1.8764,-1.8213,-1.7799,-1.7687,-1.7483,-1.7384,-1.7285,-1.6967,-1.6424,-1.5897,-1.5256,-1.4283,-1.3202,-1.2441,-1.1896,-1.1236,-1.0802,-1.0366,-0.993,-0.9489,-0.9379,-0.9158,-0.8937,-0.8937,-0.8937,-0.8937,-0.8826,-0.8602,-0.8269,-0.7934,-0.7268,-0.6495,-0.5822,-0.5039,-0.4143,-0.3249,-0.2803,-0.2468,-0.1458,-0.0561,-0.0,-0.0,-0.0,-0.0,-0.0,-0.0,-0.0,-0.0,-0.0,-0.0,-3.9941,-3.9388,-3.8333,-3.7624,-3.7121,-3.696,-3.6772,-3.6452,-3.6439,-3.6414,-3.6307,-3.6219,-3.6019,-3.5655,-3.5592,-3.5366,-3.4901,-3.4801,-3.4751,-3.4437,-3.3809,-3.3269,-3.3106,-3.3081,-3.3081,-3.3081,-3.3081,-3.3081,-3.3081,-3.3081,-3.3081,-3.3081,-3.3081,-3.3081,-3.3081,-3.3081,-3.3081,-3.3081,-3.3081,-3.2822,-3.2487,-3.2388,-3.195,-3.1163,-3.0781,-3.0306,-2.96,-2.8905,-2.8177,-2.7378,-2.6582,-2.5994,-2.5732,-2.543,-2.5235,-2.4941,-2.444,-2.3945,-2.3347,-2.2736,-2.2038,-2.1563,-2.0719,-1.9879,-1.9383,-1.875,-1.8325,-1.8023,-1.7806,-1.7582,-1.7483,-1.7378,-1.7173,-1.7067,-1.6324,-1.5464,-1.4379,-1.3527,-1.2876,-1.2332,-1.1678,-1.1017,-1.0798,-1.0257,-0.9816,-0.9489,-0.9158,-0.9047,-0.8937,-0.8937,-0.8937,-0.8826,-0.8602,-0.8377,-0.8042,-0.749,-0.6715,-0.6049,-0.5264,-0.4257,-0.3361,-0.2803,-0.2244,-0.1346,-0.0,-0.0,-0.0,-0.0,-0.0,-0.0,-0.0,-0.0,-0.0,-0.0,-0.0,-4.004,-3.919,-3.8553,-3.7787,-3.7147,-3.6973,-3.6678,-3.6465,-3.637,-3.637,-3.637,-3.637,-3.6282,-3.6144,-3.6132,-3.6056,-3.5818,-3.5491,-3.5341,-3.5215,-3.465,-3.3809,-3.3219,-3.3093,-3.3081,-3.3081,-3.3081,-3.3081,-3.3081,-3.3081,-3.3081,-3.3081,-3.3081,-3.3081,-3.3081,-3.3081,-3.3081,-3.3081,-3.3081,-3.2982,-3.2636,-3.2487,-3.2113,-3.1572,-3.1139,-3.051,-2.9783,-2.8779,-2.7999,-2.7311,-2.6739,-2.6207,-2.5732,-2.5635,-2.5342,-2.4941,-2.4735,-2.4341,-2.3546,-2.2937,-2.2342,-2.1554,-2.0822,-2.0101,-1.9376,-1.8743,-1.8331,-1.8135,-1.7806,-1.7589,-1.7582,-1.7483,-1.7272,-1.6842,-1.6318,-1.5565,-1.4708,-1.4169,-1.3521,-1.255,-1.2219,-1.1673,-1.1126,-1.0692,-1.0253,-0.9816,-0.9489,-0.9161,-0.9047,-0.8937,-0.8937,-0.8823,-0.8598,-0.8263,-0.7931,-0.7487,-0.6935,-0.6272,-0.5489,-0.4482,-0.3474,-0.2691,-0.1907,-0.1009,-0.0448,-0.0,-0.0,-0.0,-0.0,-0.0,-0.0,-0.0,-0.0,-0.0,-0.0,-4.0399,-3.9607,-3.8895,-3.8088,-3.7317,-3.7115,-3.6799,-3.649,-3.637,-3.637,-3.637,-3.637,-3.637,-3.637,-3.6358,-3.6358,-3.6307,-3.6031,-3.5906,-3.5793,-3.5316,-3.4322,-3.3483,-3.327,-3.3319,-3.3081,-3.3081,-3.3081,-3.3081,-3.3081,-3.3081,-3.3081,-3.3081,-3.3081,-3.3081,-3.3081,-3.3081,-3.3081,-3.3081,-3.2982,-3.2711,-3.2475,-3.2125,-3.1661,-3.1229,-3.0624,-2.9736,-2.8686,-2.7862,-2.7355,-2.6729,-2.6294,-2.5781,-2.5723,-2.544,-2.4941,-2.4941,-2.4449,-2.3546,-2.3138,-2.2535,-2.164,-2.0925,-2.0308,-1.9687,-1.9056,-1.8548,-1.8338,-1.801,-1.7799,-1.7589,-1.7589,-1.7378,-1.6955,-1.6524,-1.5885,-1.5035,-1.4493,-1.3948,-1.3305,-1.2654,-1.2219,-1.1564,-1.1017,-1.0582,-1.0036,-0.9596,-0.9379,-0.9158,-0.9047,-0.8937,-0.8823,-0.8712,-0.8488,-0.8156,-0.7712,-0.7046,-0.6381,-0.5154,-0.4258,-0.3475,-0.2467,-0.1794,-0.1009,-0.0448,-0.0,-0.0,-0.0,-0.0,-0.0,-0.0,-0.0,-0.0,-0.0,-0.0,-4.0962,-4.0272,-3.9264,-3.8459,-3.7698,-3.7295,-3.6897,-3.6521,-3.6395,-3.637,-3.637,-3.637,-3.637,-3.637,-3.637,-3.637,-3.637,-3.6307,-3.632,-3.6157,-3.578,-3.4936,-3.3945,-3.3734,-3.3608,-3.3269,-3.3144,-3.3081,-3.3081,-3.3081,-3.3081,-3.3081,-3.3081,-3.3081,-3.3081,-3.3081,-3.3081,-3.3081,-3.3081,-3.2982,-3.281,-3.2562,-3.2213,-3.1849,-3.1229,-3.0557,-2.9678,-2.8822,-2.803,-2.7326,-2.6764,-2.6264,-2.5828,-2.5693,-2.543,-2.5039,-2.4941,-2.444,-2.3637,-2.3229,-2.2619,-2.1827,-2.113,-2.0411,-1.9983,-1.9368,-1.8757,-1.8429,-1.8115,-1.7905,-1.7694,-1.7589,-1.7483,-1.7173,-1.6849,-1.6424,-1.569,-1.4826,-1.4277,-1.4169,-1.3197,-1.255,-1.1896,-1.135,-1.0692,-1.0366,-0.9926,-0.9485,-0.9268,-0.9047,-0.8937,-0.8937,-0.8826,-0.8602,-0.8269,-0.7937,-0.7157,-0.627,-0.4817,-0.3813,-0.3141,-0.2244,-0.1682,-0.1009,-0.0448,-0.0,-0.0,-0.0,-0.0,-0.0,-0.0,-0.0,-0.0,-0.0,-0.0,-4.1248,-4.0029,-3.9715,-3.9047,-3.8206,-3.7472,-3.7123,-3.6973,-3.6558,-3.642,-3.637,-3.637,-3.637,-3.637,-3.637,-3.637,-3.637,-3.637,-3.637,-3.6345,-3.627,-3.6117,-3.5373,-3.4577,-3.3872,-3.3621,-3.3257,-3.3093,-3.3081,-3.3081,-3.3081,-3.3081,-3.3081,-3.3081,-3.3081,-3.3081,-3.3081,-3.3081,-3.3081,-3.3081,-3.2982,-3.2649,-3.2313,-3.2125,-3.1217,-3.0568,-2.9919,-2.902,-2.806,-2.7327,-2.6809,-2.636,-2.5828,-2.5693,-2.5528,-2.5235,-2.5039,-2.4637,-2.4035,-2.3438,-2.2937,-2.2123,-2.1538,-2.0933,-2.0086,-1.9576,-1.8959,-1.8527,-1.822,-1.7911,-1.7694,-1.7589,-1.7483,-1.7279,-1.7067,-1.6855,-1.6223,-1.5577,-1.4934,-1.4283,-1.3743,-1.3098,-1.2441,-1.1787,-1.124,-1.0692,-1.0147,-0.9706,-0.9375,-0.9158,-0.9047,-0.8937,-0.8826,-0.8716,-0.8159,-0.7712,-0.6935,-0.6044,-0.4706,-0.3589,-0.2805,-0.2244,-0.157,-0.1009,-0.0448,-0.0,-0.0,-0.0,-0.0,-0.0,-0.0,-0.0,-0.0,-0.0,-0.0,-4.1115,-4.0256,-3.9942,-3.9435,-3.8616,-3.8189,-3.7814,-3.75,-3.6985,-3.6747,-3.6671,-3.6496,-3.637,-3.637,-3.637,-3.637,-3.637,-3.637,-3.637,-3.637,-3.6345,-3.6364,-3.6206,-3.5256,-3.4474,-3.3985,-3.3633,-3.337,-3.3156,-3.3081,-3.3081,-3.3081,-3.3081,-3.3081,-3.3081,-3.3081,-3.3081,-3.3081,-3.3081,-3.3081,-3.3081,-3.2736,-3.23,-3.2025,-3.1229,-3.0659,-3.0102,-2.9276,-2.8308,-2.7495,-2.6989,-2.6542,-2.5905,-2.5674,-2.5528,-2.5333,-2.5039,-2.4637,-2.4134,-2.3637,-2.3038,-2.2325,-2.1843,-2.1138,-2.0403,-1.9672,-1.9042,-1.8527,-1.822,-1.801,-1.7694,-1.7589,-1.7483,-1.7378,-1.7279,-1.7067,-1.6649,-1.6117,-1.5476,-1.4713,-1.4175,-1.3527,-1.2876,-1.2223,-1.1564,-1.1021,-1.0472,-0.9923,-0.9596,-0.9379,-0.9158,-0.8937,-0.8937,-0.8716,-0.8048,-0.7379,-0.6601,-0.571,-0.4706,-0.3701,-0.2806,-0.2244,-0.157,-0.1009,-0.0,-0.0,-0.0,-0.0,-0.0,-0.0,-0.0,-0.0,-0.0,-0.0,-0.0,-4.101,-4.0504,-4.0185,-3.9715,-3.9133,-3.8881,-3.8555,-3.809,-3.745,-3.7111,-3.7073,-3.6596,-3.637,-3.637,-3.637,-3.637,-3.637,-3.637,-3.637,-3.637,-3.637,-3.6439,-3.6276,-3.5768,-3.5152,-3.4211,-3.3909,-3.3596,-3.3194,-3.3081,-3.3081,-3.3081,-3.3081,-3.3081,-3.3081,-3.3081,-3.3081,-3.3081,-3.3081,-3.3081,-3.3081,-3.281,-3.2376,-3.1749,-3.1241,-3.0749,-3.0148,-2.9438,-2.8495,-2.7442,-2.7284,-2.6693,-2.6088,-2.5741,-2.5635,-2.543,-2.5137,-2.4833,-2.4332,-2.3836,-2.3238,-2.2627,-2.2055,-2.135,-2.0609,-1.9849,-1.922,-1.8729,-1.8429,-1.8108,-1.7694,-1.7589,-1.7589,-1.7582,-1.7378,-1.7279,-1.7067,-1.653,-1.5785,-1.525,-1.4606,-1.3851,-1.3202,-1.255,-1.1896,-1.1236,-1.0692,-1.0253,-0.9926,-0.9599,-0.9268,-0.9047,-0.8937,-0.8602,-0.8048,-0.716,-0.627,-0.5599,-0.4706,-0.3813,-0.2918,-0.2468,-0.1907,-0.1234,-0.0,-0.0,-0.0,-0.0,-0.0,-0.0,-0.0,-0.0,-0.0,-0.0,-0.0,-4.101,-4.0504,-4.0185,-3.993,-3.9484,-3.9082,-3.8843,-3.8555,-3.7688,-3.7199,-3.7136,-3.6634,-3.6408,-3.637,-3.637,-3.637,-3.637,-3.637,-3.637,-3.637,-3.637,-3.637,-3.632,-3.6207,-3.578,-3.5177,-3.4487,-3.3759,-3.3244,-3.3081,-3.3081,-3.3081,-3.3081,-3.3081,-3.3081,-3.3081,-3.3081,-3.3081,-3.3081,-3.3081,-3.3081,-3.281,-3.2463,-3.1749,-3.1241,-3.0749,-3.0228,-2.9438,-2.8588,-2.7453,-2.7379,-2.6829,-2.633,-2.6071,-2.5907,-2.5635,-2.5333,-2.5039,-2.4637,-2.4233,-2.3628,-2.3038,-2.2468,-2.1877,-2.0917,-1.993,-1.931,-1.8938,-1.8436,-1.7905,-1.7694,-1.7589,-1.7589,-1.7582,-1.7589,-1.7378,-1.7166,-1.6849,-1.6311,-1.5779,-1.503,-1.4283,-1.3635,-1.2876,-1.2223,-1.1564,-1.1021,-1.0363,-0.9816,-0.9599,-0.9268,-0.9047,-0.8937,-0.8491,-0.8045,-0.7049,-0.6158,-0.5596,-0.4815,-0.3923,-0.3253,-0.2806,-0.2244,-0.1458,-0.0785,-0.0,-0.0,-0.0,-0.0,-0.0,-0.0,-0.0,-0.0,-0.0,-0.0,-4.0593,-4.0287,-3.9981,-3.9788,-3.9647,-3.9421,-3.9295,-3.9182,-3.8429,-3.7889,-3.7525,-3.7048,-3.6609,-3.6433,-3.637,-3.637,-3.637,-3.637,-3.637,-3.637,-3.637,-3.637,-3.637,-3.637,-3.6031,-3.5542,-3.4951,-3.4261,-3.3533,-3.3206,-3.3119,-3.3081,-3.3081,-3.3081,-3.3081,-3.3081,-3.3081,-3.3081,-3.3081,-3.3081,-3.3081,-3.2723,-3.2388,-3.2038,-3.1419,-3.0918,-3.0501,-2.9714,-2.8659,-2.7619,-2.7537,-2.7105,-2.6532,-2.6264,-2.611,-2.5732,-2.543,-2.5235,-2.4843,-2.443,-2.3827,-2.3238,-2.2872,-2.2165,-2.1216,-2.0254,-1.9517,-1.8833,-1.8436,-1.7911,-1.7582,-1.7582,-1.7589,-1.7589,-1.7589,-1.7589,-1.7378,-1.706,-1.6736,-1.6205,-1.5458,-1.4606,-1.3954,-1.3305,-1.2545,-1.1891,-1.124,-1.0582,-0.9926,-0.9599,-0.9379,-0.8937,-0.8716,-0.838,-0.7934,-0.7049,-0.6161,-0.5596,-0.4925,-0.4033,-0.3363,-0.2917,-0.2356,-0.1795,-0.1121,-0.0336,-0.0,-0.0,-0.0,-0.0,-0.0,-0.0,-0.0,-0.0,-0.0,-4.0402,-4.0083,-3.9788,-3.9697,-3.9697,-3.9697,-3.9685,-3.9584,-3.9082,-3.8479,-3.7977,-3.7412,-3.686,-3.6483,-3.637,-3.637,-3.637,-3.637,-3.637,-3.637,-3.637,-3.637,-3.637,-3.632,-3.6144,-3.5843,-3.5479,-3.4964,-3.396,-3.3495,-3.3244,-3.3106,-3.3081,-3.3081,-3.3081,-3.3081,-3.3081,-3.3081,-3.3081,-3.3081,-3.2982,-3.2649,-3.24,-3.2313,-3.1508,-3.1008,-3.0886,-2.9988,-2.8855,-2.7942,-2.7714,-2.741,-2.6542,-2.638,-2.6207,-2.5732,-2.5528,-2.5226,-2.4833,-2.4538,-2.4134,-2.3546,-2.3055,-2.235,-2.1522,-2.0577,-1.965,-1.8736,-1.822,-1.8016,-1.7799,-1.7687,-1.7589,-1.7589,-1.7589,-1.7589,-1.7483,-1.7272,-1.6955,-1.6418,-1.5672,-1.503,-1.4277,-1.3635,-1.2876,-1.2219,-1.1568,-1.1021,-1.0363,-0.9926,-0.9485,-0.8933,-0.8602,-0.8159,-0.7715,-0.7051,-0.627,-0.5822,-0.5037,-0.4143,-0.3475,-0.2917,-0.2355,-0.1907,-0.1346,-0.0,-0.0,-0.0,-0.0,-0.0,-0.0,-0.0,-0.0,-0.0,-0.0,-4.0402,-4.007,-3.9788,-3.9697,-3.9697,-3.9697,-3.9697,-3.9622,-3.9145,-3.8542,-3.8078,-3.745,-3.691,-3.6471,-3.637,-3.637,-3.637,-3.637,-3.637,-3.637,-3.637,-3.637,-3.637,-3.637,-3.632,-3.6107,-3.5768,-3.4939,-3.4211,-3.3897,-3.3495,-3.3181,-3.3081,-3.3081,-3.3081,-3.3081,-3.3081,-3.3081,-3.3081,-3.3081,-3.2995,-3.2649,-3.2487,-3.2138,-3.1608,-3.1008,-3.0874,-3.0068,-2.8958,-2.8068,-2.7934,-2.7515,-2.6678,-2.6486,-2.6217,-2.5839,-2.5645,-2.543,-2.503,-2.4735,-2.444,-2.3854,-2.3491,-2.288,-2.1835,-2.0696,-1.9776,-1.8966,-1.8541,-1.822,-1.7905,-1.7694,-1.7694,-1.7589,-1.7589,-1.7589,-1.7589,-1.7483,-1.7166,-1.6736,-1.6099,-1.5351,-1.4713,-1.3959,-1.331,-1.255,-1.1891,-1.1236,-1.0582,-1.0036,-0.9596,-0.8933,-0.8602,-0.8159,-0.7823,-0.7049,-0.6492,-0.5933,-0.515,-0.4255,-0.3699,-0.3029,-0.2468,-0.1907,-0.1346,-0.0,-0.0,-0.0,-0.0,-0.0,-0.0,-0.0,-0.0,-0.0,-0.0,-4.0083,-3.989,-3.9788,-3.9697,-3.9697,-3.9697,-3.9697,-3.9647,-3.9433,-3.9183,-3.8805,-3.8038,-3.7186,-3.6496,-3.637,-3.637,-3.637,-3.637,-3.637,-3.637,-3.637,-3.637,-3.637,-3.637,-3.637,-3.6295,-3.6094,-3.5705,-3.4889,-3.4135,-3.3608,-3.3181,-3.3081,-3.3081,-3.3081,-3.3081,-3.3081,-3.3081,-3.3081,-3.3081,-3.2995,-3.2661,-3.24,-3.24,-3.152,-3.1097,-3.0726,-3.0068,-2.905,-2.8244,-2.8017,-2.7526,-2.6774,-2.6496,-2.6217,-2.5732,-2.5732,-2.5528,-2.5137,-2.503,-2.4538,-2.4161,-2.3809,-2.3108,-2.1717,-2.0688,-1.9887,-1.9175,-1.8639,-1.8325,-1.801,-1.7799,-1.7694,-1.7589,-1.7589,-1.7589,-1.7589,-1.7483,-1.7272,-1.6842,-1.6418,-1.5672,-1.4928,-1.4175,-1.3532,-1.2876,-1.2005,-1.1345,-1.0582,-0.9926,-0.9489,-0.8937,-0.8602,-0.8266,-0.7934,-0.7379,-0.6715,-0.6158,-0.5375,-0.4594,-0.3924,-0.3365,-0.258,-0.2132,-0.1683,-0.0,-0.0,-0.0,-0.0,-0.0,-0.0,-0.0,-0.0,-0.0,-0.0,-3.9878,-3.9697,-3.9697,-3.9697,-3.9697,-3.9697,-3.9697,-3.9697,-3.9685,-3.9613,-3.9108,-3.8076,-3.7061,-3.6521,-3.637,-3.637,-3.637,-3.637,-3.637,-3.637,-3.637,-3.637,-3.637,-3.637,-3.637,-3.637,-3.632,-3.5956,-3.5353,-3.4638,-3.3872,-3.3294,-3.3144,-3.3093,-3.3081,-3.3081,-3.3081,-3.3081,-3.3081,-3.3081,-3.2995,-3.2649,-3.2487,-3.2125,-3.1596,-3.0984,-3.0883,-3.0045,-2.9039,-2.82,-2.8006,-2.7526,-2.6688,-2.6496,-2.6217,-2.583,-2.5732,-2.5635,-2.5333,-2.5137,-2.4637,-2.427,-2.3791,-2.288,-2.1285,-2.0475,-1.9983,-1.9487,-1.8743,-1.8325,-1.8115,-1.7799,-1.7694,-1.7589,-1.7589,-1.7589,-1.7589,-1.7589,-1.7371,-1.6836,-1.6411,-1.5986,-1.5244,-1.439,-1.3748,-1.3098,-1.2223,-1.1455,-1.0582,-0.9926,-0.9489,-0.8937,-0.8712,-0.8377,-0.7934,-0.749,-0.6937,-0.6381,-0.5487,-0.4706,-0.4036,-0.3365,-0.258,-0.2244,-0.1907,-0.0,-0.0,-0.0,-0.0,-0.0,-0.0,-0.0,-0.0,-0.0,-0.0,-3.9697,-3.9697,-3.9697,-3.9697,-3.9697,-3.9697,-3.9697,-3.9697,-3.9697,-3.9272,-3.8589,-3.7354,-3.6621,-3.6383,-3.637,-3.637,-3.637,-3.637,-3.637,-3.637,-3.637,-3.637,-3.637,-3.637,-3.637,-3.637,-3.6358,-3.6069,-3.5529,-3.4939,-3.4324,-3.3872,-3.3332,-3.3144,-3.3081,-3.3081,-3.3081,-3.3081,-3.3081,-3.3081,-3.2995,-3.2649,-3.24,-3.2213,-3.1596,-3.0984,-3.0984,-3.0045,-2.9061,-2.8064,-2.8006,-2.7526,-2.6688,-2.6496,-2.6207,-2.583,-2.5732,-2.5635,-2.5538,-2.5137,-2.4735,-2.4341,-2.3546,-2.2636,-2.1261,-2.0688,-2.0197,-1.9687,-1.8952,-1.8527,-1.8213,-1.8003,-1.7694,-1.7589,-1.7589,-1.7589,-1.7589,-1.7589,-1.7371,-1.6836,-1.6405,-1.6092,-1.5565,-1.4821,-1.3964,-1.3207,-1.2223,-1.135,-1.0472,-0.9816,-0.9485,-0.9044,-0.8709,-0.8377,-0.8045,-0.7601,-0.7157,-0.6492,-0.5712,-0.4817,-0.4148,-0.3365,-0.258,-0.2244,-0.1795,-0.1121,-0.0,-0.0,-0.0,-0.0,-0.0,-0.0,-0.0,-0.0,-0.0,-3.9697,-3.9697,-3.9697,-3.9697,-3.9697,-3.9697,-3.9697,-3.9697,-3.9685,-3.9094,-3.8139,-3.7346,-3.6671,-3.6445,-3.637,-3.637,-3.637,-3.637,-3.637,-3.637,-3.637,-3.637,-3.637,-3.6358,-3.637,-3.6358,-3.6345,-3.6307,-3.6019,-3.5215,-3.4751,-3.4211,-3.3533,-3.3181,-3.3081,-3.3081,-3.3081,-3.3081,-3.3081,-3.3081,-3.2995,-3.2649,-3.24,-3.2313,-3.1508,-3.0949,-3.0746,-2.9943,-2.9131,-2.844,-2.8121,-2.7421,-2.6688,-2.6496,-2.6207,-2.5839,-2.5732,-2.5732,-2.5635,-2.5235,-2.4754,-2.418,-2.3456,-2.2509,-2.1363,-2.0893,-2.0395,-1.9783,-1.9168,-1.8743,-1.8318,-1.8108,-1.7799,-1.7694,-1.7589,-1.7589,-1.7589,-1.7589,-1.7483,-1.7054,-1.673,-1.6411,-1.5779,-1.5143,-1.4283,-1.3423,-1.2441,-1.135,-1.0472,-0.9706,-0.9489,-0.9158,-0.8823,-0.8488,-0.8045,-0.7712,-0.7379,-0.6601,-0.5824,-0.5041,-0.4258,-0.3474,-0.2802,-0.2355,-0.1907,-0.1346,-0.0785,-0.0336,-0.0,-0.0,-0.0,-0.0,-0.0,-0.0,-0.0,-3.9195,-3.9207,-3.9383,-3.9546,-3.9685,-3.9697,-3.9697,-3.9659,-3.9496,-3.8818,-3.7739,-3.7186,-3.6747,-3.6433,-3.637,-3.637,-3.6275,-3.6288,-3.6288,-3.6193,-3.6193,-3.6181,-3.6156,-3.6073,-3.6086,-3.6181,-3.6275,-3.625,-3.6175,-3.5311,-3.4951,-3.4474,-3.3822,-3.3382,-3.3081,-3.3081,-3.3081,-3.3081,-3.3081,-3.3081,-3.3081,-3.2649,-3.24,-3.2313,-3.1508,-3.0949,-3.0554,-2.9909,-2.9154,-2.8484,-2.8038,-2.7526,-2.687,-2.639,-2.61,-2.5917,-2.5732,-2.5732,-2.5528,-2.5235,-2.4665,-2.418,-2.3555,-2.271,-2.1777,-2.1089,-2.0704,-2.0086,-1.948,-1.8862,-1.8527,-1.8115,-1.7799,-1.7694,-1.7589,-1.7589,-1.7589,-1.7589,-1.7378,-1.7166,-1.6842,-1.6411,-1.5672,-1.5035,-1.4067,-1.3202,-1.2332,-1.135,-1.0582,-0.9926,-0.9599,-0.9268,-0.894,-0.8602,-0.8156,-0.7823,-0.749,-0.6604,-0.5824,-0.5262,-0.4479,-0.3696,-0.2914,-0.2579,-0.2131,-0.157,-0.1009,-0.0336,-0.0,-0.0,-0.0,-0.0,-0.0,-0.0,-0.0,-3.809,-3.8115,-3.8668,-3.917,-3.9559,-3.9672,-3.9659,-3.9534,-3.9007,-3.8228,-3.7274,-3.6697,-3.6445,-3.637,-3.637,-3.6288,-3.6111,-3.6015,-3.5932,-3.5861,-3.5824,-3.5596,-3.5584,-3.5692,-3.5812,-3.5716,-3.5812,-3.6003,-3.5991,-3.5425,-3.5032,-3.4547,-3.3972,-3.3445,-3.3106,-3.3081,-3.3081,-3.3081,-3.3081,-3.3081,-3.2995,-3.2649,-3.24,-3.2225,-3.1508,-3.0949,-3.0554,-2.992,-2.9165,-2.8495,-2.8279,-2.7662,-2.6699,-2.636,-2.6071,-2.5723,-2.5732,-2.5732,-2.5635,-2.5137,-2.4745,-2.4251,-2.3637,-2.2911,-2.1979,-2.1387,-2.0917,-2.0292,-1.968,-1.9063,-1.8534,-1.822,-1.7905,-1.7694,-1.7589,-1.7589,-1.7589,-1.7589,-1.7483,-1.7272,-1.6948,-1.6418,-1.5565,-1.4821,-1.3851,-1.2985,-1.2114,-1.135,-1.0692,-1.0143,-0.9706,-0.9379,-0.9051,-0.8716,-0.8266,-0.8048,-0.7604,-0.6715,-0.5935,-0.5485,-0.4702,-0.3808,-0.3251,-0.2805,-0.2132,-0.157,-0.1009,-0.0448,-0.0,-0.0,-0.0,-0.0,-0.0,-0.0,-0.0,-3.8002,-3.8015,-3.8216,-3.8404,-3.8617,-3.8994,-3.9322,-3.9335,-3.8041,-3.7192,-3.7123,-3.6596,-3.637,-3.637,-3.6193,-3.6098,-3.6015,-3.5824,-3.5753,-3.5657,-3.5537,-3.562,-3.5512,-3.5416,-3.5537,-3.562,-3.5716,-3.5716,-3.5704,-3.54,-3.491,-3.4392,-3.3809,-3.3307,-3.3119,-3.3081,-3.3081,-3.3081,-3.3081,-3.3081,-3.2982,-3.2649,-3.24,-3.24,-3.152,-3.0871,-3.0644,-2.9932,-2.9187,-2.8434,-2.8333,-2.7662,-2.6688,-2.6254,-2.6061,-2.581,-2.5732,-2.5732,-2.5528,-2.5226,-2.4726,-2.4223,-2.3728,-2.3011,-2.2366,-2.1599,-2.1011,-2.0411,-1.9887,-1.9264,-1.8534,-1.8318,-1.8115,-1.7694,-1.7589,-1.7589,-1.7589,-1.7589,-1.7483,-1.7371,-1.7047,-1.6205,-1.5357,-1.4821,-1.3959,-1.3093,-1.2223,-1.1568,-1.0802,-1.0143,-0.9706,-0.9379,-0.9047,-0.8712,-0.8491,-0.8156,-0.7823,-0.7046,-0.627,-0.5712,-0.4929,-0.3921,-0.3363,-0.2806,-0.2244,-0.157,-0.0897,-0.0,-0.0,-0.0,-0.0,-0.0,-0.0,-0.0,-0.0,-3.7437,-3.745,-3.7638,-3.7726,-3.7814,-3.8329,-3.8667,-3.8528,-3.7142,-3.6596,-3.681,-3.6496,-3.637,-3.6181,-3.6098,-3.5812,-3.5716,-3.5428,-3.5235,-3.5223,-3.5042,-3.5042,-3.5042,-3.5126,-3.4945,-3.5138,-3.5235,-3.5332,-3.532,-3.5169,-3.4792,-3.4198,-3.3445,-3.3108,-3.2946,-3.2995,-3.3081,-3.3081,-3.3081,-3.3081,-3.2909,-3.2649,-3.24,-3.205,-3.1508,-3.0883,-3.0487,-2.9852,-2.9128,-2.8592,-2.8124,-2.7662,-2.6764,-2.6147,-2.5954,-2.58,-2.5732,-2.5732,-2.5528,-2.5333,-2.4922,-2.4501,-2.3836,-2.3111,-2.2576,-2.1903,-2.1216,-2.0617,-2.0094,-1.9472,-1.8743,-1.8639,-1.8213,-1.7799,-1.7589,-1.7589,-1.7589,-1.7589,-1.7589,-1.7371,-1.7047,-1.6099,-1.525,-1.4815,-1.4169,-1.3305,-1.2441,-1.1678,-1.1021,-1.0253,-0.9706,-0.9485,-0.9158,-0.8823,-0.8488,-0.8156,-0.7823,-0.7265,-0.6601,-0.5938,-0.5041,-0.4147,-0.3477,-0.2806,-0.2132,-0.157,-0.0785,-0.0,-0.0,-0.0,-0.0,-0.0,-0.0,-0.0,-0.0,-3.6383,-3.6445,-3.6935,-3.7161,-3.7262,-3.7701,-3.7638,-3.7199,-3.6634,-3.636,-3.6383,-3.6395,-3.6288,-3.6003,-3.6015,-3.562,-3.5223,-3.492,-3.4738,-3.4445,-3.4347,-3.4261,-3.4162,-3.4162,-3.4249,-3.4347,-3.4543,-3.4847,-3.4823,-3.4798,-3.4475,-3.3998,-3.3293,-3.286,-3.2674,-3.2698,-3.2884,-3.2896,-3.2909,-3.2822,-3.2649,-3.2475,-3.2213,-3.1862,-3.1419,-3.0883,-3.0408,-2.9852,-2.9117,-2.8571,-2.8102,-2.7441,-2.6733,-2.5982,-2.5838,-2.5693,-2.5732,-2.5732,-2.5635,-2.543,-2.5128,-2.4726,-2.4044,-2.3211,-2.2593,-2.2106,-2.1412,-2.0814,-2.03,-1.968,-1.9063,-1.8639,-1.8325,-1.801,-1.7694,-1.7694,-1.7589,-1.7589,-1.7589,-1.7371,-1.7047,-1.6305,-1.5464,-1.4821,-1.439,-1.3527,-1.2767,-1.2114,-1.124,-1.0253,-0.9812,-0.9706,-0.9265,-0.8823,-0.8491,-0.8266,-0.7934,-0.7487,-0.6715,-0.6051,-0.5043,-0.4258,-0.3477,-0.2806,-0.2131,-0.1458,-0.0561,-0.0,-0.0,-0.0,-0.0,-0.0,-0.0,-0.0,-0.0,-3.637,-3.6383,-3.6546,-3.6596,-3.6621,-3.6772,-3.6722,-3.6596,-3.6426,-3.6433,-3.6358,-3.6193,-3.6003,-3.6015,-3.562,-3.5223,-3.4932,-3.464,-3.4457,-3.4162,-3.3854,-3.3755,-3.3755,-3.3755,-3.3755,-3.3854,-3.4052,-3.4237,-3.4157,-3.427,-3.3917,-3.3325,-3.2901,-3.2484,-3.2288,-3.219,-3.2326,-3.2537,-3.2562,-3.2562,-3.2475,-3.23,-3.2038,-3.1773,-3.1342,-3.0883,-3.0318,-2.976,-2.9024,-2.8279,-2.8081,-2.7515,-2.6582,-2.5991,-2.5682,-2.5713,-2.5732,-2.5732,-2.5635,-2.543,-2.5235,-2.4932,-2.4233,-2.3746,-2.3129,-2.2426,-2.1717,-2.1113,-2.0403,-1.9783,-1.9264,-1.8743,-1.8429,-1.8115,-1.7799,-1.7694,-1.7589,-1.7589,-1.7589,-1.7378,-1.7054,-1.6411,-1.5571,-1.5035,-1.4606,-1.3743,-1.2985,-1.2332,-1.1568,-1.0582,-0.9923,-0.9706,-0.9379,-0.8937,-0.8602,-0.838,-0.8045,-0.7712,-0.694,-0.6163,-0.5377,-0.4482,-0.3701,-0.2805,-0.2019,-0.1121,-0.0224,-0.0,-0.0,-0.0,-0.0,-0.0,-0.0,-0.0,-0.0,-3.637,-3.637,-3.637,-3.637,-3.637,-3.637,-3.6358,-3.6275,-3.6131,-3.6143,-3.6181,-3.6003,-3.5716,-3.5428,-3.5126,-3.4835,-3.4457,-3.4052,-3.3866,-3.3668,-3.3346,-3.3147,-3.3147,-3.3147,-3.3147,-3.3247,-3.3457,-3.3568,-3.3609,-3.3303,-3.2969,-3.2885,-3.2418,-3.2031,-3.1773,-3.1613,-3.1613,-3.1925,-3.2138,-3.2313,-3.2213,-3.2038,-3.195,-3.1673,-3.1241,-3.0703,-3.0136,-2.968,-2.9024,-2.8175,-2.7987,-2.7515,-2.6582,-2.6031,-2.5722,-2.5732,-2.5732,-2.5732,-2.5635,-2.5547,-2.5245,-2.4932,-2.4529,-2.4035,-2.3438,-2.2636,-2.1928,-2.1318,-2.0712,-1.999,-1.9465,-1.884,-1.8527,-1.822,-1.7905,-1.7589,-1.7589,-1.7589,-1.7483,-1.7384,-1.6955,-1.6524,-1.5885,-1.5357,-1.4719,-1.3856,-1.3098,-1.2441,-1.1678,-1.0911,-1.0253,-0.9816,-0.9489,-0.9051,-0.8826,-0.838,-0.8159,-0.7712,-0.694,-0.6161,-0.5487,-0.4594,-0.3589,-0.2692,-0.1795,-0.1009,-0.0,-0.0,-0.0,-0.0,-0.0,-0.0,-0.0,-0.0,-0.0,-3.637,-3.637,-3.637,-3.637,-3.637,-3.6383,-3.6288,-3.5991,-3.5713,-3.5713,-3.5908,-3.562,-3.5307,-3.503,-3.4726,-3.4347,-3.3965,-3.3568,-3.3269,-3.317,-3.2645,-3.2443,-3.2342,-3.2443,-3.2443,-3.2443,-3.2645,-3.2946,-3.2982,-3.2715,-3.2288,-3.2336,-3.1905,-3.1496,-3.1151,-3.1015,-3.1092,-3.1318,-3.1685,-3.205,-3.1937,-3.1849,-3.1761,-3.1395,-3.105,-3.0714,-3.0068,-2.9508,-2.9035,-2.8362,-2.7935,-2.7578,-2.6562,-2.6004,-2.5723,-2.5732,-2.5732,-2.5732,-2.5732,-2.5635,-2.5342,-2.5137,-2.4843,-2.4242,-2.3538,-2.2937,-2.2232,-2.1522,-2.0814,-2.03,-1.968,-1.8945,-1.8422,-1.8213,-1.7898,-1.7687,-1.7589,-1.7589,-1.7582,-1.7378,-1.6955,-1.6524,-1.6205,-1.5571,-1.4821,-1.3964,-1.3315,-1.2659,-1.1896,-1.1131,-1.0472,-0.9923,-0.9489,-0.9161,-0.8826,-0.8491,-0.8159,-0.7604,-0.694,-0.6272,-0.571,-0.4706,-0.3477,-0.2691,-0.1907,-0.1234,-0.0,-0.0,-0.0,-0.0,-0.0,-0.0,-0.0,-0.0,-0.0,-3.637,-3.637,-3.637,-3.637,-3.6383,-3.6376,-3.6268,-3.5908,-3.5306,-3.5222,-3.5512,-3.5223,-3.492,-3.4628,-3.4139,-3.3755,-3.3369,-3.3069,-3.2656,-3.2353,-3.1936,-3.1742,-3.1527,-3.1629,-3.1629,-3.1823,-3.2026,-3.2331,-3.2419,-3.2048,-3.1613,-3.1533,-3.1275,-3.0933,-3.0601,-3.0554,-3.0543,-3.0781,-3.1151,-3.1407,-3.1484,-3.1572,-3.1572,-3.1306,-3.1062,-3.0624,-3.0091,-2.969,-2.8998,-2.8218,-2.8443,-2.7598,-2.6051,-2.58,-2.5732,-2.5732,-2.5732,-2.5732,-2.5732,-2.5635,-2.544,-2.5137,-2.4833,-2.4242,-2.3646,-2.3138,-2.2434,-2.1725,-2.1019,-2.0506,-1.9887,-1.9049,-1.8422,-1.8213,-1.7898,-1.7793,-1.7589,-1.7582,-1.7582,-1.7265,-1.6948,-1.663,-1.6311,-1.5779,-1.5035,-1.4283,-1.364,-1.2985,-1.2223,-1.1459,-1.0692,-1.0143,-0.9599,-0.9268,-0.8937,-0.8491,-0.8156,-0.7712,-0.7049,-0.649,-0.5822,-0.4592,-0.3363,-0.2805,-0.2132,-0.1346,-0.0785,-0.0,-0.0,-0.0,-0.0,-0.0,-0.0,-0.0,-0.0,-3.637,-3.637,-3.637,-3.637,-3.6206,-3.6318,-3.6102,-3.5596,-3.4788,-3.4703,-3.5017,-3.4726,-3.4433,-3.4249,-3.3668,-3.3158,-3.2757,-3.2454,-3.2048,-3.1629,-3.1457,-3.1262,-3.1148,-3.0909,-3.1116,-3.1311,-3.1516,-3.1779,-3.1972,-3.1437,-3.1038,-3.101,-3.0707,-3.0239,-3.0114,-2.9988,-2.9977,-3.0329,-3.051,-3.0679,-3.0859,-3.1139,-3.1229,-3.105,-3.0679,-3.0329,-2.9908,-2.9505,-2.8927,-2.8134,-2.7862,-2.7164,-2.6061,-2.5693,-2.5723,-2.5732,-2.5732,-2.5732,-2.5732,-2.5635,-2.5538,-2.5235,-2.4932,-2.444,-2.3945,-2.3338,-2.2636,-2.1835,-2.1121,-2.0609,-1.9879,-1.9146,-1.8632,-1.8318,-1.7898,-1.7694,-1.7589,-1.7589,-1.7582,-1.7477,-1.716,-1.6849,-1.653,-1.6105,-1.525,-1.4504,-1.3851,-1.3093,-1.2332,-1.1787,-1.0911,-1.0253,-0.9816,-0.9379,-0.8937,-0.8602,-0.8266,-0.7712,-0.7268,-0.6379,-0.5599,-0.448,-0.3363,-0.2805,-0.2244,-0.157,-0.1009,-0.0448,-0.0,-0.0,-0.0,-0.0,-0.0,-0.0,-0.0,-3.637,-3.637,-3.637,-3.6275,-3.6028,-3.6198,-3.5899,-3.5102,-3.4473,-3.4193,-3.4225,-3.4249,-3.3866,-3.3481,-3.3081,-3.2555,-3.2139,-3.1732,-3.1333,-3.1148,-3.1098,-3.0766,-3.062,-3.0484,-3.0495,-3.0713,-3.1023,-3.1219,-3.1483,-3.0833,-3.0425,-3.0548,-3.0086,-2.9312,-2.9405,-2.9393,-2.9393,-2.9669,-2.9852,-3.0034,-3.0318,-3.0703,-3.0781,-3.0679,-3.0306,-2.9943,-2.9611,-2.9298,-2.8855,-2.8051,-2.7177,-2.6486,-2.5984,-2.5703,-2.5713,-2.5732,-2.5732,-2.5732,-2.5732,-2.5732,-2.5528,-2.5333,-2.503,-2.4637,-2.4134,-2.3538,-2.2736,-2.203,-2.1326,-2.0609,-1.9975,-1.9354,-1.884,-1.8318,-1.7898,-1.7589,-1.7589,-1.7589,-1.7589,-1.7589,-1.7378,-1.706,-1.6636,-1.6211,-1.5571,-1.4821,-1.3959,-1.3202,-1.2441,-1.1787,-1.1131,-1.0472,-0.9926,-0.9485,-0.8937,-0.8602,-0.8374,-0.7934,-0.7379,-0.6267,-0.5375,-0.437,-0.3475,-0.2805,-0.2244,-0.1683,-0.1121,-0.0561,-0.0,-0.0,-0.0,-0.0,-0.0,-0.0,-0.0,-3.637,-3.637,-3.637,-3.6275,-3.6015,-3.5849,-3.5428,-3.4823,-3.4338,-3.3871,-3.3645,-3.3469,-3.3381,-3.3181,-3.2252,-3.1732,-3.1527,-3.1116,-3.0806,-3.0609,-3.0611,-3.0266,-3.0015,-2.9879,-2.99,-3.0214,-3.0516,-3.0827,-3.0874,-3.0113,-2.9687,-2.972,-2.8975,-2.8614,-2.8675,-2.8664,-2.8735,-2.9013,-2.9301,-2.9497,-2.9863,-3.0227,-3.0691,-3.0589,-3.0306,-2.9943,-2.9633,-2.9535,-2.891,-2.8072,-2.7061,-2.6284,-2.5907,-2.5713,-2.5723,-2.5732,-2.5732,-2.5732,-2.5732,-2.5732,-2.5528,-2.5333,-2.5137,-2.4735,-2.4242,-2.3637,-2.2937,-2.2224,-2.1514,-2.0806,-2.0181,-1.9576,-1.8959,-1.8422,-1.7898,-1.7687,-1.7589,-1.7589,-1.7589,-1.7589,-1.7378,-1.706,-1.6736,-1.6205,-1.5779,-1.4928,-1.4288,-1.3418,-1.2772,-1.2005,-1.135,-1.0692,-1.0143,-0.9485,-0.9047,-0.8709,-0.8374,-0.8045,-0.7379,-0.6379,-0.5375,-0.4482,-0.3701,-0.2915,-0.2356,-0.1795,-0.1234,-0.0785,-0.0,-0.0,-0.0,-0.0,-0.0,-0.0,-0.0]},{"header":{"parameterUnit":"m.s-1","parameterCategory":1,"la1":31.0,"la2":29.5877,"lo1":-88.7671,"lo2":-86.6584,"dy":0.0162,"dx":0.0185,"nx":115,"ny":88,"refTime":"2023-06-25T18:00:00:Z","depth":0,"parameterNumber":3,"parameterNumberName":"V-component_of_WINDS"},"data":[0.0,0.0,0.0,0.0,0.0,0.0,0.0,0.0,0.0,0.0,0.0,0.0,0.0,0.0,0.0,0.0,0.0,0.0,0.0,0.0,0.0,0.0,0.0,0.0,0.0,0.0,0.0,0.0,0.0,0.0,0.0,0.0,0.0,0.0,0.0,0.0,0.0,0.0,0.0,0.0,0.0,0.0,0.0,0.0,0.0,0.0,0.0,0.0,0.0,0.0,0.0,0.0,0.0,0.0,0.0,0.0,0.0,0.0,0.0,0.0,0.0,0.0,0.0,0.0,0.0,0.0,0.0,0.0,0.0,0.0,0.0,0.0,0.0,0.0,0.0,0.0,0.0,0.0,0.0,0.0,0.0,0.0,0.0,0.0,0.0,0.0,0.0,0.0,0.0,0.0,0.0,0.0,0.0,0.0,0.0,0.0,0.0,0.0,0.0,0.0,0.0,0.0,0.0,0.0,0.0,0.0,0.0,0.0,0.0,0.0,0.0,0.0,0.0,0.0,0.0,0.0,0.0,0.0,0.0,0.0,0.0,0.0,0.0,0.0,0.0,0.0,0.0,0.0,0.0,0.0,0.0,0.0,0.0,0.0,0.0,0.0,0.0,0.0,0.0,0.0,0.0,0.0,0.0,0.0,0.0,0.0,0.0,0.0,0.0,0.0,0.0,0.0,0.0,0.0,0.0,0.0,0.0,0.0,0.0,0.0,0.0,0.0,0.0,0.0,0.0,0.0,0.0,0.0,0.0,0.0,0.0,0.0,0.0,0.0,0.0,0.0,0.0,0.0,0.0,0.0,0.0,0.0,0.0,0.0,0.0,0.0,0.0,0.0,0.0,0.0,0.0,0.0,0.0,0.0,0.0,0.0,0.0,0.0,0.0,0.0,0.0,0.0,0.0,0.0,0.0,0.0,0.0,0.0,0.0,0.0,0.0,0.0,0.0,0.0,0.0,0.0,0.0,0.0,0.0,0.0,0.0,0.0,0.0,0.0,0.0,0.0,0.0,0.0,0.0,0.0,0.0,0.0,0.0,0.0,0.0,0.0,0.0,0.0,0.0,0.0,0.0,0.0,0.0,0.0,0.0,0.0,0.0,0.0,0.0,0.0,0.0,0.0,0.0,0.0,0.0,0.0,0.0,0.0,0.0,0.0,0.0,0.0,0.0,0.0,0.0,0.0,0.0,0.0,0.0,0.0,0.0,0.0,0.0,0.0,0.0,0.0,0.0,0.0,0.0,0.0,0.0,0.0,0.0,0.0,0.0,0.0,0.0,0.0,0.0,0.0,0.0,0.0,0.0,0.0,0.0,0.0,0.0,0.0,0.0,0.0,0.0,0.0,0.0,0.0,0.0,0.0,0.0,0.0,0.0,0.0,0.0,0.0,0.0,0.0,0.0,0.0,0.0,0.0,0.0,0.0,0.0,0.0,0.0,0.0,0.0,0.0,0.0,0.0,0.0,0.0,0.0,0.0,0.0,0.0,0.0,0.0,0.0,0.0,0.0,0.0,0.0,0.0,0.0,0.0,0.0,0.0,0.0,0.0,0.0,0.0,0.0,0.0,0.0,0.0,0.0,0.0,0.0,0.0,0.0,0.0,0.0,0.0,0.0,0.0,0.0,0.0,0.0,0.0,0.0,0.0,0.0,0.0,0.0,0.0,0.0,0.0,0.0,0.0,0.0,0.0,0.0,0.0,0.0,0.0,0.0,0.0,0.0,0.0,0.0,0.0,0.0,0.0,0.0,0.0,0.0,0.0,0.0,0.0,0.0,0.0,0.0,0.0,0.0,0.0,0.0,0.0,0.0,0.0,0.0,0.0,0.0,0.0,0.0,0.0,0.0,0.0,0.0,0.0,0.0,0.0,0.0,0.0,0.0,0.0,0.0,0.0,0.0,0.0,0.0,0.0,0.0,0.0,0.0,0.0,0.0,0.0,0.0,0.0,0.0,0.0,0.0,0.0,0.0,0.0,0.0,0.0,0.0,0.0,0.0,0.0,0.0,0.0,0.0,0.0,0.0,0.0,0.0,0.0,0.0,0.0,0.0,0.0,0.0,0.0,0.0,0.0,0.0,0.0,0.0,0.0,0.0,0.0,0.0,0.0,0.0,0.0,0.0,0.0,0.0,0.0,0.0,0.0,0.0,0.0,0.0,0.0,0.0,0.0,0.0,0.0,0.0,0.0,0.0,0.0,0.0,0.0,0.0,0.0,0.0,0.0,0.0,0.0,0.0,0.0,0.0,0.0,0.0,0.0,0.0,0.0,0.0,0.0,0.0,0.0,0.0,0.0,0.0,0.0,0.0,0.0,0.0,0.0,0.0,0.0,0.0,0.0,0.0,0.0,0.0,0.0,0.0,0.0,0.0,0.0,0.0,0.0,0.0,0.0,0.0,0.0,0.0,0.0,0.0,0.0,0.0,0.0,0.0,0.0,0.0,0.0,0.0,0.0,0.0,0.0,0.0,0.0,0.0,0.0,0.0,0.0,0.0,0.0,0.0,0.0,0.0,0.0,0.0,0.0,0.0,0.0,0.0,0.0,0.0,0.0,0.0,0.0,0.0,0.0,0.0,0.0,0.0,0.0,0.0,0.0,0.0,0.0,0.0,0.0,0.0,0.0,0.0,0.0,0.0,0.0,0.0,0.0,0.0,0.0,0.0,0.0,0.0,0.0,0.0,0.0,0.0,0.0,0.0,0.0,0.0,0.0,0.0,0.0,0.0,0.0,0.0,0.0,0.0,0.0,0.0,0.0,0.0,0.0,0.0,0.0,0.0,0.0,0.0,0.0,0.0,0.0,0.0,0.0,0.0,0.0,0.0,0.0,0.0,0.0,0.0,0.0,0.0,0.0,0.0,0.0,0.0,0.0,0.0,0.0,0.0,0.0,0.0,0.0,0.0,0.0,0.0,0.0,0.0,0.0,0.0,0.0,0.0,0.0,0.0,0.0,0.0,0.0,0.0,0.0,0.0,0.0,0.0,0.0,0.0,0.0,0.0,0.0,0.0,0.0,0.0,0.0,0.0,0.0,0.0,0.0,0.0,0.0,0.0,0.0,0.0,0.0,0.0,0.0,0.0,0.0,0.0,0.0,0.0,0.0,0.0,0.0,0.0,0.0,0.0,0.0,0.0,0.0,0.0,0.0,0.0,0.0,0.0,0.0,0.0,0.0,0.0,0.0,0.0,0.0,0.0,0.0,0.0,0.0,0.0,0.0,0.0,0.0,0.0,0.0,0.0,0.0,0.0,0.0,0.0,0.0,0.0,0.0,0.0,0.0,0.0,0.0,0.0,0.0,0.0,0.0,0.0,0.0,0.0,0.0,0.0,0.0,0.0,0.0,0.0,0.0,0.0,0.0,0.0,0.0,0.0,0.0,0.0,0.0,0.0,0.0,0.0,0.0,0.0,0.0,0.0,0.0,0.0,0.0,0.0,0.0,0.0,0.0,0.0,0.0,0.0,0.0,0.0,0.0,0.0,0.0,0.0,0.0,0.0,0.0,0.0,0.0,0.0,0.0,0.0,0.0,0.0,0.0,0.0,0.0,0.0,0.0,0.0,0.0,0.0,0.0,0.0,0.0,0.0,0.0,0.0,0.0,0.0,0.0,0.0,0.0,0.0,0.0,0.0,0.0,0.0,0.0,0.0,0.0,0.0,0.0,0.0,0.0,0.0,0.0,0.0,0.0,0.0,0.0,0.0,0.0,0.0,0.0,0.0,0.0,0.0,0.0,0.0,0.0,0.0,0.0,0.0,0.0,0.0,0.0,0.0,0.0,0.0,0.0,0.0,0.0,0.0,0.0,0.0,0.0,0.0,0.0,0.0,0.0,0.0,0.0,0.0,0.0,0.0,0.0,0.0,0.0,0.0,0.0,0.0,0.0,0.0,0.0,0.0,0.0,0.0,0.0,0.0,0.0,0.0,0.0,0.0,0.0,0.0,0.0,0.0,0.0,0.0,0.0,0.0,0.0,0.0,0.0,0.0,0.0,0.0,0.0,0.0,0.0,0.0,0.0,0.0,0.0,0.0,0.0,0.0,0.0,0.0,0.0,0.0,0.0,0.0,0.0,0.0,0.0,0.0,0.0,0.0,0.0,0.0,0.0,0.0,0.0,0.0,0.0,0.0,0.0,0.0,0.0,0.0,0.0,0.0,0.0,0.0,0.0,0.0,0.0,0.0,0.0,0.0,0.0,0.0,0.0,0.0,0.0,0.0,0.0,0.0,0.0,0.0,0.0,0.0,0.0,0.0,0.0,0.0,0.0,0.0,0.0,0.0,0.0,0.0,0.0,-1.7157,0.0,0.0,0.0,0.0,0.0,0.0,0.0,0.0,0.0,0.0,0.0,0.0,0.0,0.0,0.0,0.0,0.0,0.0,0.0,0.0,0.0,0.0,0.0,0.0,0.0,0.0,0.0,0.0,0.0,0.0,0.0,0.0,0.0,0.0,0.0,0.0,0.0,0.0,0.0,0.0,0.0,0.0,0.0,0.0,0.0,0.0,0.0,0.0,0.0,0.0,0.0,0.0,0.0,0.0,0.0,0.0,0.0,0.0,0.0,0.0,0.0,0.0,0.0,0.0,0.0,0.0,0.0,0.0,0.0,0.0,0.0,0.0,0.0,0.0,0.0,0.0,0.0,0.0,0.0,0.0,0.0,0.0,0.0,0.0,0.0,0.0,0.0,0.0,0.0,0.0,0.0,0.0,0.0,0.0,0.0,0.0,0.0,0.0,0.0,0.0,0.0,0.0,0.0,0.0,0.0,0.0,0.0,0.0,0.0,0.0,-1.6262,-1.6479,-1.682,-1.7073,-1.7365,0.0,0.0,0.0,0.0,0.0,0.0,0.0,0.0,0.0,0.0,0.0,0.0,0.0,0.0,0.0,0.0,0.0,0.0,0.0,0.0,0.0,0.0,0.0,0.0,0.0,0.0,0.0,0.0,0.0,0.0,0.0,0.0,0.0,0.0,0.0,0.0,0.0,0.0,0.0,0.0,0.0,0.0,0.0,0.0,0.0,0.0,0.0,0.0,0.0,0.0,0.0,0.0,0.0,0.0,0.0,0.0,0.0,0.0,0.0,0.0,0.0,0.0,0.0,0.0,0.0,0.0,0.0,0.0,0.0,0.0,0.0,0.0,0.0,0.0,0.0,0.0,0.0,0.0,0.0,0.0,0.0,0.0,0.0,0.0,0.0,0.0,0.0,0.0,0.0,0.0,0.0,0.0,0.0,0.0,0.0,0.0,0.0,0.0,0.0,0.0,0.0,0.0,0.0,0.0,0.0,0.0,0.0,0.0,0.0,0.0,0.0,0.0,-1.6989,-1.7337,-1.7679,0.0,0.0,0.0,0.0,0.0,0.0,0.0,0.0,0.0,0.0,0.0,0.0,0.0,0.0,0.0,0.0,0.0,0.0,0.0,0.0,0.0,0.0,0.0,0.0,0.0,0.0,0.0,0.0,0.0,0.0,0.0,0.0,0.0,0.0,0.0,0.0,0.0,0.0,0.0,0.0,0.0,0.0,0.0,0.0,0.0,0.0,0.0,0.0,0.0,0.0,0.0,0.0,0.0,0.0,0.0,0.0,0.0,0.0,0.0,0.0,0.0,0.0,0.0,0.0,0.0,0.0,0.0,0.0,0.0,0.0,0.0,0.0,0.0,0.0,0.0,0.0,0.0,0.0,0.0,0.0,0.0,0.0,0.0,0.0,0.0,0.0,0.0,0.0,0.0,0.0,0.0,0.0,0.0,0.0,0.0,0.0,0.0,0.0,0.0,0.0,0.0,0.0,0.0,0.0,0.0,0.0,0.0,0.0,0.0,0.0,-1.665,-1.6947,-1.7115,0.0,-1.8112,0.0,0.0,0.0,0.0,0.0,0.0,0.0,0.0,0.0,0.0,0.0,0.0,0.0,0.0,0.0,0.0,0.0,0.0,0.0,0.0,0.0,0.0,0.0,0.0,0.0,0.0,0.0,0.0,0.0,0.0,0.0,0.0,0.0,0.0,0.0,0.0,0.0,0.0,0.0,0.0,0.0,0.0,0.0,0.0,0.0,0.0,0.0,0.0,0.0,0.0,0.0,0.0,0.0,0.0,0.0,0.0,0.0,0.0,0.0,0.0,0.0,0.0,0.0,0.0,0.0,0.0,0.0,0.0,0.0,0.0,0.0,0.0,0.0,0.0,0.0,0.0,0.0,0.0,0.0,0.0,0.0,0.0,0.0,0.0,0.0,0.0,0.0,0.0,0.0,0.0,0.0,0.0,0.0,0.0,0.0,0.0,0.0,0.0,0.0,0.0,0.0,0.0,0.0,0.0,0.0,0.0,0.0,0.0,0.0,0.0,-1.6905,-1.7115,-1.7475,-1.7896,0.0,0.0,0.0,0.0,0.0,0.0,0.0,0.0,0.0,0.0,0.0,0.0,0.0,0.0,0.0,0.0,0.0,0.0,0.0,0.0,0.0,0.0,0.0,0.0,0.0,0.0,0.0,0.0,0.0,0.0,0.0,0.0,0.0,0.0,0.0,0.0,0.0,0.0,0.0,0.0,0.0,0.0,0.0,0.0,0.0,0.0,0.0,0.0,0.0,0.0,0.0,0.0,0.0,0.0,0.0,0.0,0.0,0.0,0.0,0.0,0.0,0.0,0.0,0.0,0.0,0.0,0.0,0.0,0.0,0.0,0.0,0.0,0.0,0.0,0.0,0.0,0.0,0.0,0.0,0.0,0.0,0.0,0.0,0.0,0.0,0.0,0.0,0.0,0.0,0.0,0.0,0.0,0.0,0.0,0.0,0.0,0.0,0.0,0.0,0.0,0.0,0.0,0.0,0.0,0.0,0.0,0.0,0.0,0.0,0.0,-1.6905,-1.717,-1.7406,-1.7841,-1.823,-1.8528,0.0,0.0,0.0,0.0,0.0,0.0,0.0,0.0,0.0,0.0,0.0,0.0,0.0,0.0,0.0,0.0,0.0,0.0,0.0,0.0,0.0,0.0,0.0,0.0,0.0,0.0,0.0,0.0,0.0,0.0,0.0,0.0,0.0,0.0,0.0,0.0,0.0,0.0,0.0,0.0,0.0,0.0,0.0,0.0,0.0,0.0,0.0,0.0,0.0,0.0,0.0,0.0,0.0,0.0,0.0,0.0,0.0,0.0,0.0,0.0,0.0,0.0,0.0,0.0,0.0,0.0,0.0,0.0,0.0,0.0,0.0,0.0,0.0,0.0,0.0,0.0,0.0,0.0,0.0,0.0,0.0,0.0,0.0,0.0,0.0,0.0,0.0,0.0,0.0,0.0,0.0,0.0,0.0,0.0,0.0,0.0,0.0,0.0,0.0,0.0,0.0,0.0,0.0,0.0,0.0,0.0,0.0,0.0,-1.6888,-1.7099,-1.7432,-1.7869,-1.8135,-1.8416,0.0,0.0,0.0,0.0,0.0,0.0,0.0,0.0,0.0,0.0,0.0,0.0,0.0,0.0,0.0,0.0,0.0,0.0,0.0,0.0,0.0,0.0,0.0,0.0,0.0,0.0,0.0,0.0,0.0,0.0,0.0,0.0,0.0,0.0,0.0,0.0,0.0,0.0,0.0,0.0,0.0,0.0,0.0,0.0,0.0,0.0,0.0,0.0,0.0,0.0,0.0,0.0,0.0,0.0,0.0,0.0,0.0,0.0,0.0,0.0,0.0,0.0,0.0,0.0,0.0,0.0,0.0,0.0,0.0,0.0,0.0,0.0,0.0,0.0,0.0,0.0,0.0,0.0,0.0,0.0,0.0,0.0,0.0,0.0,0.0,0.0,0.0,0.0,0.0,0.0,0.0,0.0,0.0,0.0,0.0,0.0,0.0,0.0,0.0,0.0,0.0,0.0,0.0,0.0,0.0,0.0,0.0,0.0,0.0,-1.7648,-1.8419,-1.8879,-1.9094,-1.9461,-1.9803,0.0,0.0,0.0,0.0,0.0,0.0,0.0,0.0,0.0,0.0,0.0,0.0,0.0,0.0,0.0,0.0,0.0,0.0,0.0,0.0,0.0,0.0,0.0,0.0,0.0,0.0,0.0,0.0,0.0,0.0,0.0,0.0,0.0,0.0,0.0,0.0,0.0,0.0,0.0,0.0,0.0,0.0,0.0,0.0,0.0,0.0,0.0,0.0,0.0,0.0,0.0,0.0,0.0,0.0,0.0,0.0,0.0,0.0,0.0,0.0,0.0,0.0,0.0,0.0,0.0,0.0,0.0,0.0,0.0,0.0,0.0,0.0,0.0,0.0,0.0,0.0,0.0,0.0,0.0,0.0,0.0,0.0,0.0,0.0,0.0,0.0,0.0,0.0,0.0,0.0,0.0,0.0,0.0,0.0,0.0,0.0,0.0,0.0,0.0,0.0,0.0,0.0,0.0,0.0,0.0,0.0,0.0,0.0,0.0,-1.8557,0.0,-1.9792,-1.9954,-2.0258,-2.0582,0.0,0.0,0.0,0.0,0.0,0.0,0.0,0.0,0.0,0.0,0.0,0.0,0.0,0.0,0.0,0.0,0.0,0.0,0.0,0.0,0.0,0.0,0.0,0.0,0.0,0.0,0.0,0.0,0.0,0.0,0.0,0.0,0.0,0.0,0.0,0.0,0.0,0.0,0.0,0.0,0.0,0.0,0.0,0.0,0.0,0.0,0.0,0.0,0.0,0.0,0.0,0.0,0.0,0.0,0.0,0.0,0.0,0.0,0.0,0.0,0.0,0.0,0.0,0.0,0.0,0.0,0.0,0.0,0.0,0.0,0.0,0.0,0.0,0.0,0.0,0.0,0.0,0.0,0.0,0.0,0.0,0.0,0.0,0.0,0.0,0.0,0.0,0.0,0.0,0.0,0.0,0.0,0.0,0.0,0.0,0.0,0.0,0.0,0.0,0.0,0.0,0.0,0.0,0.0,0.0,0.0,0.0,0.0,-1.9373,-1.9481,-1.9686,-1.9963,-2.0213,-2.0457,-2.077,0.0,0.0,0.0,0.0,0.0,0.0,0.0,0.0,0.0,0.0,0.0,0.0,0.0,0.0,0.0,0.0,0.0,0.0,0.0,0.0,0.0,0.0,0.0,0.0,0.0,0.0,0.0,0.0,0.0,0.0,0.0,0.0,0.0,0.0,0.0,0.0,0.0,0.0,0.0,0.0,0.0,0.0,0.0,0.0,0.0,0.0,0.0,0.0,0.0,0.0,0.0,0.0,0.0,0.0,0.0,0.0,0.0,0.0,0.0,0.0,0.0,0.0,0.0,0.0,0.0,0.0,0.0,0.0,0.0,0.0,0.0,0.0,0.0,0.0,0.0,0.0,0.0,0.0,0.0,0.0,0.0,0.0,0.0,0.0,0.0,0.0,0.0,0.0,0.0,0.0,0.0,0.0,0.0,0.0,0.0,0.0,0.0,0.0,0.0,0.0,0.0,0.0,0.0,0.0,0.0,0.0,0.0,0.0,0.0,-2.0416,-2.0909,-2.1287,-2.1563,-2.188,-2.2175,0.0,0.0,0.0,0.0,0.0,0.0,0.0,0.0,0.0,0.0,0.0,0.0,0.0,0.0,0.0,0.0,0.0,0.0,0.0,0.0,0.0,0.0,0.0,0.0,0.0,0.0,0.0,0.0,0.0,0.0,0.0,0.0,0.0,0.0,0.0,0.0,0.0,0.0,0.0,0.0,0.0,0.0,0.0,0.0,0.0,0.0,0.0,0.0,0.0,0.0,0.0,0.0,0.0,0.0,0.0,0.0,0.0,0.0,0.0,0.0,0.0,0.0,0.0,0.0,0.0,0.0,0.0,0.0,0.0,0.0,0.0,0.0,0.0,0.0,0.0,0.0,0.0,0.0,0.0,0.0,0.0,0.0,0.0,0.0,0.0,0.0,0.0,0.0,0.0,0.0,0.0,0.0,0.0,0.0,0.0,0.0,0.0,0.0,0.0,0.0,0.0,0.0,0.0,0.0,0.0,0.0,0.0,0.0,0.0,-2.2225,-2.2261,-2.2426,-2.2649,-2.2747,-2.3051,-2.3629,0.0,0.0,0.0,0.0,0.0,0.0,0.0,0.0,0.0,0.0,0.0,0.0,0.0,0.0,0.0,0.0,0.0,0.0,0.0,0.0,0.0,0.0,0.0,0.0,0.0,0.0,0.0,0.0,0.0,0.0,0.0,0.0,0.0,0.0,0.0,0.0,0.0,0.0,0.0,0.0,0.0,0.0,0.0,0.0,0.0,0.0,0.0,0.0,0.0,0.0,0.0,0.0,0.0,0.0,0.0,0.0,0.0,0.0,0.0,0.0,0.0,0.0,0.0,0.0,0.0,0.0,0.0,0.0,0.0,0.0,0.0,0.0,0.0,0.0,0.0,0.0,0.0,0.0,0.0,0.0,0.0,0.0,0.0,0.0,0.0,0.0,0.0,0.0,0.0,0.0,0.0,0.0,0.0,0.0,0.0,0.0,0.0,0.0,0.0,0.0,0.0,0.0,0.0,0.0,0.0,0.0,0.0,0.0,-2.4519,-2.3702,-2.3376,-2.3588,-2.3247,-2.3496,0.0,0.0,0.0,0.0,0.0,0.0,0.0,0.0,0.0,0.0,0.0,0.0,0.0,0.0,0.0,0.0,0.0,0.0,0.0,0.0,0.0,0.0,0.0,0.0,0.0,0.0,0.0,0.0,0.0,0.0,0.0,0.0,0.0,0.0,0.0,0.0,0.0,0.0,0.0,0.0,0.0,0.0,0.0,0.0,0.0,0.0,0.0,0.0,0.0,0.0,0.0,0.0,0.0,0.0,0.0,0.0,0.0,0.0,0.0,0.0,0.0,0.0,0.0,0.0,0.0,0.0,0.0,0.0,0.0,0.0,0.0,0.0,0.0,0.0,0.0,0.0,0.0,0.0,0.0,0.0,0.0,0.0,0.0,0.0,0.0,0.0,0.0,0.0,0.0,0.0,0.0,0.0,0.0,0.0,0.0,0.0,0.0,0.0,0.0,0.0,0.0,0.0,0.0,0.0,0.0,0.0,0.0,0.0,0.0,-2.48,-2.4976,-2.4904,-2.4568,-2.4495,-2.4502,0.0,0.0,0.0,0.0,0.0,0.0,0.0,0.0,0.0,0.0,0.0,0.0,0.0,0.0,0.0,0.0,0.0,0.0,0.0,0.0,0.0,0.0,0.0,0.0,0.0,0.0,0.0,0.0,0.0,0.0,0.0,0.0,0.0,0.0,0.0,0.0,0.0,0.0,0.0,0.0,0.0,0.0,0.0,0.0,0.0,0.0,0.0,0.0,0.0,0.0,0.0,0.0,0.0,0.0,0.0,0.0,0.0,0.0,0.0,0.0,0.0,0.0,0.0,0.0,0.0,0.0,0.0,0.0,0.0,0.0,0.0,0.0,0.0,0.0,0.0,0.0,0.0,0.0,0.0,0.0,0.0,0.0,0.0,0.0,0.0,0.0,0.0,0.0,0.0,0.0,0.0,0.0,0.0,0.0,0.0,0.0,0.0,0.0,0.0,0.0,0.0,0.0,0.0,0.0,0.0,0.0,0.0,0.0,-2.5436,-2.5848,-2.6213,-2.6228,-2.5962,-2.5486,-2.5252,0.0,0.0,0.0,0.0,0.0,0.0,0.0,0.0,0.0,0.0,0.0,0.0,0.0,0.0,0.0,0.0,0.0,0.0,0.0,0.0,0.0,0.0,0.0,0.0,0.0,0.0,0.0,0.0,0.0,0.0,0.0,0.0,0.0,0.0,0.0,0.0,0.0,0.0,0.0,0.0,0.0,0.0,0.0,0.0,0.0,0.0,0.0,0.0,0.0,0.0,0.0,0.0,0.0,0.0,0.0,0.0,0.0,0.0,0.0,0.0,0.0,0.0,0.0,0.0,0.0,0.0,0.0,0.0,0.0,0.0,0.0,0.0,0.0,0.0,0.0,0.0,0.0,0.0,0.0,0.0,0.0,0.0,0.0,0.0,0.0,0.0,0.0,0.0,0.0,0.0,0.0,0.0,0.0,0.0,0.0,0.0,0.0,0.0,0.0,0.0,0.0,0.0,0.0,0.0,0.0,0.0,0.0,0.0,-2.6518,-2.7203,-2.7233,-2.7284,-2.7357,-2.6389,-2.5888,0.0,0.0,0.0,0.0,0.0,0.0,0.0,0.0,0.0,0.0,0.0,0.0,0.0,0.0,0.0,0.0,0.0,0.0,0.0,0.0,0.0,0.0,0.0,0.0,0.0,0.0,0.0,0.0,0.0,0.0,0.0,0.0,0.0,0.0,0.0,0.0,0.0,0.0,0.0,0.0,0.0,0.0,0.0,0.0,0.0,0.0,0.0,0.0,0.0,0.0,0.0,0.0,0.0,0.0,0.0,0.0,0.0,0.0,0.0,0.0,0.0,0.0,0.0,0.0,0.0,0.0,0.0,0.0,0.0,0.0,0.0,0.0,0.0,0.0,0.0,0.0,0.0,0.0,0.0,0.0,0.0,0.0,0.0,0.0,0.0,0.0,0.0,0.0,0.0,0.0,0.0,0.0,0.0,0.0,0.0,0.0,0.0,0.0,0.0,0.0,0.0,0.0,0.0,0.0,0.0,0.0,0.0,0.0,-2.6633,-2.7509,-2.7437,-2.7437,-2.7524,-2.7305,-2.7063,0.0,0.0,0.0,0.0,0.0,0.0,0.0,0.0,0.0,0.0,0.0,0.0,0.0,0.0,0.0,0.0,0.0,0.0,0.0,0.0,0.0,0.0,0.0,0.0,0.0,0.0,0.0,0.0,0.0,0.0,0.0,0.0,0.0,0.0,0.0,0.0,0.0,0.0,0.0,0.0,0.0,0.0,0.0,0.0,0.0,0.0,0.0,0.0,-3.8911,0.0,0.0,0.0,0.0,0.0,0.0,0.0,0.0,0.0,0.0,0.0,0.0,0.0,0.0,0.0,0.0,0.0,0.0,0.0,0.0,0.0,0.0,0.0,0.0,0.0,0.0,0.0,0.0,0.0,0.0,0.0,0.0,0.0,0.0,0.0,0.0,0.0,0.0,0.0,0.0,0.0,0.0,0.0,0.0,0.0,0.0,0.0,0.0,0.0,0.0,0.0,0.0,0.0,0.0,0.0,0.0,0.0,0.0,0.0,-2.7116,-2.756,-2.7524,-2.7524,-2.7675,-2.7725,-2.7523,0.0,0.0,0.0,0.0,0.0,0.0,0.0,0.0,0.0,0.0,0.0,0.0,0.0,0.0,0.0,0.0,0.0,0.0,0.0,0.0,0.0,0.0,0.0,0.0,0.0,0.0,0.0,0.0,0.0,0.0,0.0,0.0,0.0,0.0,0.0,0.0,0.0,0.0,0.0,0.0,0.0,0.0,0.0,0.0,0.0,0.0,0.0,0.0,0.0,0.0,0.0,0.0,0.0,0.0,0.0,0.0,0.0,0.0,0.0,0.0,0.0,0.0,0.0,0.0,0.0,0.0,0.0,0.0,0.0,0.0,0.0,0.0,0.0,0.0,0.0,0.0,0.0,0.0,0.0,0.0,0.0,0.0,0.0,0.0,0.0,0.0,0.0,0.0,0.0,0.0,0.0,0.0,0.0,0.0,0.0,0.0,0.0,0.0,0.0,0.0,0.0,0.0,0.0,0.0,0.0,0.0,0.0,-2.734,-2.756,-2.756,-2.756,-2.769,-2.779,-2.7905,-2.7746,-2.7248,0.0,0.0,0.0,0.0,0.0,0.0,0.0,0.0,0.0,0.0,0.0,0.0,0.0,0.0,0.0,0.0,0.0,0.0,0.0,0.0,0.0,0.0,0.0,0.0,0.0,0.0,0.0,0.0,0.0,0.0,0.0,0.0,0.0,0.0,0.0,0.0,0.0,0.0,-3.6865,-3.7644,0.0,0.0,0.0,0.0,0.0,0.0,0.0,0.0,-4.2624,0.0,0.0,0.0,0.0,0.0,0.0,0.0,0.0,0.0,0.0,0.0,0.0,0.0,0.0,0.0,0.0,0.0,0.0,0.0,0.0,0.0,0.0,0.0,0.0,0.0,0.0,0.0,0.0,0.0,0.0,0.0,0.0,0.0,0.0,0.0,0.0,0.0,0.0,0.0,0.0,0.0,0.0,0.0,0.0,0.0,0.0,0.0,0.0,0.0,0.0,0.0,0.0,0.0,0.0,0.0,0.0,-2.7395,-2.7565,-2.756,-2.756,-2.756,-2.769,-2.779,-2.792,-2.8057,-2.8179,0.0,0.0,0.0,0.0,0.0,0.0,0.0,0.0,0.0,0.0,0.0,0.0,0.0,0.0,0.0,0.0,0.0,0.0,0.0,0.0,0.0,0.0,0.0,0.0,0.0,0.0,0.0,0.0,0.0,0.0,0.0,0.0,0.0,0.0,0.0,0.0,0.0,0.0,0.0,-3.8973,-3.9315,0.0,0.0,0.0,0.0,0.0,0.0,0.0,0.0,-4.2758,0.0,0.0,0.0,0.0,0.0,0.0,0.0,0.0,0.0,0.0,0.0,0.0,0.0,0.0,0.0,0.0,0.0,0.0,0.0,0.0,0.0,0.0,0.0,0.0,0.0,0.0,0.0,0.0,0.0,0.0,0.0,0.0,0.0,0.0,0.0,0.0,0.0,0.0,0.0,0.0,0.0,0.0,0.0,0.0,0.0,0.0,0.0,0.0,0.0,0.0,0.0,0.0,0.0,0.0,0.0,-2.8068,-2.8113,-2.8278,-2.8644,-2.8607,-2.8726,-2.8934,-2.8985,-2.9037,0.0,0.0,0.0,0.0,0.0,0.0,0.0,0.0,0.0,0.0,0.0,0.0,0.0,0.0,0.0,0.0,0.0,0.0,0.0,0.0,0.0,0.0,0.0,0.0,0.0,0.0,0.0,0.0,0.0,0.0,0.0,0.0,0.0,0.0,0.0,0.0,0.0,0.0,0.0,0.0,-3.9642,-4.0219,-4.1046,0.0,0.0,0.0,0.0,0.0,0.0,-4.4105,-4.4105,0.0,0.0,0.0,0.0,0.0,0.0,0.0,0.0,0.0,0.0,0.0,0.0,0.0,0.0,0.0,0.0,0.0,0.0,0.0,0.0,0.0,0.0,0.0,0.0,0.0,0.0,0.0,0.0,0.0,0.0,0.0,0.0,0.0,0.0,0.0,0.0,0.0,0.0,0.0,0.0,0.0,0.0,0.0,0.0,0.0,0.0,0.0,0.0,0.0,0.0,0.0,0.0,0.0,0.0,0.0,-2.8592,-2.8742,-2.9056,-2.9549,-2.9594,-2.9741,-2.9993,-2.9993,-2.9898,0.0,0.0,0.0,0.0,0.0,0.0,0.0,0.0,0.0,0.0,0.0,0.0,0.0,0.0,0.0,0.0,0.0,0.0,0.0,0.0,0.0,0.0,0.0,0.0,0.0,0.0,0.0,0.0,0.0,0.0,0.0,0.0,0.0,0.0,0.0,0.0,0.0,0.0,0.0,0.0,0.0,-4.1066,-4.195,-4.2197,0.0,0.0,0.0,0.0,-4.4564,-4.5161,0.0,0.0,0.0,0.0,0.0,0.0,0.0,0.0,0.0,0.0,0.0,0.0,0.0,0.0,0.0,0.0,0.0,0.0,0.0,0.0,0.0,0.0,0.0,0.0,0.0,0.0,0.0,0.0,0.0,0.0,0.0,0.0,0.0,0.0,0.0,0.0,0.0,0.0,0.0,0.0,0.0,0.0,0.0,0.0,0.0,0.0,0.0,0.0,0.0,0.0,0.0,0.0,0.0,0.0,0.0,0.0,-2.8637,-2.9175,-2.949,-2.9579,-2.9594,-2.9741,-2.9993,-2.9993,-2.995,0.0,0.0,0.0,0.0,0.0,0.0,0.0,0.0,0.0,0.0,0.0,0.0,0.0,0.0,0.0,0.0,0.0,0.0,0.0,0.0,0.0,0.0,0.0,0.0,0.0,0.0,0.0,0.0,0.0,0.0,0.0,0.0,0.0,0.0,0.0,0.0,0.0,0.0,0.0,0.0,0.0,-4.197,-4.2816,-4.3544,-4.4061,0.0,0.0,-4.5432,-4.5451,-4.5528,0.0,0.0,0.0,0.0,0.0,0.0,0.0,0.0,0.0,0.0,0.0,0.0,0.0,0.0,0.0,0.0,0.0,0.0,0.0,0.0,0.0,0.0,0.0,0.0,0.0,0.0,0.0,0.0,0.0,0.0,0.0,0.0,0.0,0.0,0.0,0.0,0.0,0.0,0.0,0.0,0.0,0.0,0.0,0.0,0.0,0.0,0.0,0.0,0.0,0.0,0.0,0.0,0.0,0.0,0.0,-2.8955,-2.9654,-2.9953,-3.0298,-3.0672,-3.0687,-3.0799,-3.1131,-3.1131,-3.1083,0.0,0.0,0.0,0.0,0.0,0.0,0.0,0.0,0.0,0.0,0.0,0.0,0.0,0.0,0.0,0.0,0.0,0.0,0.0,0.0,0.0,0.0,0.0,0.0,0.0,0.0,0.0,0.0,0.0,0.0,0.0,0.0,0.0,0.0,0.0,0.0,0.0,0.0,0.0,0.0,0.0,0.0,-4.3605,-4.4083,0.0,0.0,0.0,-4.5586,-4.5586,0.0,0.0,0.0,0.0,0.0,0.0,0.0,0.0,0.0,0.0,0.0,0.0,0.0,0.0,0.0,0.0,0.0,0.0,0.0,0.0,0.0,0.0,0.0,0.0,0.0,0.0,0.0,0.0,0.0,0.0,0.0,0.0,0.0,0.0,0.0,0.0,0.0,0.0,0.0,0.0,0.0,0.0,0.0,0.0,0.0,0.0,0.0,0.0,0.0,0.0,0.0,0.0,0.0,0.0,0.0,0.0,0.0,-3.0477,-3.0672,-3.1016,-3.1495,-3.1467,-3.1655,-3.1996,-3.2012,0.0,0.0,0.0,0.0,0.0,0.0,0.0,0.0,0.0,0.0,0.0,0.0,0.0,0.0,0.0,0.0,0.0,0.0,0.0,0.0,0.0,0.0,0.0,0.0,0.0,0.0,0.0,-3.6348,0.0,0.0,0.0,0.0,0.0,0.0,0.0,0.0,0.0,0.0,0.0,0.0,0.0,0.0,-4.297,-4.4432,-4.4622,-4.4853,0.0,0.0,-4.5603,-4.564,-4.5676,-4.569,0.0,0.0,0.0,0.0,0.0,0.0,0.0,0.0,0.0,0.0,0.0,0.0,0.0,0.0,0.0,0.0,0.0,0.0,0.0,0.0,0.0,0.0,0.0,0.0,0.0,0.0,0.0,0.0,0.0,0.0,0.0,0.0,0.0,0.0,0.0,0.0,0.0,0.0,0.0,0.0,0.0,0.0,0.0,0.0,0.0,0.0,0.0,0.0,0.0,0.0,0.0,0.0,0.0,0.0,0.0,-3.0507,-3.1135,-3.148,-3.1467,-3.1467,-3.164,-3.1996,-3.2012,-3.19,0.0,0.0,0.0,0.0,0.0,0.0,0.0,0.0,0.0,0.0,0.0,0.0,0.0,0.0,0.0,0.0,0.0,0.0,0.0,0.0,0.0,0.0,0.0,0.0,0.0,0.0,0.0,0.0,0.0,0.0,0.0,0.0,0.0,0.0,0.0,0.0,0.0,0.0,0.0,0.0,0.0,-4.4451,-4.5374,-4.5509,-4.5528,0.0,0.0,-4.5622,-4.569,-4.569,-4.569,-4.57,0.0,0.0,0.0,0.0,0.0,0.0,0.0,0.0,0.0,0.0,0.0,0.0,0.0,0.0,0.0,0.0,0.0,0.0,0.0,0.0,0.0,0.0,0.0,0.0,0.0,0.0,0.0,0.0,0.0,0.0,0.0,0.0,0.0,0.0,0.0,0.0,0.0,0.0,0.0,0.0,0.0,0.0,0.0,0.0,0.0,0.0,0.0,0.0,0.0,0.0,0.0,0.0,0.0,-3.0108,-3.112,-3.1332,-3.1467,-3.1467,-3.1597,-3.1769,-3.1996,-3.2094,-3.2139,0.0,0.0,0.0,0.0,0.0,0.0,0.0,0.0,0.0,0.0,0.0,0.0,0.0,0.0,0.0,0.0,0.0,0.0,0.0,0.0,0.0,0.0,0.0,0.0,0.0,0.0,0.0,0.0,-3.9541,-4.0032,-4.0457,0.0,0.0,0.0,0.0,0.0,0.0,0.0,0.0,0.0,0.0,-4.4605,-4.547,-4.5586,0.0,0.0,-4.562,-4.5673,-4.569,-4.5735,-4.5776,-4.5824,-4.5622,0.0,0.0,0.0,0.0,0.0,0.0,0.0,0.0,0.0,0.0,0.0,0.0,0.0,0.0,0.0,0.0,0.0,0.0,0.0,0.0,0.0,0.0,0.0,0.0,0.0,0.0,0.0,0.0,0.0,0.0,0.0,0.0,0.0,0.0,0.0,0.0,0.0,0.0,0.0,0.0,0.0,0.0,0.0,0.0,0.0,0.0,0.0,0.0,0.0,0.0,0.0,0.0,-3.0417,-3.1452,-3.1467,-3.1539,-3.1597,-3.1727,-3.1898,-3.2038,-3.2135,-3.2318,0.0,0.0,0.0,0.0,0.0,0.0,0.0,0.0,0.0,0.0,0.0,0.0,0.0,0.0,0.0,0.0,0.0,0.0,0.0,0.0,0.0,0.0,0.0,0.0,0.0,0.0,0.0,0.0,-4.0015,-4.0444,-4.0489,0.0,0.0,0.0,0.0,0.0,0.0,0.0,0.0,0.0,0.0,-4.4893,-4.5509,-4.5586,-4.5586,-4.5586,-4.5657,-4.5709,-4.5719,-4.6003,-4.6247,-4.6319,0.0,0.0,0.0,0.0,0.0,0.0,0.0,0.0,0.0,0.0,0.0,0.0,0.0,0.0,0.0,0.0,0.0,0.0,0.0,0.0,0.0,0.0,0.0,0.0,0.0,0.0,0.0,0.0,0.0,0.0,-2.7561,0.0,0.0,0.0,0.0,0.0,0.0,0.0,0.0,0.0,0.0,0.0,0.0,0.0,0.0,0.0,0.0,0.0,0.0,0.0,0.0,0.0,0.0,-3.0821,-3.1452,-3.1467,-3.1597,-3.1784,-3.1799,-3.194,-3.2206,-3.2191,-3.2358,-3.2594,0.0,0.0,0.0,0.0,0.0,0.0,0.0,0.0,0.0,0.0,0.0,0.0,0.0,0.0,0.0,0.0,0.0,0.0,0.0,0.0,0.0,0.0,0.0,0.0,0.0,0.0,-4.0283,-4.046,-4.0489,0.0,0.0,0.0,0.0,0.0,0.0,0.0,0.0,0.0,0.0,-4.5009,-4.5566,-4.5586,-4.5586,-4.5605,-4.5605,-4.5676,-4.5742,-4.5844,-4.6577,-4.7211,0.0,0.0,0.0,0.0,0.0,0.0,0.0,0.0,0.0,0.0,0.0,0.0,0.0,0.0,0.0,0.0,0.0,0.0,0.0,0.0,0.0,0.0,0.0,0.0,0.0,0.0,0.0,-2.6796,-2.7426,0.0,0.0,0.0,0.0,0.0,0.0,0.0,0.0,0.0,0.0,0.0,-2.9616,-2.9595,0.0,0.0,0.0,0.0,0.0,0.0,0.0,0.0,0.0,0.0,0.0,0.0,-3.0836,-3.1495,-3.1467,-3.1597,-3.1784,-3.1898,-3.2053,-3.2342,-3.2398,-3.264,-3.3037,0.0,0.0,0.0,0.0,0.0,0.0,0.0,0.0,0.0,0.0,0.0,0.0,0.0,0.0,0.0,0.0,0.0,0.0,0.0,0.0,0.0,0.0,0.0,0.0,0.0,-4.0787,0.0,0.0,0.0,0.0,0.0,0.0,0.0,0.0,0.0,0.0,0.0,-4.4316,-4.4316,-4.5047,-4.5586,-4.5586,-4.5586,-4.5815,0.0,0.0,0.0,0.0,0.0,0.0,0.0,0.0,0.0,0.0,0.0,0.0,0.0,0.0,-4.7891,-4.7885,-4.7905,-4.7938,-4.7917,0.0,0.0,0.0,0.0,0.0,0.0,0.0,0.0,0.0,0.0,0.0,0.0,0.0,0.0,-2.7701,0.0,-2.8822,0.0,0.0,0.0,0.0,0.0,0.0,0.0,0.0,-3.0608,-3.0503,-3.0278,-3.0264,-3.0253,0.0,-3.0492,-3.0597,0.0,0.0,0.0,0.0,0.0,0.0,0.0,0.0,-3.1315,-3.2168,-3.2062,-3.2163,-3.2579,-3.268,-3.2894,-3.3218,-3.3208,-3.3365,-3.3745,-3.3938,-3.4023,0.0,0.0,0.0,0.0,0.0,0.0,0.0,0.0,0.0,0.0,0.0,0.0,0.0,0.0,0.0,0.0,0.0,0.0,0.0,0.0,0.0,0.0,0.0,-4.1932,0.0,0.0,0.0,0.0,0.0,0.0,0.0,0.0,0.0,-4.3528,-4.4239,-4.4739,-4.4759,-4.524,-4.5586,-4.5586,0.0,0.0,0.0,0.0,0.0,0.0,0.0,-4.908,-4.9136,-4.9457,-4.9705,-4.9699,-4.9699,-4.9699,-4.9694,0.0,0.0,-4.8923,-4.882,-4.8825,-4.8835,-4.9055,-4.9254,-4.9278,-4.9547,-4.9773,0.0,0.0,0.0,0.0,0.0,0.0,0.0,0.0,-2.8316,-2.9458,0.0,-3.043,0.0,0.0,0.0,0.0,0.0,-3.344,0.0,0.0,-3.2511,-3.2213,-3.1571,-3.1541,-3.1526,-3.1644,-3.2213,-3.2512,-3.2452,-3.124,0.0,0.0,0.0,0.0,0.0,0.0,-3.2228,-3.3395,-3.3051,-3.3229,-3.3924,-3.4118,-3.437,-3.4705,-3.4462,-3.4451,-3.4723,-3.4538,-3.4642,-3.5172,-3.5283,0.0,0.0,0.0,0.0,0.0,0.0,0.0,0.0,0.0,0.0,0.0,0.0,0.0,0.0,0.0,0.0,0.0,0.0,0.0,0.0,-4.2355,0.0,0.0,0.0,0.0,0.0,0.0,0.0,0.0,0.0,0.0,-4.4335,-4.5066,-4.5586,-4.5566,0.0,0.0,0.0,0.0,-4.695,-4.7024,-4.7764,-4.841,-4.8582,-4.935,-4.9982,-5.0036,0.0,0.0,-5.1375,-5.1375,-5.1336,-5.1375,-5.1297,-5.0863,-4.9235,-4.9044,-4.9052,-4.9052,-4.9657,-5.0129,-5.0266,-5.0754,-5.1271,-2.8286,0.0,0.0,0.0,0.0,-2.7977,-2.8318,-2.8947,-2.9441,-3.028,-3.1228,-3.1546,0.0,0.0,0.0,0.0,0.0,0.0,-3.3426,-3.3231,-3.3185,-3.311,-3.2946,-3.2931,-3.2931,-3.2946,-3.3125,-3.3215,-3.32,-3.2826,-3.2647,-3.2647,0.0,0.0,0.0,0.0,-3.3125,-3.3469,-3.3517,-3.3683,-3.3985,-3.4283,-3.4635,-3.5153,-3.53,-3.5514,-3.5828,-3.6069,-3.629,-3.663,-3.6374,0.0,0.0,0.0,0.0,0.0,0.0,0.0,0.0,0.0,0.0,0.0,0.0,0.0,0.0,0.0,0.0,0.0,0.0,0.0,-4.3292,-4.3101,-4.3096,0.0,0.0,0.0,0.0,0.0,0.0,0.0,0.0,0.0,-4.5143,-4.5432,-4.5586,0.0,0.0,-4.6542,-4.6523,-4.7328,-4.8133,-4.8803,0.0,0.0,0.0,-5.0677,-5.0913,-5.0985,-5.1221,-5.1398,-5.1402,-5.1398,-5.1394,-5.1394,-5.1394,-5.1216,-5.0806,-5.066,-5.0656,-5.0705,-5.0878,-5.1043,-5.1066,-5.1257,-5.1387,-2.9046,-2.8762,-2.8787,-2.8773,-2.8705,-2.8791,-2.9086,-2.9504,-3.0006,-3.0842,-3.1914,-3.2119,-3.2809,-3.3913,-3.4025,0.0,0.0,0.0,-3.414,-3.3865,-3.3871,-3.3749,-3.3517,-3.3481,-3.3499,-3.3499,-3.3769,-3.3888,-3.3888,-3.4158,-3.4292,-3.4262,0.0,0.0,-3.389,-3.3619,-3.3769,-3.4262,-3.4286,-3.4455,-3.4759,-3.5276,-3.5692,-3.6184,-3.6254,-3.649,-3.6772,-3.6908,-3.7102,-3.7353,-3.7179,-3.7195,0.0,0.0,0.0,0.0,0.0,0.0,0.0,0.0,0.0,0.0,0.0,-3.7161,0.0,0.0,0.0,0.0,-4.2257,-4.3409,-4.4576,-4.423,0.0,0.0,0.0,0.0,0.0,0.0,0.0,-4.4701,-4.4797,-4.4989,-4.5528,-4.5893,-4.6105,-4.6105,-4.6581,-4.7039,-4.7349,0.0,-4.9029,-4.9618,-5.0051,-5.0522,-5.1117,-5.1245,-5.1323,-5.1377,-5.1394,-5.1394,-5.1386,-5.1386,-5.1384,-5.1384,-5.14,-5.1398,-5.1398,-5.1389,-5.1398,-5.1389,-5.1394,-5.1394,-5.1394,-5.1387,-5.1387,-2.9736,-2.9917,-2.988,-2.9669,-2.9276,-2.9512,-2.9585,-2.972,-3.0292,-3.135,-3.2656,-3.2419,-3.3412,-3.5148,-3.5374,0.0,-3.5489,-3.5489,-3.515,-3.4564,-3.4554,-3.4263,-3.3644,-3.3654,-3.3664,-3.3679,-3.4262,-3.4562,-3.4592,-3.519,-3.5489,-3.5459,-3.4277,-3.398,-3.4538,-3.3995,-3.4262,-3.5474,-3.5178,-3.5413,-3.6085,-3.6677,-3.7165,-3.7401,-3.7278,-3.7351,-3.763,-3.7392,-3.7419,-3.7669,-3.7734,-3.7956,-3.8235,0.0,0.0,0.0,0.0,0.0,0.0,0.0,0.0,0.0,0.0,0.0,0.0,0.0,0.0,0.0,-4.3232,0.0,-4.5304,-4.5438,0.0,0.0,0.0,-4.4412,-4.4412,-4.4393,-4.472,-4.549,0.0,0.0,-4.5701,0.0,-4.6951,-4.7067,-4.712,-4.7405,-4.8214,-4.9109,-4.9734,-4.9857,-5.0558,-5.1139,-5.1191,-5.1278,-5.1316,-5.1386,-5.1389,-5.14,-5.1387,-5.1387,-5.1387,-5.1387,-5.1385,-5.14,-5.14,-5.1391,-5.1398,-5.1402,-5.14,-5.1387,-5.1387,-5.1387,-5.1387,-3.0848,-3.0984,-3.0583,-3.0327,-3.01,-3.015,-3.055,-3.1096,-3.1505,-3.2146,-3.2961,-3.3346,-3.4057,-3.5001,-3.5148,-3.5374,-3.5489,-3.5489,-3.5379,-3.5225,-3.528,-3.5185,-3.5026,-3.5036,-3.5026,-3.504,-3.5175,-3.5265,-3.5265,-3.5429,-3.5489,-3.5489,-3.5175,-3.51,-3.522,-3.5085,-3.5175,-3.5489,-3.571,-3.6073,-3.6739,-3.7044,-3.7314,-3.7743,-3.8003,-3.8286,-3.8616,-3.8834,-3.9039,-3.9278,-3.8923,-3.8831,-3.9084,-3.8477,0.0,0.0,0.0,0.0,0.0,0.0,0.0,0.0,0.0,-3.957,-4.0835,0.0,-4.2222,0.0,-4.4056,-4.4963,-4.5341,-4.5419,0.0,0.0,-4.5278,-4.5278,-4.5278,-4.5278,-4.5374,-4.5566,-4.5586,-4.5855,-4.6509,-4.6778,-4.7375,-4.8586,-4.8833,-4.8979,-4.9264,-5.0059,-5.0681,-5.0763,-5.0972,-5.119,-5.1261,-5.1336,-5.1386,-5.1394,-5.1398,-5.1391,-5.1387,-5.1387,-5.1387,-5.1387,-5.1386,-5.1386,-5.1387,-5.1386,-5.1387,-5.1385,-5.1386,-5.1387,-5.1387,-5.1387,-5.1387,-3.1317,-3.1373,-3.1072,-3.101,-3.1099,-3.0586,-3.0836,-3.1622,-3.1936,-3.2417,-3.3086,-3.3785,-3.4414,-3.4868,-3.5082,-3.5294,-3.5504,-3.5489,-3.5489,-3.5489,-3.5489,-3.5489,-3.5489,-3.5489,-3.5489,-3.5489,-3.5489,-3.5489,-3.5489,-3.5489,-3.5489,-3.5489,-3.5489,-3.5489,-3.5489,-3.5489,-3.5489,-3.5504,-3.5861,-3.6304,-3.6954,-3.715,-3.7492,-3.796,-3.8375,-3.8721,-3.9128,-3.9498,-3.9747,-3.9868,-3.9648,-3.9578,-3.9773,-3.92,-3.8849,0.0,0.0,0.0,0.0,0.0,0.0,0.0,0.0,0.0,0.0,0.0,-4.2934,-4.369,-4.4586,-4.517,-4.5338,-4.5419,-4.5476,-4.555,-4.5586,-4.5586,-4.5586,-4.5586,-4.574,-4.6124,-4.6182,-4.649,-4.7317,-4.7759,-4.8336,-4.9335,-4.9812,-5.0096,-5.0168,-5.067,-5.1053,-5.1101,-5.1144,-5.122,-5.1335,-5.1386,-5.1398,-5.1385,-5.1389,-5.1394,-5.1387,-5.1387,-5.1387,-5.1387,-5.1387,-5.1387,-5.1387,-5.1387,-5.1387,-5.1387,-5.1387,-5.1387,-5.1387,-5.1387,-5.1387,-3.1612,-3.1599,-3.1524,-3.1838,-3.2098,-3.1112,-3.112,-3.1835,-3.2152,-3.2722,-3.3409,-3.4166,-3.4782,-3.5171,-3.5333,-3.5547,-3.5744,-3.5744,-3.5729,-3.5729,-3.5744,-3.5759,-3.5708,-3.5774,-3.5714,-3.5639,-3.5639,-3.5594,-3.5504,-3.5489,-3.5489,-3.5489,-3.5489,-3.5489,-3.5489,-3.5489,-3.5504,-3.5569,-3.5861,-3.6304,-3.6999,-3.7134,-3.746,-3.81,-3.8567,-3.8958,-3.9336,-3.969,-3.9901,-3.9902,-4.0037,-4.0188,-4.0288,-3.9822,-3.965,0.0,-3.9599,0.0,0.0,0.0,0.0,0.0,0.0,0.0,0.0,-4.2775,-4.3324,-4.4495,-4.4889,-4.5125,-4.5275,-4.538,-4.5476,-4.5495,-4.555,-4.5624,-4.574,-4.574,-4.6105,-4.6951,-4.7048,-4.7375,-4.8182,-4.8952,-4.9413,-4.97,-5.0275,-5.0696,-5.0771,-5.0941,-5.1101,-5.1081,-5.1175,-5.1248,-5.1356,-5.1396,-5.1398,-5.1394,-5.1398,-5.1403,-5.1387,-5.1387,-5.1387,-5.1387,-5.1387,-5.1387,-5.1387,-5.1387,-5.1387,-5.1387,-5.1387,-5.1387,-5.1387,-5.1387,-5.1387,-3.2754,-3.2717,-3.2516,-3.2504,-3.2713,-3.2434,-3.2527,-3.2988,-3.3374,-3.4154,-3.5209,-3.5353,-3.5867,-3.6527,-3.6541,-3.6734,-3.7045,-3.7045,-3.7053,-3.7067,-3.7053,-3.7067,-3.7064,-3.7067,-3.6776,-3.6327,-3.6297,-3.6028,-3.5504,-3.5489,-3.5489,-3.5489,-3.5489,-3.5489,-3.5489,0.0,0.0,0.0,-3.5973,-3.6289,-3.6999,-3.7254,-3.7594,-3.81,-3.8678,0.0,-3.9437,-3.9761,-3.9935,-4.0054,-4.007,0.0,0.0,0.0,0.0,0.0,0.0,0.0,0.0,0.0,0.0,0.0,-4.2501,-4.3075,-4.3376,-4.3701,-4.408,-4.4496,-4.477,-4.5014,-4.5192,-4.5277,-4.538,-4.5495,-4.5513,-4.58,-4.6547,-4.6644,-4.6971,-4.7759,-4.7894,-4.8202,-4.9009,-4.9317,-4.9663,-5.0317,-5.0605,-5.0738,-5.0793,-5.096,-5.1081,-5.1095,-5.1197,-5.1304,-5.1388,-5.1396,-5.1394,-5.1402,-5.14,-5.1386,-5.1387,-5.1387,-5.1387,-5.1387,-5.1387,-5.1387,-5.1387,-5.1387,-5.1387,-5.1387,-5.1387,-5.1387,-5.1387,-5.1387,-5.1387,-3.3154,0.0,-3.3094,-3.3148,0.0,-3.3502,-3.3819,-3.4206,-3.4136,-3.4663,-3.5711,-3.5711,-3.6158,-3.691,-3.691,-3.7104,-3.7404,-3.7404,-3.7404,-3.7351,-3.7404,-3.7357,-3.7411,-3.7357,-3.724,-3.6941,-3.6941,-3.6761,-3.6447,-3.6447,-3.6447,-3.6447,-3.6432,-3.6445,-3.6451,-3.614,-3.6008,-3.5988,-3.5988,-3.6304,-3.6938,-3.727,-3.7653,-3.8246,0.0,0.0,0.0,0.0,0.0,0.0,0.0,0.0,0.0,0.0,0.0,-4.0412,-4.0697,-4.0918,-4.0943,-4.1608,-4.2057,-4.2303,-4.3012,-4.3545,-4.3689,-4.406,-4.4306,-4.444,-4.4712,-4.4895,-4.5038,-4.5211,-4.5319,-4.5419,-4.586,-4.6358,-4.6799,-4.7241,-4.7817,-4.8567,-4.8759,-4.9067,-4.9933,-5.0029,-5.0183,-5.0606,-5.0683,-5.072,-5.0793,-5.0929,-5.102,-5.1082,-5.1219,-5.1304,-5.1336,-5.1391,-5.139,-5.1398,-5.1396,-5.1385,-5.1387,-5.1387,-5.1387,-5.1387,-5.1387,-5.1387,-5.1387,-5.1387,-5.1387,-5.1387,-5.1387,-5.1387,-5.1387,-5.1387,-5.1387,-3.324,-3.3398,-3.3484,-3.3738,-3.416,-3.441,-3.4825,-3.5251,0.0,0.0,0.0,-3.6039,-3.6505,-3.7234,-3.7249,-3.743,-3.7764,-3.7749,-3.7784,-3.7793,-3.7784,-3.7784,-3.7778,-3.7769,-3.7704,-3.7584,-3.7584,-3.7524,-3.7404,-3.7404,-3.7404,-3.7404,-3.7404,-3.7383,-3.7375,-3.694,-3.6557,-3.6353,-3.608,-3.6289,-3.7015,-3.727,-3.7727,-3.8335,-3.875,-3.9185,-3.9642,-3.9781,-3.9952,-4.0054,-4.0087,-4.0087,-4.0138,-4.0337,-4.06,-4.084,-4.1198,-4.1604,-4.2037,-4.2269,-4.2552,-4.2918,-4.3286,-4.356,-4.3788,-4.4072,-4.4296,-4.4401,-4.4613,-4.4789,-4.4895,-4.5274,-4.5485,-4.5526,-4.6396,-4.7031,-4.7281,-4.7857,-4.8644,-4.9452,-4.9625,-4.9875,-5.0548,-5.0644,-5.0683,-5.0683,-5.0702,-5.0739,-5.0793,-5.0877,-5.0981,-5.1101,-5.121,-5.1276,-5.1303,-5.1355,-5.1377,-5.1394,-5.1389,-5.14,-5.1387,-5.1387,-5.1387,-5.1387,-5.1387,-5.1387,-5.1387,-5.1387,-5.1387,-5.1387,-5.1387,-5.1387,-5.1387,-5.1387,-5.1387,-3.3398,-3.3386,-3.3823,-3.4147,-3.4397,-3.4825,-3.5494,-3.6204,-3.6297,-3.6702,-3.7353,-3.7505,-3.7955,-3.8531,-3.8517,-3.8765,-3.914,-3.914,-3.914,0.0,-3.9155,-3.9155,-3.9113,-3.9155,-3.8826,-3.8287,-3.8257,-3.7958,-3.7464,-3.7419,-3.7404,-3.7419,-3.7404,-3.7375,-3.7353,-3.7323,-3.7413,-3.7704,-3.6565,-3.6289,-3.7015,-3.7254,-3.7653,-3.8116,-3.8694,-3.9094,-3.9379,-3.9677,-3.9918,-3.9934,-4.0037,-4.0087,-4.0138,-4.0339,-4.0554,-4.0745,-4.1152,-4.1515,-4.1823,-4.2103,-4.2508,-4.3009,-4.3233,-4.3474,-4.3775,-4.3962,-4.4128,-4.4383,-4.4515,-4.4632,-4.4927,-4.5675,-4.6172,-4.6383,-4.7195,-4.8024,-4.8759,-4.9009,-4.9471,-5.0337,-5.051,-5.0491,-5.0644,-5.0683,-5.0683,-5.0683,-5.0683,-5.074,-5.0793,-5.0909,-5.1015,-5.1101,-5.1159,-5.123,-5.1292,-5.1336,-5.1386,-5.139,-5.1398,-5.1391,-5.1387,-5.1387,-5.1387,-5.1387,-5.1387,-5.1387,-5.1387,-5.1387,-5.1387,-5.1387,-5.1387,-5.1387,-5.1387,-5.1387,-5.1387,-3.3484,-3.3641,-3.4076,-3.441,-3.4673,-3.5192,-3.5899,-3.6744,-3.6951,-3.7272,-3.761,-3.7915,-3.8366,-3.8797,-3.8943,-3.9104,-3.9424,-3.9424,-3.9424,-3.9424,-3.9424,-3.9424,-3.9424,-3.9424,-3.9245,-3.896,-3.8945,-3.8796,-3.8527,-3.8497,-3.8497,-3.8497,-3.8497,-3.8317,-3.7973,-3.7953,-3.7928,-3.8022,-3.74,-3.7391,-3.8091,-3.8009,-3.8166,-3.8653,-3.8867,-3.9023,-3.9272,-3.9642,-3.9798,-3.9883,-4.0037,-4.0087,-4.0138,-4.0356,-4.0571,-4.0697,-4.1105,-4.1408,-4.1692,-4.2103,-4.253,-4.2973,-4.3142,-4.3356,-4.3642,-4.3873,-4.4067,-4.4285,-4.442,-4.4739,-4.5323,-4.5931,-4.6478,-4.7038,-4.793,-4.8668,-4.9156,-4.9717,-5.018,-5.0567,-5.0663,-5.0683,-5.0683,-5.0683,-5.0683,-5.0683,-5.0683,-5.0702,-5.0757,-5.0844,-5.0975,-5.1069,-5.1132,-5.12,-5.1287,-5.1328,-5.1362,-5.1381,-5.139,-5.1385,-5.1402,-5.1386,-5.1387,-5.1387,-5.1387,-5.1387,-5.1387,-5.1387,-5.1387,-5.1387,-5.1387,-5.1387,-5.1387,-5.1387,-5.1387,-3.3832,-3.4088,-3.4379,-3.466,-3.5099,-3.5696,-3.6383,-3.6978,-3.7266,-3.751,-3.7763,-3.8127,-3.8427,-3.8782,-3.9017,-3.9192,-3.9352,-3.9424,-3.9424,-3.9424,-3.9424,-3.9424,-3.9424,-3.9424,-3.9424,-3.9424,-3.9424,-3.9424,-3.9424,-3.9424,-3.9424,-3.9424,-3.9424,-3.914,-3.8631,-3.8641,-3.8546,-3.844,-3.8463,-3.8616,-3.8996,-3.8717,-3.8835,-3.936,-3.9251,-3.927,-3.9429,-3.9771,-3.9914,-3.9883,-3.9986,-4.0087,-4.0138,-4.0339,-4.0554,-4.0666,-4.0995,-4.1363,-4.1692,-4.2145,-4.2552,-4.286,-4.3068,-4.3359,-4.3738,-4.4026,-4.4252,-4.4395,-4.4632,-4.5077,-4.5933,-4.6501,-4.6999,-4.7813,-4.87,-4.9289,-4.9453,-5.0076,-5.0563,-5.0603,-5.0663,-5.0663,-5.0683,-5.0683,-5.0683,-5.0702,-5.0683,-5.0682,-5.0701,-5.0793,-5.0913,-5.102,-5.1063,-5.1117,-5.124,-5.1284,-5.1303,-5.1386,-5.1386,-5.1398,-5.1394,-5.1384,-5.1387,-5.1387,-5.1387,-5.1387,-5.1387,-5.1387,-5.1387,-5.1387,-5.1387,-5.1387,-5.1387,-5.1387,-5.1387,-3.4779,-3.5044,-3.491,-3.5072,-3.5656,-3.6518,-3.6874,-3.707,-3.7634,-3.7936,-3.8127,-3.8366,-3.8575,-3.8782,-3.9031,-3.9192,-3.9424,-3.9424,-3.9424,-3.9424,-3.9424,-3.9424,-3.9424,-3.9424,-3.9424,-3.9424,-3.9424,-3.9424,-3.9424,-3.9424,-3.9424,-3.9424,-3.9424,-3.9394,-3.932,-3.9277,-3.9448,-3.9829,-3.9829,-3.955,-3.9025,-3.9172,-3.9455,-3.9902,-4.0318,-4.027,-3.9893,-4.0413,-4.0364,-3.9813,-4.002,-4.0138,-4.0155,-4.0355,-4.0485,-4.0534,-4.0931,-4.1408,-4.1919,-4.2246,-4.2544,-4.2775,-4.3121,-4.3652,-4.451,-4.4687,-4.482,-4.5124,-4.5252,-4.5761,-4.6757,-4.7608,-4.8172,-4.8579,-4.9423,-5.0097,-5.013,-5.0333,-5.0457,-5.0582,-5.0603,-5.0623,-5.0663,-5.0683,-5.0683,-5.0683,-5.0702,-5.0702,-5.0682,-5.0757,-5.0827,-5.0925,-5.1029,-5.1088,-5.1147,-5.123,-5.1281,-5.1317,-5.1372,-5.139,-5.1385,-5.1387,-5.1387,-5.1387,-5.1387,-5.1387,-5.1387,-5.1387,-5.1387,-5.1387,-5.1387,-5.1387,-5.1387,-5.1387,-5.1387,-3.5535,-3.583,-3.569,-3.5967,-3.6484,-3.6837,-3.7203,-3.761,-3.7939,-3.8192,-3.8427,-3.8738,-3.887,-3.9017,-3.9177,-3.9337,-3.9424,-3.9424,-3.9424,-3.9424,-3.9424,-3.9424,-3.9424,-3.9424,-3.9424,-3.9424,-3.9424,-3.9424,-3.9424,-3.9424,-3.9424,-3.9424,-3.9424,-3.9424,-3.9424,-3.9424,-3.9553,-3.9854,-3.9925,-3.9986,-3.9926,-3.9919,-4.0166,-4.0606,-4.0723,-4.0678,-4.0631,-4.1122,-4.1318,-4.107,-4.1256,-4.1206,-4.0764,-4.095,-4.0878,-4.0585,-4.0948,-4.1583,-4.2458,-4.2797,-4.325,-4.405,-4.4336,-4.4746,-4.5169,-4.5441,-4.5803,-4.6313,-4.6205,-4.6488,-4.7522,-4.8037,-4.857,-4.9284,-4.9789,-5.0063,-5.0231,-5.0302,-5.0371,-5.0478,-5.0562,-5.0603,-5.0643,-5.0663,-5.0683,-5.0683,-5.0683,-5.0702,-5.0702,-5.072,-5.0775,-5.0825,-5.0921,-5.1023,-5.1081,-5.118,-5.1239,-5.1308,-5.1369,-5.1396,-5.1394,-5.1394,-5.1387,-5.1386,-5.1387,-5.1387,-5.1387,-5.1387,-5.1387,-5.1387,-5.1387,-5.1387,-5.1387,-5.1387,-5.1387,-3.6283,-3.6643,-3.6797,-3.7112,-3.7498,-3.7507,-3.7841,-3.8222,-3.8295,-3.8473,-3.8664,-3.8958,-3.9104,-3.9192,-3.9337,-3.9424,-3.9424,-3.9424,-3.9424,-3.9424,-3.9424,-3.9424,-3.9424,-3.9424,-3.9424,-3.9424,-3.9424,-3.9424,-3.9424,-3.9424,-3.9424,-3.9424,-3.9424,-3.9424,-3.9424,-3.9424,-3.9481,-3.9696,-3.991,-4.0207,-4.0447,-4.0536,-4.0763,-4.1215,-4.1249,-4.1238,-4.1278,-4.1797,-4.1994,-4.1904,-4.2121,-4.2005,-4.1577,-4.1613,-4.1579,-4.13,-4.1618,-4.2265,-4.3172,-4.3448,-4.4007,-4.489,-4.5236,-4.5544,-4.5901,-4.6177,-4.6746,-4.7481,-4.7256,-4.7441,-4.8151,-4.844,-4.8886,-4.9665,-4.9843,-4.9978,-5.0108,-5.0207,-5.0302,-5.039,-5.0478,-5.0542,-5.0603,-5.0643,-5.0683,-5.0683,-5.0683,-5.0683,-5.0702,-5.0683,-5.0739,-5.0793,-5.0861,-5.0956,-5.1076,-5.1136,-5.119,-5.1276,-5.133,-5.1361,-5.1386,-5.1389,-5.14,-5.1387,-5.1387,-5.1387,-5.1387,-5.1387,-5.1387,-5.1387,-5.1387,-5.1387,-5.1387,-5.1387,-5.1387,-3.7253,-3.7678,-3.8212,-3.8503,-3.8788,-3.8796,-3.8953,-3.9117,-3.8722,-3.8694,-3.9076,-3.909,-3.9192,-3.9352,-3.9424,-3.9424,-3.9424,-3.9424,-3.9424,-3.9424,-3.9424,-3.9424,-3.9424,-3.9424,-3.9424,-3.9424,-3.9424,-3.9424,-3.9424,-3.9424,-3.9424,-3.9424,-3.9424,-3.9424,-3.9424,-3.9424,-3.9481,-3.9696,-3.9925,-4.0137,-4.047,-4.0851,-4.1292,-4.1722,-4.2157,-4.2116,-4.2005,-4.2294,-4.2302,-4.1971,-4.2126,-4.2202,-4.2236,-4.2356,-4.2551,-4.2875,-4.3155,-4.3528,-4.3973,-4.42,-4.4609,-4.504,-4.5359,-4.5736,-4.6629,-4.687,-4.7387,-4.831,-4.8292,-4.8421,-4.8723,-4.894,-4.9171,-4.9408,-4.9712,-4.9871,-4.9906,-5.0089,-5.0212,-5.0302,-5.039,-5.0478,-5.0582,-5.0643,-5.0683,-5.0683,-5.0683,-5.0683,-5.0702,-5.0683,-5.072,-5.0756,-5.0844,-5.0948,-5.1067,-5.1108,-5.1159,-5.1249,-5.13,-5.133,-5.1357,-5.1398,-5.1396,-5.1385,-5.1387,-5.1387,-5.1387,-5.1387,-5.1387,-5.1387,-5.1387,-5.1387,-5.1387,-5.1387,-5.1484,-3.7954,-3.841,-3.9018,-3.9295,-3.9321,-3.9592,-3.99,-3.9974,-3.9639,-3.9607,-3.9698,-3.9458,-3.9337,-3.9424,-3.9424,-3.9424,-3.9424,-3.9424,-3.9424,-3.9424,-3.9424,-3.9424,-3.9424,-3.9424,-3.9424,-3.9424,-3.9424,-3.9424,-3.9424,-3.9424,-3.9424,-3.9424,-3.9424,-3.9424,-3.9424,-3.9424,-3.9424,-3.9553,-3.9854,-4.0066,-4.0207,-4.0761,-4.1236,-4.1538,-4.2109,-4.2504,-4.2736,-4.3036,-4.3232,-4.331,-4.3418,-4.3331,-4.3014,-4.2751,-4.2705,-4.2877,-4.3279,-4.3829,-4.4523,-4.494,-4.5516,-4.6311,-4.6608,-4.6889,-4.7463,-4.7691,-4.7972,-4.8289,-4.8457,-4.8569,-4.8714,-4.8925,-4.9127,-4.9384,-4.9506,-4.9683,-4.9871,-4.9959,-5.0063,-5.0231,-5.0367,-5.05,-5.0582,-5.0663,-5.0683,-5.0683,-5.0683,-5.0683,-5.0683,-5.0683,-5.0721,-5.072,-5.0793,-5.088,-5.0975,-5.1056,-5.1125,-5.119,-5.1276,-5.1323,-5.138,-5.1386,-5.1389,-5.14,-5.1385,-5.1387,-5.1387,-5.1387,-5.1387,-5.1387,-5.1387,-5.1387,-5.1387,-5.1504,-5.1777,-3.8871,-3.9416,-3.9985,-4.0248,-4.0287,-4.0536,-4.0728,-4.0945,-4.0575,-4.0457,-4.0442,-4.0173,-3.9948,-3.9753,-3.9738,-3.9604,-3.9439,-3.9424,-3.9424,-3.9424,-3.9424,-3.9424,-3.9424,-3.9424,-3.9424,-3.9424,-3.9424,-3.9424,-3.9424,-3.9424,-3.9424,-3.9424,-3.9424,-3.9424,-3.9424,-3.9424,-3.9424,-3.9496,-3.9696,-3.994,-4.0081,-4.0624,-4.1018,-4.1323,-4.1931,-4.2508,-4.3007,-4.3267,-4.3645,-4.4039,-4.4196,-4.4074,-4.3792,-4.3571,-4.344,-4.3493,-4.3955,-4.4513,-4.518,-4.564,-4.6252,-4.7069,-4.733,-4.756,-4.7951,-4.809,-4.8169,-4.8286,-4.8363,-4.8476,-4.8569,-4.8714,-4.8925,-4.9225,-4.9371,-4.9476,-4.9712,-4.9824,-4.9986,-5.0163,-5.0348,-5.0478,-5.0542,-5.0604,-5.0663,-5.0683,-5.0683,-5.0683,-5.0683,-5.0683,-5.0683,-5.0701,-5.0775,-5.0827,-5.0929,-5.1034,-5.112,-5.1189,-5.1249,-5.132,-5.1369,-5.1377,-5.1398,-5.1391,-5.1387,-5.1387,-5.1387,-5.1387,-5.1387,-5.1387,-5.1387,-5.1387,-5.1523,-5.1699,-5.2129,-3.9807,-4.056,-4.093,-4.1337,-4.1681,-4.1522,-4.1682,-4.1858,-4.1371,-4.1252,-4.1308,-4.1294,-4.0876,-4.0502,-4.0412,-4.0083,-3.9679,-3.9574,-3.9484,-3.9424,-3.9424,-3.9424,-3.9424,-3.9424,-3.9424,-3.9424,-3.9424,-3.9424,-3.9424,-3.9424,-3.9424,-3.9424,-3.9424,-3.9424,-3.9424,-3.9424,-3.9424,-3.9424,-3.9625,-3.9839,-4.0011,-4.0331,-4.0799,-4.1256,-4.1686,-4.2206,-4.2837,-4.301,-4.3438,-4.3956,-4.409,-4.4257,-4.4519,-4.4644,-4.4875,-4.4898,-4.5407,-4.5751,-4.5935,-4.6262,-4.6613,-4.7122,-4.7259,-4.7536,-4.7907,-4.801,-4.8111,-4.8267,-4.8306,-4.8344,-4.8494,-4.8587,-4.8768,-4.903,-4.9262,-4.9384,-4.9476,-4.9712,-4.9959,-5.0163,-5.0302,-5.0393,-5.0481,-5.0563,-5.0623,-5.0663,-5.0683,-5.0683,-5.0683,-5.0683,-5.0683,-5.0702,-5.0757,-5.0829,-5.0913,-5.101,-5.1102,-5.1186,-5.123,-5.1284,-5.1336,-5.1372,-5.1386,-5.1385,-5.1384,-5.1387,-5.1387,-5.1387,-5.1387,-5.1387,-5.1387,-5.1582,-5.1855,-5.2168,-5.2695,-4.0243,-4.0787,-4.1269,-4.1688,-4.2034,-4.2208,-4.2401,-4.2654,-4.2228,-4.206,-4.2013,-4.1579,-4.1265,-4.1115,-4.107,-4.095,-4.0741,-4.0322,-3.9873,-3.9514,-3.9439,-3.9424,-3.9424,-3.9424,-3.9424,-3.9424,-3.9424,-3.9424,-3.9424,-3.9424,-3.9424,-3.9424,-3.9424,-3.9424,-3.9424,-3.9424,-3.9424,-3.9409,-3.9625,-3.9768,-3.9996,-4.0331,-4.0746,-4.1169,-4.1472,-4.1996,-4.2508,-4.2899,-4.3328,-4.3747,-4.3956,-4.4243,-4.4553,-4.4793,-4.4886,-4.5032,-4.5336,-4.5598,-4.5871,-4.6235,-4.6613,-4.6955,-4.7205,-4.754,-4.7928,-4.7984,-4.809,-4.8267,-4.8324,-4.8363,-4.8475,-4.855,-4.8679,-4.8909,-4.9116,-4.9262,-4.9434,-4.9712,-4.9952,-5.0108,-5.0255,-5.0348,-5.0435,-5.054,-5.0603,-5.0623,-5.0663,-5.0683,-5.0683,-5.0683,-5.0683,-5.0702,-5.0759,-5.0794,-5.0863,-5.096,-5.1081,-5.1152,-5.121,-5.1276,-5.133,-5.138,-5.1377,-5.1402,-5.1402,-5.1387,-5.1387,-5.1387,-5.1387,-5.1621,-5.1816,-5.2051,-5.2344,-5.2851,-5.3496,-4.1025,-4.1369,-4.1635,-4.1951,-4.2295,-4.2622,-4.2945,-4.3046,-4.2867,-4.2723,-4.2641,-4.2297,-4.1953,-4.1788,-4.1743,-4.1609,-4.1369,-4.0935,-4.0546,-4.0068,-3.9559,-3.9439,-3.9424,-3.9424,-3.9424,-3.9424,-3.9424,-3.9424,-3.9424,-3.9424,-3.9424,-3.9424,-3.9424,-3.9424,-3.9424,-3.9424,-3.9424,-3.9424,-3.9568,-3.9696,-3.9996,-4.0191,-4.0539,-4.1049,-4.1339,-4.1704,-4.2238,-4.2791,-4.3162,-4.3611,-4.393,-4.4305,-4.457,-4.472,-4.4886,-4.5049,-4.523,-4.5563,-4.5838,-4.6204,-4.6548,-4.6909,-4.7187,-4.7461,-4.7826,-4.7943,-4.8072,-4.8247,-4.8267,-4.8363,-4.8419,-4.8475,-4.8587,-4.8732,-4.8927,-4.9131,-4.9402,-4.9702,-4.9898,-5.0031,-5.0163,-5.0278,-5.039,-5.0498,-5.0582,-5.0603,-5.0643,-5.0683,-5.0683,-5.0683,-5.0683,-5.0702,-5.0721,-5.0776,-5.081,-5.0909,-5.1053,-5.1095,-5.1159,-5.1219,-5.1284,-5.1349,-5.1386,-5.1385,-5.1384,-5.1387,-5.1387,-5.1387,-5.1426,-5.1797,-5.2148,-5.2402,-5.2715,-5.3808,-5.4492,-4.1905,-4.2238,-4.2201,-4.2339,-4.2703,-4.2894,-4.3055,-4.325,-4.3235,-4.3205,-4.3269,-4.3165,-4.2925,-4.2491,-4.2417,-4.2147,-4.1594,-4.1474,-4.1414,-4.104,-4.0292,-3.9649,-3.9454,-3.9424,-3.9424,-3.9424,-3.9424,-3.9424,-3.9424,-3.9424,-3.9424,-3.9424,-3.9424,-3.9424,-3.9424,-3.9424,-3.9424,-3.9424,-3.9424,-3.964,-3.994,-3.9996,-4.0347,-4.0982,-4.1221,-4.1522,-4.2077,-4.2652,-4.3182,-4.3602,-4.4023,-4.435,-4.457,-4.472,-4.4831,-4.4995,-4.5247,-4.5511,-4.5821,-4.6105,-4.6464,-4.6773,-4.7088,-4.7407,-4.7675,-4.7907,-4.805,-4.8206,-4.8265,-4.8306,-4.8363,-4.8401,-4.8494,-4.8532,-4.8787,-4.9046,-4.9334,-4.9615,-4.9788,-4.9925,-5.0082,-5.0212,-5.0259,-5.0412,-5.05,-5.0582,-5.0643,-5.0663,-5.0683,-5.0683,-5.0683,-5.0702,-5.0721,-5.0739,-5.0773,-5.0877,-5.1005,-5.1108,-5.1156,-5.123,-5.1277,-5.1349,-5.1396,-5.1389,-5.1387,-5.1387,-5.1406,-5.1406,-5.1562,-5.1914,-5.2246,-5.2578,-5.3457,-5.4609,-5.5273,-4.2564,-4.2582,-4.2818,-4.2899,-4.2732,-4.2909,-4.3135,-4.3265,-4.3344,-4.3344,-4.3344,-4.3344,-4.324,-4.3075,-4.306,-4.297,-4.2686,-4.2297,-4.2117,-4.1968,-4.1294,-4.0292,-3.9589,-3.9439,-3.9424,-3.9424,-3.9424,-3.9424,-3.9424,-3.9424,-3.9424,-3.9424,-3.9424,-3.9424,-3.9424,-3.9424,-3.9424,-3.9424,-3.9424,-3.9481,-3.9768,-3.994,-4.0191,-4.0593,-4.095,-4.1421,-4.1947,-4.2666,-4.3321,-4.392,-4.4065,-4.427,-4.457,-4.4626,-4.4793,-4.4995,-4.5086,-4.53,-4.5718,-4.6005,-4.6319,-4.6755,-4.7043,-4.7356,-4.7657,-4.7888,-4.8068,-4.8184,-4.8265,-4.8324,-4.8306,-4.8363,-4.8438,-4.8569,-4.8768,-4.8993,-4.9257,-4.9415,-4.9596,-4.9871,-4.9933,-5.0063,-5.0188,-5.0302,-5.0393,-5.05,-5.0582,-5.0663,-5.0663,-5.0683,-5.0683,-5.0683,-5.0702,-5.0738,-5.0791,-5.0858,-5.0956,-5.1081,-5.1152,-5.123,-5.1289,-5.1355,-5.139,-5.1396,-5.1385,-5.1387,-5.1406,-5.1426,-5.1719,-5.2129,-5.2969,-5.3633,-5.4551,-5.5586,-5.5976,-4.3512,-4.3603,-4.377,-4.3622,-4.3308,-4.3456,-4.3468,-4.3295,-4.3344,-4.3344,-4.3344,-4.3344,-4.3344,-4.3344,-4.3329,-4.3329,-4.3269,-4.294,-4.2791,-4.2656,-4.2087,-4.1085,-4.0081,-3.9826,-3.9709,-3.9424,-3.9424,-3.9424,-3.9424,-3.9424,-3.9424,-3.9424,-3.9424,-3.9424,-3.9424,-3.9424,-3.9424,-3.9424,-3.9424,-3.9481,-3.9681,-3.9925,-4.0207,-4.0524,-4.0882,-4.1386,-4.2076,-4.2729,-4.3317,-4.3777,-4.4048,-4.4196,-4.4429,-4.4553,-4.4737,-4.4995,-4.4995,-4.5264,-4.5718,-4.5905,-4.6204,-4.6673,-4.6998,-4.7267,-4.7529,-4.7765,-4.8006,-4.8087,-4.8169,-4.8247,-4.8324,-4.8324,-4.8401,-4.855,-4.8678,-4.889,-4.9179,-4.9321,-4.9457,-4.9655,-4.9824,-4.9933,-5.0089,-5.0212,-5.0325,-5.0457,-5.0542,-5.0603,-5.0643,-5.0663,-5.0683,-5.0683,-5.0702,-5.072,-5.0775,-5.0844,-5.0941,-5.1048,-5.1186,-5.1249,-5.1308,-5.1366,-5.1375,-5.1396,-5.1385,-5.1406,-5.1406,-5.1621,-5.2148,-5.2793,-5.3789,-5.4609,-5.5351,-5.5996,-5.6426,-4.4507,-4.4923,-4.4773,-4.4438,-4.4139,-4.425,-4.3973,-4.3524,-4.3374,-4.3344,-4.3344,-4.3344,-4.3344,-4.3344,-4.3344,-4.3344,-4.3344,-4.3269,-4.3284,-4.309,-4.2641,-4.182,-4.0815,-4.0381,-4.0053,-3.9649,-3.9499,-3.9424,-3.9424,-3.9424,-3.9424,-3.9424,-3.9424,-3.9424,-3.9424,-3.9424,-3.9424,-3.9424,-3.9424,-3.9481,-3.9625,-3.9854,-4.0137,-4.0401,-4.0882,-4.1484,-4.2189,-4.2731,-4.3162,-4.3519,-4.3889,-4.4145,-4.4288,-4.4502,-4.472,-4.494,-4.4995,-4.5247,-4.5649,-4.5837,-4.6119,-4.6542,-4.6906,-4.7223,-4.7363,-4.7639,-4.7925,-4.801,-4.813,-4.8208,-4.8286,-4.8324,-4.8363,-4.8494,-4.8587,-4.8732,-4.9015,-4.9262,-4.9384,-4.9415,-4.9683,-4.9871,-5.0031,-5.0158,-5.0302,-5.039,-5.0478,-5.0563,-5.0623,-5.0663,-5.0683,-5.0683,-5.0702,-5.0721,-5.0776,-5.0829,-5.0925,-5.1062,-5.12,-5.1304,-5.1349,-5.1396,-5.1379,-5.1396,-5.1385,-5.1406,-5.1426,-5.1816,-5.248,-5.3281,-5.416,-5.4883,-5.5547,-5.6133,-5.6601,-4.5014,-4.5244,-4.5286,-4.5117,-4.4733,-4.446,-4.4242,-4.4062,-4.3569,-4.3404,-4.3344,-4.3344,-4.3344,-4.3344,-4.3344,-4.3344,-4.3344,-4.3344,-4.3344,-4.3314,-4.3225,-4.2663,-4.1784,-4.1025,-4.0367,-4.0068,-3.9634,-3.9439,-3.9424,-3.9424,-3.9424,-3.9424,-3.9424,-3.9424,-3.9424,-3.9424,-3.9424,-3.9424,-3.9424,-3.9424,-3.9481,-3.9783,-4.0081,-4.0207,-4.0867,-4.15,-4.2139,-4.2621,-4.3003,-4.331,-4.3748,-4.4088,-4.4288,-4.4502,-4.4665,-4.4831,-4.494,-4.514,-4.5441,-4.5752,-4.6005,-4.6381,-4.672,-4.7015,-4.732,-4.7554,-4.7824,-4.7951,-4.809,-4.8226,-4.8286,-4.8324,-4.8363,-4.8457,-4.8532,-4.8606,-4.8841,-4.903,-4.923,-4.9402,-4.9555,-4.975,-4.9898,-5.0057,-5.0182,-5.0302,-5.0435,-5.0521,-5.0584,-5.0643,-5.0663,-5.0683,-5.0702,-5.0721,-5.0794,-5.0844,-5.0956,-5.1069,-5.121,-5.132,-5.1369,-5.1396,-5.1402,-5.1396,-5.1385,-5.1406,-5.1406,-5.2226,-5.293,-5.373,-5.4531,-5.5312,-5.5996,-5.6445,-5.6621,-4.5663,-4.5903,-4.6151,-4.5969,-4.5615,-4.5311,-4.5065,-4.4691,-4.4077,-4.3793,-4.3703,-4.3494,-4.3344,-4.3344,-4.3344,-4.3344,-4.3344,-4.3344,-4.3344,-4.3344,-4.3314,-4.3145,-4.2768,-4.1831,-4.1085,-4.0502,-4.0083,-3.9768,-3.9514,-3.9424,-3.9424,-3.9424,-3.9424,-3.9424,-3.9424,-3.9424,-3.9424,-3.9424,-3.9424,-3.9424,-3.9424,-3.9711,-4.0066,-4.0261,-4.0882,-4.1433,-4.2008,-4.2398,-4.2769,-4.3158,-4.3614,-4.3956,-4.4198,-4.4468,-4.4665,-4.4776,-4.494,-4.514,-4.5389,-4.5649,-4.5955,-4.6284,-4.6578,-4.6924,-4.7205,-4.7493,-4.7728,-4.7951,-4.809,-4.8169,-4.8286,-4.8324,-4.8363,-4.8401,-4.8457,-4.8532,-4.8697,-4.8876,-4.9083,-4.9276,-4.9434,-4.9615,-4.9788,-4.9952,-5.0089,-5.0231,-5.0348,-5.0459,-5.0542,-5.0603,-5.0643,-5.0683,-5.0683,-5.0721,-5.0812,-5.0893,-5.1,-5.1108,-5.121,-5.1312,-5.1388,-5.1396,-5.1402,-5.1396,-5.1387,-5.1387,-5.1562,-5.2461,-5.3301,-5.3965,-5.4765,-5.5723,-5.6348,-5.6543,-5.6621,-4.615,-4.6594,-4.6844,-4.6706,-4.6431,-4.6337,-4.5948,-4.5394,-4.4631,-4.4227,-4.4182,-4.3614,-4.3344,-4.3344,-4.3344,-4.3344,-4.3344,-4.3344,-4.3344,-4.3344,-4.3344,-4.3235,-4.3041,-4.2626,-4.1893,-4.0771,-4.0412,-4.0038,-3.9559,-3.9424,-3.9424,-3.9424,-3.9424,-3.9424,-3.9424,-3.9424,-3.9424,-3.9424,-3.9424,-3.9424,-3.9424,-3.9625,-3.998,-4.0455,-4.0898,-4.1366,-4.1878,-4.2238,-4.2645,-4.3075,-4.3453,-4.3773,-4.4068,-4.4361,-4.4626,-4.472,-4.4886,-4.5032,-4.5283,-4.5546,-4.5854,-4.6137,-4.65,-4.6849,-4.7116,-4.7335,-4.7572,-4.7852,-4.801,-4.8111,-4.8286,-4.8324,-4.8324,-4.8306,-4.8401,-4.8457,-4.8532,-4.8697,-4.8943,-4.9113,-4.9308,-4.9525,-4.9702,-4.9871,-5.0031,-5.0163,-5.0302,-5.0393,-5.0478,-5.0562,-5.0623,-5.0663,-5.0683,-5.0721,-5.0812,-5.0945,-5.1062,-5.112,-5.121,-5.1304,-5.1382,-5.1386,-5.139,-5.1391,-5.1387,-5.1387,-5.1816,-5.2773,-5.3555,-5.416,-5.5078,-5.6152,-5.6523,-5.6601,-5.6621,-4.615,-4.6594,-4.6844,-4.6959,-4.7055,-4.6576,-4.6292,-4.5948,-4.4915,-4.4332,-4.4257,-4.3658,-4.3389,-4.3344,-4.3344,-4.3344,-4.3344,-4.3344,-4.3344,-4.3344,-4.3344,-4.3344,-4.3284,-4.315,-4.2641,-4.1923,-4.11,-4.0232,-3.9619,-3.9424,-3.9424,-3.9424,-3.9424,-3.9424,-3.9424,-3.9424,-3.9424,-3.9424,-3.9424,-3.9424,-3.9424,-3.9625,-3.991,-4.0455,-4.0898,-4.1366,-4.1797,-4.2238,-4.2583,-4.3092,-4.3393,-4.3781,-4.4037,-4.4259,-4.4423,-4.4626,-4.4776,-4.494,-4.514,-4.5336,-4.5632,-4.5955,-4.6323,-4.6648,-4.698,-4.7237,-4.7494,-4.777,-4.8028,-4.8208,-4.8286,-4.8324,-4.8324,-4.8306,-4.8324,-4.8401,-4.8476,-4.8587,-4.875,-4.8925,-4.916,-4.9402,-4.9585,-4.9788,-4.9952,-5.0089,-5.0231,-5.0371,-5.05,-5.0562,-5.0623,-5.0663,-5.0683,-5.074,-5.0793,-5.096,-5.1075,-5.1101,-5.118,-5.1276,-5.1342,-5.1388,-5.1396,-5.1385,-5.14,-5.1387,-5.207,-5.2949,-5.3594,-5.4043,-5.5254,-5.6543,-5.6621,-5.6621,-5.6621,-4.6491,-4.6756,-4.7019,-4.7207,-4.7249,-4.698,-4.683,-4.6696,-4.5798,-4.5155,-4.4721,-4.4152,-4.3629,-4.3419,-4.3344,-4.3344,-4.3344,-4.3344,-4.3344,-4.3344,-4.3344,-4.3344,-4.3344,-4.3344,-4.294,-4.2357,-4.1654,-4.0831,-3.9963,-3.9574,-3.9469,-3.9424,-3.9424,-3.9424,-3.9424,-3.9424,-3.9424,-3.9424,-3.9424,-3.9424,-3.9424,-3.9696,-3.9996,-4.0277,-4.0761,-4.1216,-4.1598,-4.2044,-4.2488,-4.2939,-4.3224,-4.3588,-4.3939,-4.4145,-4.4327,-4.457,-4.472,-4.4831,-4.5049,-4.523,-4.5529,-4.5854,-4.6125,-4.6469,-4.6824,-4.7142,-4.7409,-4.7811,-4.8028,-4.8226,-4.8306,-4.8306,-4.8324,-4.8324,-4.8324,-4.8324,-4.8401,-4.8513,-4.8605,-4.8785,-4.9027,-4.9308,-4.9476,-4.9655,-4.9852,-5.0012,-5.0182,-5.0325,-5.0478,-5.0562,-5.0603,-5.0683,-5.0721,-5.0758,-5.081,-5.096,-5.1095,-5.1101,-5.115,-5.1248,-5.1316,-5.1362,-5.1391,-5.1394,-5.1394,-5.1386,-5.1758,-5.2461,-5.3183,-5.3984,-5.5019,-5.5957,-5.6406,-5.6621,-5.6621,-4.6683,-4.6931,-4.7207,-4.7309,-4.7309,-4.7309,-4.7294,-4.7174,-4.6576,-4.5858,-4.5259,-4.4586,-4.3928,-4.3479,-4.3344,-4.3344,-4.3344,-4.3344,-4.3344,-4.3344,-4.3344,-4.3344,-4.3344,-4.3284,-4.3075,-4.2716,-4.2282,-4.1669,-4.0472,-3.9918,-3.9619,-3.9454,-3.9424,-3.9424,-3.9424,-3.9424,-3.9424,-3.9424,-3.9424,-3.9424,-3.9481,-3.9783,-4.0011,-4.0081,-4.0693,-4.1148,-4.1362,-4.1849,-4.2379,-4.2823,-4.3087,-4.3443,-4.3956,-4.4121,-4.427,-4.457,-4.4665,-4.4814,-4.5032,-4.5194,-4.5389,-4.5718,-4.599,-4.6337,-4.6684,-4.7044,-4.7439,-4.787,-4.809,-4.8187,-4.8247,-4.8267,-4.8324,-4.8324,-4.8324,-4.8324,-4.8363,-4.8438,-4.855,-4.8714,-4.8959,-4.916,-4.9384,-4.9585,-4.9788,-4.9933,-5.0108,-5.0231,-5.0371,-5.0478,-5.0563,-5.0664,-5.0721,-5.0794,-5.0863,-5.0979,-5.1062,-5.1095,-5.1139,-5.1219,-5.1308,-5.1362,-5.1372,-5.139,-5.1389,-5.1445,-5.1719,-5.2109,-5.3008,-5.3887,-5.4726,-5.5527,-5.6269,-5.6601,-5.6621,-4.6683,-4.6916,-4.7207,-4.7309,-4.7309,-4.7309,-4.7309,-4.7219,-4.6651,-4.5933,-4.5379,-4.4631,-4.3988,-4.3464,-4.3344,-4.3344,-4.3344,-4.3344,-4.3344,-4.3344,-4.3344,-4.3344,-4.3344,-4.3344,-4.3284,-4.303,-4.2626,-4.1639,-4.0771,-4.0397,-3.9918,-3.9544,-3.9424,-3.9424,-3.9424,-3.9424,-3.9424,-3.9424,-3.9424,-3.9424,-3.9496,-3.9783,-3.994,-4.0222,-4.0639,-4.1148,-4.1346,-4.1767,-4.2332,-4.2811,-4.3015,-4.3399,-4.3964,-4.408,-4.4286,-4.453,-4.4643,-4.472,-4.4923,-4.5086,-4.5247,-4.5581,-4.5856,-4.6143,-4.656,-4.7035,-4.745,-4.7842,-4.7988,-4.809,-4.8208,-4.8286,-4.8286,-4.8324,-4.8324,-4.8324,-4.8324,-4.8363,-4.8476,-4.8605,-4.882,-4.9061,-4.9276,-4.9495,-4.9673,-4.9871,-5.0012,-5.0163,-5.0325,-5.0457,-5.0542,-5.0664,-5.0721,-5.0794,-5.0827,-5.096,-5.1034,-5.1082,-5.1147,-5.121,-5.1292,-5.1356,-5.1386,-5.139,-5.1389,-5.1406,-5.1562,-5.209,-5.2969,-5.3769,-5.4512,-5.5449,-5.6426,-5.6562,-5.6601,-4.6931,-4.7121,-4.7207,-4.7309,-4.7309,-4.7309,-4.7309,-4.7249,-4.6995,-4.6491,-4.5839,-4.5132,-4.4317,-4.3494,-4.3344,-4.3344,-4.3344,-4.3344,-4.3344,-4.3344,-4.3344,-4.3344,-4.3344,-4.3344,-4.3344,-4.3254,-4.3015,-4.2551,-4.1579,-4.0681,-4.0053,-3.9544,-3.9424,-3.9424,-3.9424,-3.9424,-3.9424,-3.9424,-3.9424,-3.9424,-3.9496,-3.9798,-4.0011,-4.0011,-4.0708,-4.1081,-4.1335,-4.1767,-4.2269,-4.2671,-4.2937,-4.3416,-4.3906,-4.4097,-4.4286,-4.457,-4.457,-4.4665,-4.4886,-4.4923,-4.5194,-4.5441,-4.5736,-4.6095,-4.6572,-4.7017,-4.7425,-4.7759,-4.7929,-4.805,-4.8169,-4.8247,-4.8286,-4.8324,-4.8324,-4.8324,-4.8324,-4.8363,-4.8438,-4.8569,-4.8714,-4.8959,-4.9211,-4.9434,-4.9634,-4.9788,-5.0005,-5.0139,-5.0325,-5.0478,-5.0582,-5.0683,-5.0721,-5.0757,-5.081,-5.0893,-5.1005,-5.1075,-5.1144,-5.122,-5.1295,-5.1335,-5.138,-5.1401,-5.1398,-5.1406,-5.1445,-5.1797,-5.2402,-5.332,-5.4297,-5.5195,-5.6074,-5.6562,-5.6601,-4.7106,-4.7309,-4.7309,-4.7309,-4.7309,-4.7309,-4.7309,-4.7309,-4.7294,-4.6793,-4.5992,-4.5176,-4.4167,-4.3524,-4.3344,-4.3344,-4.3344,-4.3344,-4.3344,-4.3344,-4.3344,-4.3344,-4.3344,-4.3344,-4.3344,-4.3344,-4.3284,-4.2851,-4.2132,-4.128,-4.0367,-3.9679,-3.9499,-3.9439,-3.9424,-3.9424,-3.9424,-3.9424,-3.9424,-3.9424,-3.9496,-3.9783,-3.994,-4.0207,-4.0624,-4.1117,-4.1169,-4.1736,-4.2252,-4.2606,-4.2921,-4.3416,-4.3981,-4.4097,-4.4286,-4.4514,-4.457,-4.4626,-4.4776,-4.4886,-4.514,-4.5405,-4.5702,-4.6143,-4.6707,-4.7089,-4.7363,-4.7633,-4.7888,-4.805,-4.813,-4.8247,-4.8286,-4.8324,-4.8324,-4.8324,-4.8324,-4.8324,-4.8382,-4.855,-4.8695,-4.8837,-4.9094,-4.9371,-4.9574,-4.975,-4.9952,-5.0114,-5.0325,-5.0478,-5.0582,-5.0683,-5.0702,-5.0739,-5.081,-5.0877,-5.0975,-5.1048,-5.1132,-5.121,-5.1287,-5.1335,-5.138,-5.1396,-5.139,-5.1406,-5.1426,-5.1582,-5.1816,-5.2871,-5.3887,-5.4805,-5.5586,-5.6191,-5.6582,-4.7309,-4.7309,-4.7309,-4.7309,-4.7309,-4.7309,-4.7309,-4.7309,-4.7309,-4.6595,-4.5382,-4.4124,-4.3643,-4.3359,-4.3344,-4.3344,-4.3344,-4.3344,-4.3344,-4.3344,-4.3344,-4.3344,-4.3344,-4.3344,-4.3344,-4.3344,-4.3329,-4.2985,-4.2342,-4.1639,-4.0905,-4.0367,-3.9723,-3.9499,-3.9424,-3.9424,-3.9424,-3.9424,-3.9424,-3.9424,-3.9496,-3.9783,-4.0011,-4.0137,-4.0624,-4.1117,-4.1117,-4.1736,-4.2285,-4.2602,-4.2921,-4.3416,-4.3981,-4.4097,-4.427,-4.4514,-4.457,-4.4626,-4.4682,-4.4886,-4.5086,-4.53,-4.5718,-4.6154,-4.6653,-4.7017,-4.7294,-4.7529,-4.7806,-4.7951,-4.8072,-4.8151,-4.8286,-4.8324,-4.8324,-4.8324,-4.8324,-4.8324,-4.8382,-4.855,-4.8677,-4.8802,-4.8993,-4.9244,-4.9514,-4.9721,-4.9952,-5.0158,-5.0348,-5.05,-5.0563,-5.0644,-5.0683,-5.0739,-5.0793,-5.0861,-5.0925,-5.1034,-5.1127,-5.12,-5.1278,-5.1335,-5.138,-5.1396,-5.1394,-5.1394,-5.1406,-5.1504,-5.1816,-5.2598,-5.3516,-5.459,-5.5508,-5.623,-5.6523,-4.7309,-4.7309,-4.7309,-4.7309,-4.7309,-4.7309,-4.7309,-4.7309,-4.7294,-4.6591,-4.5251,-4.431,-4.3703,-4.3434,-4.3344,-4.3344,-4.3344,-4.3344,-4.3344,-4.3344,-4.3344,-4.3344,-4.3344,-4.3329,-4.3344,-4.3329,-4.3314,-4.3269,-4.2925,-4.1968,-4.1414,-4.0771,-3.9963,-3.9544,-3.9424,-3.9424,-3.9424,-3.9424,-3.9424,-3.9424,-3.9496,-3.9783,-4.0011,-4.0081,-4.0693,-4.107,-4.1174,-4.1785,-4.2189,-4.2564,-4.2892,-4.3459,-4.3981,-4.4097,-4.427,-4.453,-4.457,-4.457,-4.4626,-4.4831,-4.5121,-4.5475,-4.5787,-4.6151,-4.6607,-4.6926,-4.7187,-4.7468,-4.7741,-4.7888,-4.8032,-4.8111,-4.8247,-4.8286,-4.8324,-4.8324,-4.8324,-4.8324,-4.8363,-4.8495,-4.8587,-4.8695,-4.8925,-4.9146,-4.9402,-4.9663,-4.9898,-5.0158,-5.0348,-5.0521,-5.0582,-5.0643,-5.0683,-5.072,-5.0793,-5.0844,-5.0893,-5.1,-5.1114,-5.1178,-5.1249,-5.1289,-5.133,-5.1372,-5.139,-5.1389,-5.14,-5.1386,-5.1758,-5.2402,-5.3398,-5.4551,-5.543,-5.623,-5.6484,-4.6711,-4.6726,-4.6935,-4.713,-4.7294,-4.7309,-4.7309,-4.7264,-4.707,-4.6262,-4.4975,-4.4317,-4.3793,-4.3419,-4.3344,-4.3344,-4.3423,-4.3438,-4.3438,-4.3518,-4.3518,-4.3503,-4.3472,-4.3566,-4.3581,-4.3503,-4.3423,-4.3394,-4.3304,-4.2269,-4.1654,-4.1085,-4.0307,-3.9783,-3.9424,-3.9424,-3.9424,-3.9424,-3.9424,-3.9424,-3.9424,-3.9783,-4.0011,-4.0081,-4.0693,-4.107,-4.1292,-4.1738,-4.2221,-4.2629,-4.297,-4.3416,-4.3848,-4.4138,-4.431,-4.444,-4.457,-4.457,-4.4665,-4.4831,-4.5192,-4.5475,-4.5736,-4.6052,-4.6436,-4.6817,-4.7053,-4.732,-4.7615,-4.7884,-4.7951,-4.813,-4.8247,-4.8286,-4.8324,-4.8324,-4.8324,-4.8324,-4.8401,-4.8476,-4.8569,-4.8695,-4.8959,-4.9179,-4.9464,-4.9702,-4.9925,-5.0158,-5.0325,-5.0478,-5.0562,-5.0623,-5.0702,-5.0721,-5.0775,-5.0827,-5.0877,-5.102,-5.1114,-5.1136,-5.1191,-5.1253,-5.1323,-5.1361,-5.1381,-5.1402,-5.1396,-5.1386,-5.1699,-5.2129,-5.3262,-5.4453,-5.5332,-5.6094,-5.6465,-4.5394,-4.5424,-4.6082,-4.6681,-4.7145,-4.7279,-4.7264,-4.7115,-4.6486,-4.5559,-4.4421,-4.3733,-4.3434,-4.3344,-4.3344,-4.3438,-4.3611,-4.369,-4.3784,-4.3892,-4.3847,-4.3957,-4.3942,-4.3879,-4.3832,-4.391,-4.3832,-4.3675,-4.366,-4.2784,-4.2121,-4.1355,-4.0487,-3.9858,-3.9454,-3.9424,-3.9424,-3.9424,-3.9424,-3.9424,-3.9496,-3.9783,-4.0011,-4.0152,-4.0693,-4.107,-4.1292,-4.1754,-4.2237,-4.2645,-4.2929,-4.3421,-4.3998,-4.4088,-4.4259,-4.4553,-4.457,-4.457,-4.4626,-4.4886,-4.5103,-4.5371,-4.5649,-4.5953,-4.6341,-4.666,-4.698,-4.7232,-4.7511,-4.7783,-4.797,-4.809,-4.8208,-4.8286,-4.8324,-4.8324,-4.8324,-4.8324,-4.8363,-4.8438,-4.8532,-4.8714,-4.8993,-4.9244,-4.9525,-4.9759,-4.9978,-5.0158,-5.0302,-5.0416,-5.0521,-5.0603,-5.0682,-5.0721,-5.0757,-5.0812,-5.088,-5.1005,-5.1102,-5.1113,-5.1171,-5.1245,-5.1323,-5.1369,-5.1401,-5.1402,-5.1396,-5.1385,-5.1641,-5.1953,-5.3183,-5.4316,-5.5195,-5.5937,-5.6387,-4.5289,-4.5304,-4.5544,-4.5768,-4.6022,-4.6471,-4.6655,-4.6465,-4.5537,-4.4719,-4.4242,-4.3614,-4.3344,-4.3344,-4.3518,-4.3596,-4.369,-4.3847,-4.3955,-4.4033,-4.408,-4.3988,-4.405,-4.4127,-4.408,-4.3988,-4.391,-4.391,-4.3895,-4.3134,-4.2349,-4.1535,-4.0471,-3.9694,-3.9469,-3.9424,-3.9424,-3.9424,-3.9424,-3.9424,-3.9481,-3.9783,-4.0011,-4.0011,-4.0708,-4.1153,-4.1225,-4.1769,-4.2269,-4.2756,-4.301,-4.3421,-4.3981,-4.4128,-4.4243,-4.448,-4.457,-4.457,-4.4665,-4.4814,-4.5069,-4.5319,-4.558,-4.5903,-4.6112,-4.6584,-4.6916,-4.7223,-4.7425,-4.7681,-4.797,-4.8032,-4.813,-4.8286,-4.8324,-4.8324,-4.8324,-4.8324,-4.8363,-4.8382,-4.8476,-4.8785,-4.9079,-4.9244,-4.9495,-4.9731,-4.9952,-5.0108,-5.0278,-5.0416,-5.0521,-5.0603,-5.0663,-5.0702,-5.074,-5.0775,-5.0827,-5.0941,-5.1062,-5.1127,-5.1189,-5.1256,-5.1316,-5.1388,-5.1396,-5.1402,-5.1398,-5.1387,-5.1387,-5.1875,-5.2969,-5.4043,-5.4941,-5.5781,-5.6484,-4.4616,-4.4631,-4.4855,-4.496,-4.5065,-4.5678,-4.5878,-4.5511,-4.4659,-4.4198,-4.3868,-4.3494,-4.3344,-4.3503,-4.3596,-4.3832,-4.391,-4.4143,-4.4297,-4.4281,-4.445,-4.445,-4.445,-4.4358,-4.4526,-4.4374,-4.4297,-4.422,-4.4205,-4.3624,-4.2773,-4.167,-4.0392,-3.9808,-3.9613,-3.9496,-3.9424,-3.9424,-3.9424,-3.9424,-3.9568,-3.9783,-4.0011,-4.0292,-4.0693,-4.1169,-4.139,-4.1851,-4.2381,-4.2791,-4.3101,-4.3421,-4.3889,-4.4169,-4.4282,-4.4463,-4.457,-4.457,-4.4665,-4.4776,-4.4961,-4.5125,-4.5546,-4.5852,-4.6032,-4.6442,-4.6824,-4.7133,-4.7338,-4.7597,-4.7888,-4.7929,-4.8072,-4.8247,-4.8324,-4.8324,-4.8324,-4.8324,-4.8324,-4.8382,-4.8476,-4.882,-4.9113,-4.9225,-4.9415,-4.9655,-4.9898,-5.0082,-5.0231,-5.0393,-5.0521,-5.0563,-5.0643,-5.0683,-5.072,-5.0775,-5.0827,-5.089,-5.1,-5.1121,-5.1178,-5.1258,-5.1328,-5.1388,-5.1401,-5.1382,-5.14,-5.1387,-5.1387,-5.1758,-5.2558,-5.3613,-5.4668,-5.5469,-5.623,-4.3359,-4.3434,-4.4018,-4.4287,-4.4407,-4.493,-4.4855,-4.4332,-4.4243,-4.3912,-4.3359,-4.3374,-4.3438,-4.3675,-4.369,-4.3988,-4.4281,-4.4496,-4.4663,-4.4889,-4.4964,-4.5055,-4.5129,-4.5129,-4.5039,-4.4964,-4.4814,-4.4603,-4.4572,-4.3746,-4.2954,-4.1984,-4.0568,-4.0039,-3.9813,-3.9666,-3.9538,-3.9553,-3.9568,-3.964,-3.9783,-3.9925,-4.0137,-4.0416,-4.0761,-4.1169,-4.1472,-4.1851,-4.2365,-4.2759,-4.3068,-4.3492,-4.3839,-4.4108,-4.4305,-4.4502,-4.457,-4.457,-4.4626,-4.472,-4.4869,-4.5069,-4.5459,-4.5802,-4.6067,-4.6346,-4.6713,-4.7025,-4.7249,-4.7511,-4.7783,-4.7929,-4.805,-4.8169,-4.8286,-4.8286,-4.8324,-4.8324,-4.8324,-4.8382,-4.8476,-4.8731,-4.9046,-4.9244,-4.9371,-4.9615,-4.9816,-4.9978,-5.0182,-5.0393,-5.0481,-5.0521,-5.0604,-5.0683,-5.074,-5.0757,-5.081,-5.0858,-5.1005,-5.1127,-5.1197,-5.1249,-5.1328,-5.1388,-5.1381,-5.1385,-5.1384,-5.1387,-5.1387,-5.1855,-5.2246,-5.2851,-5.3789,-5.4941,-5.5742,-4.3344,-4.3359,-4.3554,-4.3614,-4.3643,-4.3823,-4.3763,-4.3614,-4.3603,-4.3419,-4.3329,-4.3518,-4.3675,-4.369,-4.3988,-4.4281,-4.4511,-4.4739,-4.4905,-4.5129,-4.5336,-4.541,-4.541,-4.541,-4.541,-4.5336,-4.5188,-4.5024,-4.4716,-4.3864,-4.3024,-4.2272,-4.0811,-4.0294,-4.0051,-3.9929,-3.992,-3.9824,-3.9854,-3.9854,-3.9925,-4.0066,-4.0277,-4.0486,-4.0845,-4.1169,-4.1538,-4.1916,-4.2429,-4.2929,-4.3035,-4.3399,-4.4023,-4.4125,-4.426,-4.4536,-4.457,-4.457,-4.4626,-4.472,-4.4831,-4.4978,-4.5336,-4.5615,-4.5887,-4.6235,-4.6572,-4.687,-4.7205,-4.7468,-4.7681,-4.7888,-4.801,-4.813,-4.8247,-4.8286,-4.8324,-4.8324,-4.8324,-4.8401,-4.8495,-4.8695,-4.9012,-4.9179,-4.9308,-4.9555,-4.9759,-4.9925,-5.0108,-5.0325,-5.0459,-5.0521,-5.0603,-5.0683,-5.0721,-5.0758,-5.0793,-5.0844,-5.0995,-5.1114,-5.1163,-5.123,-5.1312,-5.1369,-5.1386,-5.1394,-5.1386,-5.1387,-5.1387,-5.1387,-5.1738,-5.2285,-5.2969,-5.4062,-5.5137,-4.3344,-4.3344,-4.3344,-4.3344,-4.3344,-4.3344,-4.3329,-4.3423,-4.3442,-4.3457,-4.3503,-4.3675,-4.391,-4.4143,-4.4358,-4.4587,-4.4905,-4.5188,-4.5352,-4.5499,-4.5687,-4.5832,-4.5832,-4.5832,-4.5832,-4.576,-4.563,-4.5573,-4.5008,-4.3796,-4.2772,-4.2664,-4.1122,-4.0631,-4.0486,-4.0462,-4.0462,-4.0316,-4.0222,-4.0081,-4.0137,-4.0277,-4.0347,-4.0539,-4.0898,-4.1303,-4.167,-4.1996,-4.2429,-4.2974,-4.3096,-4.3399,-4.4023,-4.4192,-4.4328,-4.457,-4.457,-4.457,-4.4626,-4.4699,-4.4848,-4.4978,-4.5177,-4.5441,-4.5752,-4.6154,-4.6495,-4.6778,-4.707,-4.7381,-4.7578,-4.7829,-4.7951,-4.809,-4.8208,-4.8324,-4.8324,-4.8324,-4.8363,-4.8419,-4.855,-4.8678,-4.889,-4.9079,-4.9295,-4.9544,-4.975,-4.9898,-5.0082,-5.0255,-5.0393,-5.05,-5.0582,-5.0682,-5.0702,-5.0758,-5.0794,-5.0844,-5.0995,-5.1095,-5.1132,-5.122,-5.132,-5.1375,-5.1394,-5.1396,-5.1387,-5.1387,-5.1387,-5.1387,-5.1387,-5.1777,-5.2324,-5.3047,-5.4101,-4.3344,-4.3344,-4.3344,-4.3344,-4.3344,-4.3359,-4.3438,-4.366,-4.3711,-4.3711,-4.3754,-4.3988,-4.4189,-4.4435,-4.4648,-4.4964,-4.5278,-4.5573,-4.5792,-4.5864,-4.6191,-4.6333,-4.6404,-4.6333,-4.6333,-4.6333,-4.6191,-4.5977,-4.5396,-4.4212,-4.3239,-4.3106,-4.1767,-4.1047,-4.0966,-4.0972,-4.0888,-4.0814,-4.0555,-4.0292,-4.0331,-4.0401,-4.047,-4.073,-4.1018,-4.1319,-4.1767,-4.2141,-4.2445,-4.2851,-4.3223,-4.3498,-4.3989,-4.4367,-4.4553,-4.457,-4.457,-4.457,-4.457,-4.4626,-4.4793,-4.4886,-4.5049,-4.5353,-4.5701,-4.6005,-4.635,-4.6684,-4.7025,-4.7249,-4.7511,-4.7788,-4.7992,-4.8072,-4.819,-4.8267,-4.8324,-4.8324,-4.8306,-4.8401,-4.855,-4.8678,-4.8785,-4.9012,-4.9244,-4.9514,-4.9692,-4.9843,-5.0031,-5.0207,-5.0348,-5.0459,-5.0582,-5.0663,-5.0702,-5.074,-5.0794,-5.088,-5.0995,-5.1081,-5.1108,-5.121,-5.1328,-5.1355,-5.139,-5.1391,-5.1387,-5.1387,-5.1387,-5.1387,-5.1387,-5.1387,-5.1797,-5.2383,-5.3301,-4.3344,-4.3344,-4.3344,-4.3344,-4.3359,-4.3543,-4.3608,-4.3754,-4.399,-4.4082,-4.405,-4.4281,-4.4496,-4.4723,-4.5098,-4.541,-4.5719,-4.5936,-4.6207,-4.642,-4.6684,-4.6839,-4.6961,-4.6892,-4.6892,-4.6738,-4.6598,-4.6388,-4.5872,-4.4722,-4.3712,-4.3601,-4.2265,-4.1424,-4.1355,-4.1292,-4.1276,-4.1221,-4.0966,-4.0746,-4.0662,-4.0593,-4.0593,-4.0799,-4.1034,-4.1386,-4.1799,-4.2205,-4.2589,-4.3039,-4.3382,-4.374,-4.4226,-4.4463,-4.457,-4.457,-4.457,-4.457,-4.457,-4.4626,-4.4737,-4.4886,-4.5032,-4.5353,-4.5667,-4.5905,-4.6253,-4.659,-4.6934,-4.716,-4.7425,-4.7747,-4.7992,-4.8072,-4.819,-4.8229,-4.8324,-4.8306,-4.8306,-4.842,-4.8532,-4.8642,-4.875,-4.8925,-4.9179,-4.9402,-4.9604,-4.9759,-4.9952,-5.0133,-5.0302,-5.0416,-5.0562,-5.0623,-5.0683,-5.074,-5.0775,-5.0844,-5.096,-5.1015,-5.1095,-5.1201,-5.1316,-5.1369,-5.1401,-5.1389,-5.14,-5.1387,-5.1387,-5.1387,-5.1387,-5.1387,-5.1387,-5.1836,-5.2793,-4.3344,-4.3344,-4.3344,-4.3344,-4.3533,-4.3668,-4.3796,-4.3957,-4.4327,-4.4418,-4.4419,-4.4648,-4.4874,-4.5039,-4.5499,-4.5848,-4.6136,-4.6349,-4.6631,-4.6892,-4.7079,-4.7232,-4.7283,-4.737,-4.7235,-4.7082,-4.6945,-4.6673,-4.6303,-4.5106,-4.4122,-4.3878,-4.2655,-4.1813,-4.1638,-4.1656,-4.1641,-4.1554,-4.1421,-4.1272,-4.1138,-4.095,-4.0882,-4.1018,-4.1272,-4.1554,-4.193,-4.2334,-4.2684,-4.3117,-4.3525,-4.3896,-4.4243,-4.4502,-4.4553,-4.457,-4.457,-4.457,-4.457,-4.4626,-4.4682,-4.4831,-4.4978,-4.5247,-4.5511,-4.5803,-4.6154,-4.656,-4.6888,-4.7116,-4.7407,-4.7687,-4.7911,-4.8032,-4.819,-4.8286,-4.8324,-4.8324,-4.8306,-4.8344,-4.8458,-4.8587,-4.8697,-4.8839,-4.9113,-4.9358,-4.9525,-4.9731,-4.9925,-5.0057,-5.0255,-5.0393,-5.05,-5.0603,-5.0683,-5.0721,-5.0757,-5.0844,-5.0909,-5.1029,-5.112,-5.1211,-5.1316,-5.1369,-5.1396,-5.1402,-5.1396,-5.1385,-5.1387,-5.1387,-5.1387,-5.1387,-5.1387,-5.1426,-5.2226,-4.3344,-4.3344,-4.3344,-4.3423,-4.3705,-4.3717,-4.3938,-4.4328,-4.4523,-4.4763,-4.5008,-4.5039,-4.5352,-4.5662,-4.5952,-4.6278,-4.6545,-4.6823,-4.7115,-4.7283,-4.7433,-4.7603,-4.7604,-4.7621,-4.7638,-4.7521,-4.7319,-4.7167,-4.6896,-4.5497,-4.4476,-4.4035,-4.3167,-4.2254,-4.219,-4.2174,-4.2174,-4.198,-4.1851,-4.172,-4.1538,-4.1303,-4.1221,-4.1272,-4.1522,-4.1785,-4.2093,-4.243,-4.278,-4.3195,-4.3704,-4.408,-4.4333,-4.4519,-4.4536,-4.457,-4.457,-4.457,-4.457,-4.457,-4.4665,-4.4776,-4.4923,-4.514,-4.5389,-4.5701,-4.6105,-4.6447,-4.6795,-4.7116,-4.7345,-4.7603,-4.7829,-4.8032,-4.819,-4.8324,-4.8324,-4.8324,-4.8324,-4.8324,-4.8401,-4.8513,-4.866,-4.8804,-4.9012,-4.9244,-4.9495,-4.9702,-4.9898,-5.0057,-5.0207,-5.0348,-5.0478,-5.0563,-5.0683,-5.0721,-5.072,-5.081,-5.0893,-5.1042,-5.1144,-5.124,-5.1308,-5.1369,-5.1396,-5.1398,-5.1394,-5.1384,-5.1387,-5.1387,-5.1387,-5.1387,-5.1387,-5.1465,-5.1758,-4.3344,-4.3344,-4.3344,-4.3423,-4.369,-4.3877,-4.4143,-4.4572,-4.475,-4.5153,-4.5468,-4.5646,-4.5735,-4.588,-4.649,-4.6823,-4.6961,-4.7235,-4.7437,-4.7588,-4.7819,-4.7969,-4.8034,-4.8049,-4.8083,-4.7886,-4.7671,-4.747,-4.709,-4.593,-4.5065,-4.4903,-4.3569,-4.2824,-4.2713,-4.2696,-4.2601,-4.2412,-4.2238,-4.2125,-4.1866,-4.1604,-4.1288,-4.1339,-4.1522,-4.1785,-4.2125,-4.2575,-4.286,-4.3227,-4.373,-4.4179,-4.4423,-4.4536,-4.4553,-4.457,-4.457,-4.457,-4.457,-4.457,-4.4665,-4.4776,-4.4886,-4.5086,-4.5353,-4.5649,-4.6005,-4.6332,-4.6666,-4.7007,-4.7258,-4.7554,-4.7824,-4.7992,-4.819,-4.8267,-4.8324,-4.8324,-4.8324,-4.8324,-4.8401,-4.8513,-4.8605,-4.8785,-4.8925,-4.9211,-4.9421,-4.9644,-4.9835,-5.0005,-5.0158,-5.0302,-5.0416,-5.0563,-5.0663,-5.0683,-5.072,-5.0793,-5.0893,-5.1029,-5.1144,-5.123,-5.1312,-5.1343,-5.1391,-5.1394,-5.1391,-5.14,-5.1387,-5.1387,-5.1387,-5.1387,-5.1387,-5.1445,-5.1641]}]]